Wetterdaten: Sonntag, 10.04.2016
Datum Zeit Temp. A. Feuchte A. Luftdruck Regen Wind Richtung Richtung Sonnenschein ET UV Solar Taupunkt Windchill Windben Empfang
10.04.2016 00:00 6,2 C 96 % 1009,1 hPa 0,0 l/m 5,6 km/h (1 Bft) S 173 0 min 0,000 mm 0,0 UV-I 0 W/m 5,6 C 6,2 C 9,7 km/h (2 Bft) 94,12 %
10.04.2016 00:02 6,2 C 96 % 1009,1 hPa 0,0 l/m 5,3 km/h (1 Bft) S-SW 204 0 min 0,000 mm 0,0 UV-I 0 W/m 5,6 C 6,2 C 8,0 km/h (2 Bft) 100,00 %
10.04.2016 00:03 6,2 C 96 % 1009,1 hPa 0,0 l/m 5,6 km/h (1 Bft) S-SW 198 0 min 0,000 mm 0,0 UV-I 0 W/m 5,6 C 6,2 C 6,4 km/h (2 Bft) 100,00 %
10.04.2016 00:04 6,2 C 96 % 1009,1 hPa 0,0 l/m 5,6 km/h (1 Bft) SW 215 0 min 0,000 mm 0,0 UV-I 0 W/m 5,6 C 6,2 C 8,0 km/h (2 Bft) 95,65 %
10.04.2016 00:05 6,2 C 96 % 1009,1 hPa 0,0 l/m 4,5 km/h (1 Bft) SW 233 0 min 0,000 mm 0,0 UV-I 0 W/m 5,6 C 6,2 C 6,4 km/h (2 Bft) 100,00 %
10.04.2016 00:06 6,2 C 96 % 1009,1 hPa 0,0 l/m 5,1 km/h (1 Bft) W-SW 240 0 min 0,000 mm 0,0 UV-I 0 W/m 5,6 C 6,2 C 8,0 km/h (2 Bft) 100,00 %
10.04.2016 00:07 6,2 C 96 % 1009,1 hPa 0,0 l/m 5,8 km/h (2 Bft) S-SW 196 0 min 0,000 mm 0,0 UV-I 0 W/m 5,6 C 6,2 C 8,0 km/h (2 Bft) 100,00 %
10.04.2016 00:08 6,2 C 96 % 1009,1 hPa 0,0 l/m 5,1 km/h (1 Bft) S 190 0 min 0,000 mm 0,0 UV-I 0 W/m 5,6 C 6,2 C 6,4 km/h (2 Bft) 95,65 %
10.04.2016 00:09 6,2 C 96 % 1009,2 hPa 0,0 l/m 4,7 km/h (1 Bft) S 189 0 min 0,000 mm 0,0 UV-I 0 W/m 5,6 C 6,2 C 8,0 km/h (2 Bft) 100,00 %
10.04.2016 00:10 6,2 C 96 % 1009,1 hPa 0,0 l/m 4,6 km/h (1 Bft) S-SW 213 0 min 0,000 mm 0,0 UV-I 0 W/m 5,6 C 6,2 C 6,4 km/h (2 Bft) 100,00 %
10.04.2016 00:11 6,2 C 96 % 1009,2 hPa 0,0 l/m 5,3 km/h (1 Bft) S 169 0 min 0,000 mm 0,0 UV-I 0 W/m 5,6 C 6,2 C 8,0 km/h (2 Bft) 100,00 %
10.04.2016 00:12 6,2 C 96 % 1009,2 hPa 0,0 l/m 3,6 km/h (1 Bft) S-SW 198 0 min 0,000 mm 0,0 UV-I 0 W/m 5,6 C 6,2 C 6,4 km/h (2 Bft) 100,00 %
10.04.2016 00:13 6,2 C 96 % 1009,2 hPa 0,0 l/m 3,6 km/h (1 Bft) SW 214 0 min 0,000 mm 0,0 UV-I 0 W/m 5,6 C 6,2 C 4,8 km/h (1 Bft) 100,00 %
10.04.2016 00:14 6,2 C 96 % 1009,1 hPa 0,0 l/m 4,3 km/h (1 Bft) S-SW 209 0 min 0,000 mm 0,0 UV-I 0 W/m 5,6 C 6,2 C 6,4 km/h (2 Bft) 100,00 %
10.04.2016 00:15 6,2 C 96 % 1009,1 hPa 0,0 l/m 3,8 km/h (1 Bft) SW 218 0 min 0,000 mm 0,0 UV-I 0 W/m 5,6 C 6,2 C 4,8 km/h (1 Bft) 100,00 %
10.04.2016 00:16 6,2 C 96 % 1009,1 hPa 0,0 l/m 4,1 km/h (1 Bft) SW 220 0 min 0,000 mm 0,0 UV-I 0 W/m 5,6 C 6,2 C 4,8 km/h (1 Bft) 96,30 %
10.04.2016 00:17 6,2 C 96 % 1009,1 hPa 0,0 l/m 5,0 km/h (1 Bft) S-SW 206 0 min 0,000 mm 0,0 UV-I 0 W/m 5,6 C 6,2 C 8,0 km/h (2 Bft) 95,65 %
10.04.2016 00:18 6,2 C 96 % 1009,1 hPa 0,0 l/m 4,9 km/h (1 Bft) SW 225 0 min 0,000 mm 0,0 UV-I 0 W/m 5,6 C 6,2 C 8,0 km/h (2 Bft) 100,00 %
10.04.2016 00:19 6,2 C 96 % 1009,1 hPa 0,0 l/m 4,7 km/h (1 Bft) S-SW 193 0 min 0,000 mm 0,0 UV-I 0 W/m 5,6 C 6,2 C 6,4 km/h (2 Bft) 100,00 %
10.04.2016 00:20 6,2 C 96 % 1009,1 hPa 0,0 l/m 5,3 km/h (1 Bft) W-SW 248 0 min 0,000 mm 0,0 UV-I 0 W/m 5,6 C 6,2 C 8,0 km/h (2 Bft) 95,83 %
10.04.2016 00:21 6,2 C 96 % 1009,1 hPa 0,0 l/m 5,4 km/h (1 Bft) SW 234 0 min 0,000 mm 0,0 UV-I 0 W/m 5,6 C 6,2 C 9,7 km/h (2 Bft) 96,15 %
10.04.2016 00:22 6,2 C 96 % 1009,1 hPa 0,0 l/m 6,2 km/h (2 Bft) SW 220 0 min 0,000 mm 0,0 UV-I 0 W/m 5,6 C 6,2 C 8,0 km/h (2 Bft) 100,00 %
10.04.2016 00:23 6,2 C 96 % 1009,1 hPa 0,0 l/m 7,1 km/h (2 Bft) W-SW 238 0 min 0,000 mm 0,0 UV-I 0 W/m 5,6 C 5,6 C 11,3 km/h (2 Bft) 92,31 %
10.04.2016 00:24 6,2 C 96 % 1009,1 hPa 0,0 l/m 5,6 km/h (1 Bft) SW 218 0 min 0,000 mm 0,0 UV-I 0 W/m 5,6 C 6,2 C 9,7 km/h (2 Bft) 96,30 %
10.04.2016 00:25 6,2 C 96 % 1009,1 hPa 0,0 l/m 4,4 km/h (1 Bft) S-SW 205 0 min 0,000 mm 0,0 UV-I 0 W/m 5,6 C 6,2 C 8,0 km/h (2 Bft) 96,15 %
10.04.2016 00:26 6,2 C 96 % 1009,1 hPa 0,0 l/m 5,2 km/h (1 Bft) S-SW 208 0 min 0,000 mm 0,0 UV-I 0 W/m 5,6 C 6,2 C 6,4 km/h (2 Bft) 100,00 %
10.04.2016 00:27 6,2 C 96 % 1009,1 hPa 0,0 l/m 4,5 km/h (1 Bft) SW 223 0 min 0,000 mm 0,0 UV-I 0 W/m 5,6 C 6,2 C 6,4 km/h (2 Bft) 95,65 %
10.04.2016 00:28 6,2 C 96 % 1009,1 hPa 0,0 l/m 4,8 km/h (1 Bft) SW 220 0 min 0,000 mm 0,0 UV-I 0 W/m 5,6 C 6,2 C 6,4 km/h (2 Bft) 100,00 %
10.04.2016 00:29 6,2 C 96 % 1009,1 hPa 0,0 l/m 4,6 km/h (1 Bft) SW 221 0 min 0,000 mm 0,0 UV-I 0 W/m 5,6 C 6,2 C 6,4 km/h (2 Bft) 92,86 %
10.04.2016 00:30 6,1 C 96 % 1009,1 hPa 0,0 l/m 4,5 km/h (1 Bft) S-SW 200 0 min 0,000 mm 0,0 UV-I 0 W/m 5,5 C 6,1 C 6,4 km/h (2 Bft) 100,00 %
10.04.2016 00:31 6,2 C 96 % 1009,1 hPa 0,0 l/m 3,2 km/h (1 Bft) S-SW 207 0 min 0,000 mm 0,0 UV-I 0 W/m 5,6 C 6,2 C 4,8 km/h (1 Bft) 95,65 %
10.04.2016 00:32 6,2 C 96 % 1009,1 hPa 0,0 l/m 3,4 km/h (1 Bft) S-SW 210 0 min 0,000 mm 0,0 UV-I 0 W/m 5,6 C 6,2 C 6,4 km/h (2 Bft) 95,83 %
10.04.2016 00:33 6,2 C 96 % 1009,1 hPa 0,0 l/m 6,1 km/h (2 Bft) SW 231 0 min 0,000 mm 0,0 UV-I 0 W/m 5,6 C 6,2 C 9,7 km/h (2 Bft) 100,00 %
10.04.2016 00:34 6,2 C 96 % 1009,1 hPa 0,0 l/m 5,4 km/h (1 Bft) SW 226 0 min 0,000 mm 0,0 UV-I 0 W/m 5,6 C 6,2 C 6,4 km/h (2 Bft) 95,83 %
10.04.2016 00:35 6,2 C 96 % 1009,1 hPa 0,0 l/m 5,8 km/h (2 Bft) SW 225 0 min 0,000 mm 0,0 UV-I 0 W/m 5,6 C 6,2 C 8,0 km/h (2 Bft) 100,00 %
10.04.2016 00:36 6,2 C 96 % 1009,1 hPa 0,0 l/m 6,0 km/h (2 Bft) W-SW 237 0 min 0,000 mm 0,0 UV-I 0 W/m 5,6 C 6,2 C 8,0 km/h (2 Bft) 96,15 %
10.04.2016 00:37 6,1 C 96 % 1009,1 hPa 0,0 l/m 6,7 km/h (2 Bft) W-SW 242 0 min 0,000 mm 0,0 UV-I 0 W/m 5,5 C 5,9 C 8,0 km/h (2 Bft) 100,00 %
10.04.2016 00:38 6,1 C 96 % 1009,1 hPa 0,0 l/m 6,3 km/h (2 Bft) S-SW 192 0 min 0,000 mm 0,0 UV-I 0 W/m 5,5 C 6,1 C 8,0 km/h (2 Bft) 91,30 %
10.04.2016 00:39 6,2 C 96 % 1009,1 hPa 0,0 l/m 6,0 km/h (2 Bft) SW 221 0 min 0,000 mm 0,0 UV-I 0 W/m 5,6 C 6,2 C 9,7 km/h (2 Bft) 100,00 %
10.04.2016 00:40 6,1 C 96 % 1009,1 hPa 0,0 l/m 7,2 km/h (2 Bft) SW 221 0 min 0,000 mm 0,0 UV-I 0 W/m 5,5 C 5,4 C 9,7 km/h (2 Bft) 92,86 %
10.04.2016 00:41 6,1 C 96 % 1009,1 hPa 0,0 l/m 5,6 km/h (1 Bft) SW 223 0 min 0,000 mm 0,0 UV-I 0 W/m 5,5 C 6,1 C 8,0 km/h (2 Bft) 100,00 %
10.04.2016 00:42 6,2 C 96 % 1009,1 hPa 0,0 l/m 6,8 km/h (2 Bft) SW 227 0 min 0,000 mm 0,0 UV-I 0 W/m 5,6 C 5,9 C 8,0 km/h (2 Bft) 96,15 %
10.04.2016 00:43 6,1 C 96 % 1009,1 hPa 0,0 l/m 6,2 km/h (2 Bft) SW 223 0 min 0,000 mm 0,0 UV-I 0 W/m 5,5 C 6,1 C 11,3 km/h (2 Bft) 96,67 %
10.04.2016 00:44 6,1 C 96 % 1009,1 hPa 0,0 l/m 5,4 km/h (1 Bft) SW 215 0 min 0,000 mm 0,0 UV-I 0 W/m 5,5 C 6,1 C 8,0 km/h (2 Bft) 100,00 %
10.04.2016 00:45 6,1 C 96 % 1009,1 hPa 0,0 l/m 6,8 km/h (2 Bft) S-SW 201 0 min 0,000 mm 0,0 UV-I 0 W/m 5,5 C 5,8 C 9,7 km/h (2 Bft) 91,67 %
10.04.2016 00:46 6,1 C 96 % 1009,1 hPa 0,0 l/m 4,6 km/h (1 Bft) S-SW 195 0 min 0,000 mm 0,0 UV-I 0 W/m 5,5 C 6,1 C 6,4 km/h (2 Bft) 100,00 %
10.04.2016 00:47 6,1 C 96 % 1009,1 hPa 0,0 l/m 3,8 km/h (1 Bft) S-SW 203 0 min 0,000 mm 0,0 UV-I 0 W/m 5,5 C 6,1 C 6,4 km/h (2 Bft) 95,83 %
10.04.2016 00:48 6,1 C 96 % 1009,2 hPa 0,0 l/m 5,7 km/h (1 Bft) SW 219 0 min 0,000 mm 0,0 UV-I 0 W/m 5,5 C 6,1 C 6,4 km/h (2 Bft) 100,00 %
10.04.2016 00:49 6,1 C 96 % 1009,2 hPa 0,0 l/m 4,0 km/h (1 Bft) S 184 0 min 0,000 mm 0,0 UV-I 0 W/m 5,5 C 6,1 C 8,0 km/h (2 Bft) 96,30 %
10.04.2016 00:50 6,1 C 96 % 1009,2 hPa 0,0 l/m 3,4 km/h (1 Bft) SW 236 0 min 0,000 mm 0,0 UV-I 0 W/m 5,5 C 6,1 C 4,8 km/h (1 Bft) 93,33 %
10.04.2016 00:51 6,1 C 96 % 1009,2 hPa 0,0 l/m 3,0 km/h (1 Bft) SW 236 0 min 0,000 mm 0,0 UV-I 0 W/m 5,5 C 6,1 C 4,8 km/h (1 Bft) 96,15 %
10.04.2016 00:52 6,1 C 96 % 1009,2 hPa 0,0 l/m 3,6 km/h (1 Bft) SW 225 0 min 0,000 mm 0,0 UV-I 0 W/m 5,5 C 6,1 C 4,8 km/h (1 Bft) 95,83 %
10.04.2016 00:53 6,1 C 96 % 1009,2 hPa 0,0 l/m 4,3 km/h (1 Bft) SW 215 0 min 0,000 mm 0,0 UV-I 0 W/m 5,5 C 6,1 C 6,4 km/h (2 Bft) 100,00 %
10.04.2016 00:54 6,1 C 96 % 1009,2 hPa 0,0 l/m 4,1 km/h (1 Bft) S-SW 193 0 min 0,000 mm 0,0 UV-I 0 W/m 5,5 C 6,1 C 6,4 km/h (2 Bft) 100,00 %
10.04.2016 00:55 6,1 C 96 % 1009,2 hPa 0,0 l/m 5,4 km/h (1 Bft) S-SW 196 0 min 0,000 mm 0,0 UV-I 0 W/m 5,5 C 6,1 C 9,7 km/h (2 Bft) 100,00 %
10.04.2016 00:56 6,1 C 96 % 1009,2 hPa 0,0 l/m 4,5 km/h (1 Bft) S 182 0 min 0,000 mm 0,0 UV-I 0 W/m 5,5 C 6,1 C 6,4 km/h (2 Bft) 97,90 %
10.04.2016 00:57 6,1 C 96 % 1009,2 hPa 0,0 l/m 6,0 km/h (2 Bft) S-SW 211 0 min 0,000 mm 0,0 UV-I 0 W/m 5,5 C 6,1 C 8,0 km/h (2 Bft) 100,00 %
10.04.2016 00:58 6,1 C 96 % 1009,2 hPa 0,0 l/m 4,4 km/h (1 Bft) S-SW 193 0 min 0,000 mm 0,0 UV-I 0 W/m 5,5 C 6,1 C 6,4 km/h (2 Bft) 100,00 %
10.04.2016 00:59 6,1 C 96 % 1009,2 hPa 0,0 l/m 5,8 km/h (2 Bft) S 188 0 min 0,000 mm 0,0 UV-I 0 W/m 5,5 C 6,1 C 8,0 km/h (2 Bft) 96,15 %
10.04.2016 01:00 6,2 C 96 % 1009,2 hPa 0,0 l/m 4,6 km/h (1 Bft) S-SW 199 0 min 0,000 mm 0,0 UV-I 0 W/m 5,6 C 6,2 C 6,4 km/h (2 Bft) 100,00 %
10.04.2016 01:01 6,2 C 96 % 1009,2 hPa 0,0 l/m 5,5 km/h (1 Bft) SW 227 0 min 0,000 mm 0,0 UV-I 0 W/m 5,6 C 6,2 C 6,4 km/h (2 Bft) 96,30 %
10.04.2016 01:02 6,2 C 96 % 1009,2 hPa 0,0 l/m 4,7 km/h (1 Bft) S-SW 209 0 min 0,000 mm 0,0 UV-I 0 W/m 5,6 C 6,2 C 6,4 km/h (2 Bft) 100,00 %
10.04.2016 01:03 6,2 C 96 % 1009,2 hPa 0,0 l/m 6,1 km/h (2 Bft) S-SW 200 0 min 0,000 mm 0,0 UV-I 0 W/m 5,6 C 6,2 C 8,0 km/h (2 Bft) 100,00 %
10.04.2016 01:04 6,1 C 96 % 1009,2 hPa 0,0 l/m 5,2 km/h (1 Bft) S-SW 193 0 min 0,000 mm 0,0 UV-I 0 W/m 5,5 C 6,1 C 6,4 km/h (2 Bft) 100,00 %
10.04.2016 01:05 6,1 C 96 % 1009,2 hPa 0,0 l/m 6,2 km/h (2 Bft) S 185 0 min 0,000 mm 0,0 UV-I 0 W/m 5,5 C 6,1 C 8,0 km/h (2 Bft) 94,12 %
10.04.2016 01:06 6,1 C 96 % 1009,3 hPa 0,0 l/m 6,3 km/h (2 Bft) S 172 0 min 0,000 mm 0,0 UV-I 0 W/m 5,5 C 6,1 C 8,0 km/h (2 Bft) 100,00 %
10.04.2016 01:07 6,1 C 96 % 1009,3 hPa 0,0 l/m 5,3 km/h (1 Bft) S-SW 195 0 min 0,000 mm 0,0 UV-I 0 W/m 5,5 C 6,1 C 8,0 km/h (2 Bft) 100,00 %
10.04.2016 01:08 6,1 C 96 % 1009,3 hPa 0,0 l/m 5,9 km/h (2 Bft) S 189 0 min 0,000 mm 0,0 UV-I 0 W/m 5,5 C 6,1 C 8,0 km/h (2 Bft) 100,00 %
10.04.2016 01:09 6,1 C 96 % 1009,3 hPa 0,0 l/m 6,0 km/h (2 Bft) S-SW 196 0 min 0,000 mm 0,0 UV-I 0 W/m 5,5 C 6,1 C 8,0 km/h (2 Bft) 100,00 %
10.04.2016 01:10 6,2 C 96 % 1009,3 hPa 0,0 l/m 6,0 km/h (2 Bft) S-SW 211 0 min 0,000 mm 0,0 UV-I 0 W/m 5,6 C 6,2 C 8,0 km/h (2 Bft) 100,00 %
10.04.2016 01:11 6,1 C 96 % 1009,2 hPa 0,0 l/m 5,1 km/h (1 Bft) S-SW 205 0 min 0,000 mm 0,0 UV-I 0 W/m 5,5 C 6,1 C 8,0 km/h (2 Bft) 100,00 %
10.04.2016 01:12 6,1 C 96 % 1009,2 hPa 0,0 l/m 5,2 km/h (1 Bft) S-SW 209 0 min 0,000 mm 0,0 UV-I 0 W/m 5,5 C 6,1 C 8,0 km/h (2 Bft) 100,00 %
10.04.2016 01:13 6,2 C 96 % 1009,2 hPa 0,0 l/m 5,7 km/h (1 Bft) S-SW 196 0 min 0,000 mm 0,0 UV-I 0 W/m 5,6 C 6,2 C 8,0 km/h (2 Bft) 100,00 %
10.04.2016 01:14 6,1 C 96 % 1009,2 hPa 0,0 l/m 4,5 km/h (1 Bft) S-SW 201 0 min 0,000 mm 0,0 UV-I 0 W/m 5,5 C 6,1 C 6,4 km/h (2 Bft) 100,00 %
10.04.2016 01:15 6,1 C 96 % 1009,3 hPa 0,0 l/m 4,6 km/h (1 Bft) S-SW 200 0 min 0,000 mm 0,0 UV-I 0 W/m 5,5 C 6,1 C 6,4 km/h (2 Bft) 100,00 %
10.04.2016 01:16 6,1 C 96 % 1009,3 hPa 0,0 l/m 4,2 km/h (1 Bft) S-SW 198 0 min 0,000 mm 0,0 UV-I 0 W/m 5,5 C 6,1 C 4,8 km/h (1 Bft) 95,65 %
10.04.2016 01:17 6,2 C 96 % 1009,3 hPa 0,0 l/m 6,1 km/h (2 Bft) S-SW 196 0 min 0,000 mm 0,0 UV-I 0 W/m 5,6 C 6,2 C 9,7 km/h (2 Bft) 100,00 %
10.04.2016 01:18 6,2 C 96 % 1009,3 hPa 0,0 l/m 5,5 km/h (1 Bft) SW 219 0 min 0,000 mm 0,0 UV-I 0 W/m 5,6 C 6,2 C 8,0 km/h (2 Bft) 100,00 %
10.04.2016 01:19 6,2 C 96 % 1009,3 hPa 0,0 l/m 4,7 km/h (1 Bft) SW 215 0 min 0,000 mm 0,0 UV-I 0 W/m 5,6 C 6,2 C 6,4 km/h (2 Bft) 100,00 %
10.04.2016 01:20 6,2 C 96 % 1009,3 hPa 0,0 l/m 3,6 km/h (1 Bft) W-SW 240 0 min 0,000 mm 0,0 UV-I 0 W/m 5,6 C 6,2 C 4,8 km/h (1 Bft) 100,00 %
10.04.2016 01:21 6,1 C 96 % 1009,3 hPa 0,0 l/m 2,6 km/h (1 Bft) W-SW 240 0 min 0,000 mm 0,0 UV-I 0 W/m 5,5 C 6,1 C 4,8 km/h (1 Bft) 100,00 %
10.04.2016 01:22 6,1 C 96 % 1009,3 hPa 0,0 l/m 2,5 km/h (1 Bft) W-SW 240 0 min 0,000 mm 0,0 UV-I 0 W/m 5,5 C 6,1 C 4,8 km/h (1 Bft) 100,00 %
10.04.2016 01:23 6,2 C 96 % 1009,3 hPa 0,0 l/m 3,1 km/h (1 Bft) S 171 0 min 0,000 mm 0,0 UV-I 0 W/m 5,6 C 6,2 C 6,4 km/h (2 Bft) 100,00 %
10.04.2016 01:24 6,2 C 96 % 1009,3 hPa 0,0 l/m 3,0 km/h (1 Bft) S 183 0 min 0,000 mm 0,0 UV-I 0 W/m 5,6 C 6,2 C 4,8 km/h (1 Bft) 100,00 %
10.04.2016 01:25 6,2 C 96 % 1009,3 hPa 0,0 l/m 2,8 km/h (1 Bft) S 183 0 min 0,000 mm 0,0 UV-I 0 W/m 5,6 C 6,2 C 4,8 km/h (1 Bft) 100,00 %
10.04.2016 01:26 6,2 C 96 % 1009,3 hPa 0,0 l/m 3,3 km/h (1 Bft) S-SW 202 0 min 0,000 mm 0,0 UV-I 0 W/m 5,6 C 6,2 C 4,8 km/h (1 Bft) 95,65 %
10.04.2016 01:27 6,1 C 96 % 1009,3 hPa 0,0 l/m 3,7 km/h (1 Bft) S-SW 208 0 min 0,000 mm 0,0 UV-I 0 W/m 5,5 C 6,1 C 4,8 km/h (1 Bft) 100,00 %
10.04.2016 01:28 6,1 C 96 % 1009,3 hPa 0,0 l/m 3,9 km/h (1 Bft) SW 227 0 min 0,000 mm 0,0 UV-I 0 W/m 5,5 C 6,1 C 6,4 km/h (2 Bft) 100,00 %
10.04.2016 01:29 6,2 C 96 % 1009,3 hPa 0,0 l/m 3,2 km/h (1 Bft) SW 227 0 min 0,000 mm 0,0 UV-I 0 W/m 5,6 C 6,2 C 4,8 km/h (1 Bft) 100,00 %
10.04.2016 01:30 6,2 C 96 % 1009,3 hPa 0,0 l/m 3,7 km/h (1 Bft) SW 227 0 min 0,000 mm 0,0 UV-I 0 W/m 5,6 C 6,2 C 4,8 km/h (1 Bft) 100,00 %
10.04.2016 01:31 6,2 C 96 % 1009,3 hPa 0,0 l/m 3,1 km/h (1 Bft) SW 227 0 min 0,000 mm 0,0 UV-I 0 W/m 5,6 C 6,2 C 4,8 km/h (1 Bft) 100,00 %
10.04.2016 01:32 6,2 C 96 % 1009,3 hPa 0,0 l/m 5,0 km/h (1 Bft) SW 216 0 min 0,000 mm 0,0 UV-I 0 W/m 5,6 C 6,2 C 8,0 km/h (2 Bft) 100,00 %
10.04.2016 01:33 6,2 C 96 % 1009,3 hPa 0,0 l/m 5,0 km/h (1 Bft) SW 218 0 min 0,000 mm 0,0 UV-I 0 W/m 5,6 C 6,2 C 6,4 km/h (2 Bft) 100,00 %
10.04.2016 01:34 6,2 C 96 % 1009,3 hPa 0,0 l/m 3,7 km/h (1 Bft) S-SW 201 0 min 0,000 mm 0,0 UV-I 0 W/m 5,6 C 6,2 C 4,8 km/h (1 Bft) 100,00 %
10.04.2016 01:35 6,2 C 96 % 1009,3 hPa 0,0 l/m 4,8 km/h (1 Bft) W-SW 240 0 min 0,000 mm 0,0 UV-I 0 W/m 5,6 C 6,2 C 8,0 km/h (2 Bft) 100,00 %
10.04.2016 01:36 6,1 C 96 % 1009,3 hPa 0,0 l/m 5,2 km/h (1 Bft) SW 225 0 min 0,000 mm 0,0 UV-I 0 W/m 5,5 C 6,1 C 6,4 km/h (2 Bft) 100,00 %
10.04.2016 01:37 6,2 C 96 % 1009,3 hPa 0,0 l/m 4,3 km/h (1 Bft) SW 223 0 min 0,000 mm 0,0 UV-I 0 W/m 5,6 C 6,2 C 6,4 km/h (2 Bft) 100,00 %
10.04.2016 01:38 6,1 C 96 % 1009,3 hPa 0,0 l/m 4,0 km/h (1 Bft) S-SW 200 0 min 0,000 mm 0,0 UV-I 0 W/m 5,5 C 6,1 C 6,4 km/h (2 Bft) 96,30 %
10.04.2016 01:39 6,1 C 96 % 1009,3 hPa 0,0 l/m 5,5 km/h (1 Bft) SW 232 0 min 0,000 mm 0,0 UV-I 0 W/m 5,5 C 6,1 C 8,0 km/h (2 Bft) 95,65 %
10.04.2016 01:40 6,1 C 96 % 1009,3 hPa 0,0 l/m 6,0 km/h (2 Bft) S-SW 207 0 min 0,000 mm 0,0 UV-I 0 W/m 5,5 C 6,1 C 9,7 km/h (2 Bft) 100,00 %
10.04.2016 01:41 6,1 C 96 % 1009,3 hPa 0,0 l/m 4,3 km/h (1 Bft) SW 218 0 min 0,000 mm 0,0 UV-I 0 W/m 5,5 C 6,1 C 8,0 km/h (2 Bft) 100,00 %
10.04.2016 01:42 6,1 C 96 % 1009,3 hPa 0,0 l/m 6,0 km/h (2 Bft) SW 226 0 min 0,000 mm 0,0 UV-I 0 W/m 5,5 C 6,1 C 8,0 km/h (2 Bft) 100,00 %
10.04.2016 01:43 6,1 C 96 % 1009,3 hPa 0,0 l/m 5,1 km/h (1 Bft) SW 223 0 min 0,000 mm 0,0 UV-I 0 W/m 5,5 C 6,1 C 8,0 km/h (2 Bft) 100,00 %
10.04.2016 01:44 6,1 C 96 % 1009,3 hPa 0,0 l/m 5,5 km/h (1 Bft) SW 214 0 min 0,000 mm 0,0 UV-I 0 W/m 5,5 C 6,1 C 6,4 km/h (2 Bft) 100,00 %
10.04.2016 01:45 6,1 C 96 % 1009,3 hPa 0,0 l/m 4,8 km/h (1 Bft) SW 230 0 min 0,000 mm 0,0 UV-I 0 W/m 5,5 C 6,1 C 6,4 km/h (2 Bft) 100,00 %
10.04.2016 01:46 6,1 C 96 % 1009,3 hPa 0,0 l/m 5,5 km/h (1 Bft) SW 232 0 min 0,000 mm 0,0 UV-I 0 W/m 5,5 C 6,1 C 8,0 km/h (2 Bft) 100,00 %
10.04.2016 01:47 6,1 C 96 % 1009,3 hPa 0,0 l/m 4,6 km/h (1 Bft) S-SW 209 0 min 0,000 mm 0,0 UV-I 0 W/m 5,5 C 6,1 C 6,4 km/h (2 Bft) 100,00 %
10.04.2016 01:48 6,1 C 96 % 1009,3 hPa 0,0 l/m 4,8 km/h (1 Bft) SW 225 0 min 0,000 mm 0,0 UV-I 0 W/m 5,5 C 6,1 C 8,0 km/h (2 Bft) 100,00 %
10.04.2016 01:49 6,1 C 96 % 1009,3 hPa 0,0 l/m 5,7 km/h (1 Bft) SW 219 0 min 0,000 mm 0,0 UV-I 0 W/m 5,5 C 6,1 C 8,0 km/h (2 Bft) 100,00 %
10.04.2016 01:50 6,1 C 96 % 1009,3 hPa 0,0 l/m 5,6 km/h (1 Bft) S 183 0 min 0,000 mm 0,0 UV-I 0 W/m 5,5 C 6,1 C 6,4 km/h (2 Bft) 100,00 %
10.04.2016 01:51 6,1 C 96 % 1009,3 hPa 0,0 l/m 3,5 km/h (1 Bft) S 191 0 min 0,000 mm 0,0 UV-I 0 W/m 5,5 C 6,1 C 6,4 km/h (2 Bft) 100,00 %
10.04.2016 01:52 6,1 C 96 % 1009,3 hPa 0,0 l/m 5,5 km/h (1 Bft) S 185 0 min 0,000 mm 0,0 UV-I 0 W/m 5,5 C 6,1 C 6,4 km/h (2 Bft) 100,00 %
10.04.2016 01:53 6,1 C 96 % 1009,3 hPa 0,0 l/m 3,5 km/h (1 Bft) S 186 0 min 0,000 mm 0,0 UV-I 0 W/m 5,5 C 6,1 C 4,8 km/h (1 Bft) 100,00 %
10.04.2016 01:54 6,1 C 96 % 1009,3 hPa 0,0 l/m 3,4 km/h (1 Bft) S-SW 203 0 min 0,000 mm 0,0 UV-I 0 W/m 5,5 C 6,1 C 4,8 km/h (1 Bft) 100,00 %
10.04.2016 01:55 6,1 C 96 % 1009,3 hPa 0,0 l/m 3,6 km/h (1 Bft) S-SW 203 0 min 0,000 mm 0,0 UV-I 0 W/m 5,5 C 6,1 C 4,8 km/h (1 Bft) 100,00 %
10.04.2016 01:56 6,1 C 96 % 1009,3 hPa 0,0 l/m 5,6 km/h (1 Bft) SW 224 0 min 0,000 mm 0,0 UV-I 0 W/m 5,5 C 6,1 C 9,7 km/h (2 Bft) 96,15 %
10.04.2016 01:57 6,1 C 96 % 1009,3 hPa 0,0 l/m 5,0 km/h (1 Bft) SW 219 0 min 0,000 mm 0,0 UV-I 0 W/m 5,5 C 6,1 C 8,0 km/h (2 Bft) 100,00 %
10.04.2016 01:58 6,1 C 96 % 1009,3 hPa 0,0 l/m 5,8 km/h (2 Bft) SW 223 0 min 0,000 mm 0,0 UV-I 0 W/m 5,5 C 6,1 C 8,0 km/h (2 Bft) 100,00 %
10.04.2016 01:59 6,1 C 96 % 1009,3 hPa 0,0 l/m 5,7 km/h (1 Bft) W-SW 238 0 min 0,000 mm 0,0 UV-I 0 W/m 5,5 C 6,1 C 9,7 km/h (2 Bft) 100,00 %
10.04.2016 02:00 6,1 C 96 % 1009,3 hPa 0,0 l/m 3,8 km/h (1 Bft) SW 223 0 min 0,000 mm 0,0 UV-I 0 W/m 5,5 C 6,1 C 6,4 km/h (2 Bft) 96,15 %
10.04.2016 02:01 6,1 C 96 % 1009,3 hPa 0,0 l/m 5,3 km/h (1 Bft) SW 235 0 min 0,000 mm 0,0 UV-I 0 W/m 5,5 C 6,1 C 8,0 km/h (2 Bft) 100,00 %
10.04.2016 02:02 6,1 C 96 % 1009,3 hPa 0,0 l/m 3,3 km/h (1 Bft) SW 235 0 min 0,000 mm 0,0 UV-I 0 W/m 5,5 C 6,1 C 4,8 km/h (1 Bft) 100,00 %
10.04.2016 02:03 6,1 C 96 % 1009,3 hPa 0,0 l/m 3,5 km/h (1 Bft) SW 234 0 min 0,000 mm 0,0 UV-I 0 W/m 5,5 C 6,1 C 4,8 km/h (1 Bft) 100,00 %
10.04.2016 02:04 6,1 C 96 % 1009,3 hPa 0,0 l/m 3,8 km/h (1 Bft) S-SW 201 0 min 0,000 mm 0,0 UV-I 0 W/m 5,5 C 6,1 C 6,4 km/h (2 Bft) 100,00 %
10.04.2016 02:05 6,1 C 96 % 1009,3 hPa 0,0 l/m 4,8 km/h (1 Bft) S-SW 207 0 min 0,000 mm 0,0 UV-I 0 W/m 5,5 C 6,1 C 6,4 km/h (2 Bft) 100,00 %
10.04.2016 02:06 6,1 C 96 % 1009,3 hPa 0,0 l/m 3,8 km/h (1 Bft) W-SW 242 0 min 0,000 mm 0,0 UV-I 0 W/m 5,5 C 6,1 C 4,8 km/h (1 Bft) 95,65 %
10.04.2016 02:07 6,1 C 96 % 1009,3 hPa 0,0 l/m 4,7 km/h (1 Bft) SW 220 0 min 0,000 mm 0,0 UV-I 0 W/m 5,5 C 6,1 C 6,4 km/h (2 Bft) 100,00 %
10.04.2016 02:08 6,1 C 96 % 1009,4 hPa 0,0 l/m 5,2 km/h (1 Bft) SW 222 0 min 0,000 mm 0,0 UV-I 0 W/m 5,5 C 6,1 C 6,4 km/h (2 Bft) 95,65 %
10.04.2016 02:09 6,1 C 96 % 1009,3 hPa 0,0 l/m 3,1 km/h (1 Bft) S 186 0 min 0,000 mm 0,0 UV-I 0 W/m 5,5 C 6,1 C 4,8 km/h (1 Bft) 100,00 %
10.04.2016 02:10 6,1 C 96 % 1009,3 hPa 0,0 l/m 3,8 km/h (1 Bft) S-SW 205 0 min 0,000 mm 0,0 UV-I 0 W/m 5,5 C 6,1 C 6,4 km/h (2 Bft) 100,00 %
10.04.2016 02:11 6,1 C 96 % 1009,3 hPa 0,0 l/m 4,9 km/h (1 Bft) SW 236 0 min 0,000 mm 0,0 UV-I 0 W/m 5,5 C 6,1 C 8,0 km/h (2 Bft) 96,30 %
10.04.2016 02:12 6,1 C 96 % 1009,3 hPa 0,0 l/m 4,2 km/h (1 Bft) SW 224 0 min 0,000 mm 0,0 UV-I 0 W/m 5,5 C 6,1 C 6,4 km/h (2 Bft) 100,00 %
10.04.2016 02:13 6,1 C 96 % 1009,3 hPa 0,2 l/m 3,8 km/h (1 Bft) SW 220 0 min 0,000 mm 0,0 UV-I 0 W/m 5,5 C 6,1 C 4,8 km/h (1 Bft) 100,00 %
10.04.2016 02:14 6,1 C 96 % 1009,3 hPa 0,0 l/m 6,2 km/h (2 Bft) W-SW 238 0 min 0,000 mm 0,0 UV-I 0 W/m 5,5 C 6,1 C 8,0 km/h (2 Bft) 100,00 %
10.04.2016 02:15 6,1 C 96 % 1009,3 hPa 0,0 l/m 5,2 km/h (1 Bft) SW 232 0 min 0,000 mm 0,0 UV-I 0 W/m 5,5 C 6,1 C 8,0 km/h (2 Bft) 100,00 %
10.04.2016 02:16 6,1 C 96 % 1009,3 hPa 0,0 l/m 4,0 km/h (1 Bft) S 191 0 min 0,000 mm 0,0 UV-I 0 W/m 5,5 C 6,1 C 6,4 km/h (2 Bft) 100,00 %
10.04.2016 02:17 6,1 C 96 % 1009,4 hPa 0,0 l/m 4,6 km/h (1 Bft) SW 215 0 min 0,000 mm 0,0 UV-I 0 W/m 5,5 C 6,1 C 6,4 km/h (2 Bft) 100,00 %
10.04.2016 02:18 6,1 C 96 % 1009,3 hPa 0,0 l/m 4,3 km/h (1 Bft) W-SW 241 0 min 0,000 mm 0,0 UV-I 0 W/m 5,5 C 6,1 C 6,4 km/h (2 Bft) 100,00 %
10.04.2016 02:19 6,1 C 96 % 1009,3 hPa 0,0 l/m 5,0 km/h (1 Bft) SW 234 0 min 0,000 mm 0,0 UV-I 0 W/m 5,5 C 6,1 C 9,7 km/h (2 Bft) 95,65 %
10.04.2016 02:20 6,1 C 96 % 1009,3 hPa 0,0 l/m 4,4 km/h (1 Bft) S 187 0 min 0,000 mm 0,0 UV-I 0 W/m 5,5 C 6,1 C 6,4 km/h (2 Bft) 100,00 %
10.04.2016 02:21 6,1 C 96 % 1009,3 hPa 0,0 l/m 5,1 km/h (1 Bft) SW 216 0 min 0,000 mm 0,0 UV-I 0 W/m 5,5 C 6,1 C 6,4 km/h (2 Bft) 100,00 %
10.04.2016 02:22 6,1 C 96 % 1009,3 hPa 0,0 l/m 3,9 km/h (1 Bft) S 184 0 min 0,000 mm 0,0 UV-I 0 W/m 5,5 C 6,1 C 4,8 km/h (1 Bft) 93,33 %
10.04.2016 02:23 6,1 C 96 % 1009,3 hPa 0,0 l/m 3,8 km/h (1 Bft) S-SW 205 0 min 0,000 mm 0,0 UV-I 0 W/m 5,5 C 6,1 C 6,4 km/h (2 Bft) 100,00 %
10.04.2016 02:24 6,1 C 96 % 1009,3 hPa 0,0 l/m 5,6 km/h (1 Bft) SW 234 0 min 0,000 mm 0,0 UV-I 0 W/m 5,5 C 6,1 C 8,0 km/h (2 Bft) 95,83 %
10.04.2016 02:25 6,1 C 96 % 1009,3 hPa 0,0 l/m 4,5 km/h (1 Bft) SW 215 0 min 0,000 mm 0,0 UV-I 0 W/m 5,5 C 6,1 C 6,4 km/h (2 Bft) 100,00 %
10.04.2016 02:26 6,1 C 96 % 1009,3 hPa 0,0 l/m 4,5 km/h (1 Bft) SW 236 0 min 0,000 mm 0,0 UV-I 0 W/m 5,5 C 6,1 C 6,4 km/h (2 Bft) 94,87 %
10.04.2016 02:27 6,1 C 96 % 1009,3 hPa 0,0 l/m 4,0 km/h (1 Bft) SW 216 0 min 0,000 mm 0,0 UV-I 0 W/m 5,5 C 6,1 C 4,8 km/h (1 Bft) 98,71 %
10.04.2016 02:28 6,1 C 96 % 1009,4 hPa 0,0 l/m 4,1 km/h (1 Bft) S-SW 211 0 min 0,000 mm 0,0 UV-I 0 W/m 5,5 C 6,1 C 6,4 km/h (2 Bft) 94,74 %
10.04.2016 02:29 6,1 C 96 % 1009,4 hPa 0,0 l/m 3,1 km/h (1 Bft) SW 215 0 min 0,000 mm 0,0 UV-I 0 W/m 5,5 C 6,1 C 4,8 km/h (1 Bft) 96,15 %
10.04.2016 02:30 6,1 C 96 % 1009,4 hPa 0,0 l/m 3,8 km/h (1 Bft) SW 221 0 min 0,000 mm 0,0 UV-I 0 W/m 5,5 C 6,1 C 4,8 km/h (1 Bft) 100,00 %
10.04.2016 02:31 6,1 C 96 % 1009,4 hPa 0,0 l/m 5,7 km/h (1 Bft) SW 231 0 min 0,000 mm 0,0 UV-I 0 W/m 5,5 C 6,1 C 8,0 km/h (2 Bft) 83,33 %
10.04.2016 02:32 6,1 C 97 % 1009,3 hPa 0,0 l/m 4,8 km/h (1 Bft) W-SW 239 0 min 0,000 mm 0,0 UV-I 0 W/m 5,7 C 6,1 C 6,4 km/h (2 Bft) 97,56 %
10.04.2016 02:33 6,1 C 97 % 1009,4 hPa 0,0 l/m 4,7 km/h (1 Bft) SW 229 0 min 0,000 mm 0,0 UV-I 0 W/m 5,7 C 6,1 C 6,4 km/h (2 Bft) 100,00 %
10.04.2016 02:34 6,1 C 97 % 1009,4 hPa 0,0 l/m 5,5 km/h (1 Bft) SW 234 0 min 0,000 mm 0,0 UV-I 0 W/m 5,7 C 6,1 C 8,0 km/h (2 Bft) 96,55 %
10.04.2016 02:35 6,1 C 97 % 1009,4 hPa 0,0 l/m 5,1 km/h (1 Bft) S-SW 213 0 min 0,000 mm 0,0 UV-I 0 W/m 5,7 C 6,1 C 8,0 km/h (2 Bft) 100,00 %
10.04.2016 02:36 6,1 C 97 % 1009,4 hPa 0,0 l/m 5,5 km/h (1 Bft) SW 230 0 min 0,000 mm 0,0 UV-I 0 W/m 5,7 C 6,1 C 8,0 km/h (2 Bft) 93,33 %
10.04.2016 02:37 6,1 C 97 % 1009,4 hPa 0,0 l/m 4,9 km/h (1 Bft) SW 232 0 min 0,000 mm 0,0 UV-I 0 W/m 5,7 C 6,1 C 8,0 km/h (2 Bft) 95,83 %
10.04.2016 02:38 6,1 C 97 % 1009,4 hPa 0,0 l/m 6,4 km/h (2 Bft) W-SW 244 0 min 0,000 mm 0,0 UV-I 0 W/m 5,7 C 6,1 C 8,0 km/h (2 Bft) 96,15 %
10.04.2016 02:39 6,1 C 97 % 1009,4 hPa 0,0 l/m 5,0 km/h (1 Bft) SW 219 0 min 0,000 mm 0,0 UV-I 0 W/m 5,7 C 6,1 C 6,4 km/h (2 Bft) 100,00 %
10.04.2016 02:40 6,1 C 97 % 1009,4 hPa 0,0 l/m 4,7 km/h (1 Bft) SW 226 0 min 0,000 mm 0,0 UV-I 0 W/m 5,7 C 6,1 C 6,4 km/h (2 Bft) 96,15 %
10.04.2016 02:41 6,1 C 97 % 1009,4 hPa 0,0 l/m 5,4 km/h (1 Bft) SW 234 0 min 0,000 mm 0,0 UV-I 0 W/m 5,7 C 6,1 C 6,4 km/h (2 Bft) 100,00 %
10.04.2016 02:42 6,1 C 97 % 1009,4 hPa 0,0 l/m 5,2 km/h (1 Bft) S-SW 211 0 min 0,000 mm 0,0 UV-I 0 W/m 5,7 C 6,1 C 6,4 km/h (2 Bft) 95,65 %
10.04.2016 02:43 6,1 C 97 % 1009,4 hPa 0,0 l/m 4,8 km/h (1 Bft) W-SW 237 0 min 0,000 mm 0,0 UV-I 0 W/m 5,7 C 6,1 C 8,0 km/h (2 Bft) 95,83 %
10.04.2016 02:44 6,1 C 97 % 1009,4 hPa 0,2 l/m 5,6 km/h (1 Bft) SW 229 0 min 0,000 mm 0,0 UV-I 0 W/m 5,7 C 6,1 C 8,0 km/h (2 Bft) 95,65 %
10.04.2016 02:45 6,1 C 97 % 1009,4 hPa 0,0 l/m 6,6 km/h (2 Bft) W-SW 246 0 min 0,000 mm 0,0 UV-I 0 W/m 5,7 C 6,0 C 8,0 km/h (2 Bft) 95,83 %
10.04.2016 02:46 6,0 C 97 % 1009,4 hPa 0,0 l/m 4,5 km/h (1 Bft) SW 223 0 min 0,000 mm 0,0 UV-I 0 W/m 5,6 C 6,0 C 8,0 km/h (2 Bft) 100,00 %
10.04.2016 02:47 6,0 C 97 % 1009,4 hPa 0,0 l/m 5,7 km/h (1 Bft) SW 224 0 min 0,000 mm 0,0 UV-I 0 W/m 5,6 C 6,0 C 8,0 km/h (2 Bft) 92,59 %
10.04.2016 02:48 6,0 C 97 % 1009,4 hPa 0,0 l/m 4,5 km/h (1 Bft) SW 227 0 min 0,000 mm 0,0 UV-I 0 W/m 5,6 C 6,0 C 6,4 km/h (2 Bft) 100,00 %
10.04.2016 02:49 6,1 C 97 % 1009,4 hPa 0,0 l/m 4,6 km/h (1 Bft) SW 221 0 min 0,000 mm 0,0 UV-I 0 W/m 5,7 C 6,1 C 6,4 km/h (2 Bft) 91,67 %
10.04.2016 02:50 6,1 C 97 % 1009,4 hPa 0,0 l/m 4,4 km/h (1 Bft) SW 234 0 min 0,000 mm 0,0 UV-I 0 W/m 5,7 C 6,1 C 8,0 km/h (2 Bft) 100,00 %
10.04.2016 02:51 6,1 C 97 % 1009,4 hPa 0,0 l/m 4,8 km/h (1 Bft) SW 232 0 min 0,000 mm 0,0 UV-I 0 W/m 5,7 C 6,1 C 6,4 km/h (2 Bft) 91,30 %
10.04.2016 02:52 6,1 C 97 % 1009,4 hPa 0,0 l/m 4,7 km/h (1 Bft) SW 231 0 min 0,000 mm 0,0 UV-I 0 W/m 5,7 C 6,1 C 6,4 km/h (2 Bft) 100,00 %
10.04.2016 02:53 6,0 C 97 % 1009,4 hPa 0,0 l/m 4,3 km/h (1 Bft) SW 229 0 min 0,000 mm 0,0 UV-I 0 W/m 5,6 C 6,0 C 6,4 km/h (2 Bft) 96,55 %
10.04.2016 02:54 6,0 C 97 % 1009,4 hPa 0,0 l/m 3,5 km/h (1 Bft) W-SW 246 0 min 0,000 mm 0,0 UV-I 0 W/m 5,6 C 6,0 C 4,8 km/h (1 Bft) 93,33 %
10.04.2016 02:55 6,0 C 97 % 1009,4 hPa 0,0 l/m 4,0 km/h (1 Bft) SW 234 0 min 0,000 mm 0,0 UV-I 0 W/m 5,6 C 6,0 C 6,4 km/h (2 Bft) 100,00 %
10.04.2016 02:56 6,0 C 97 % 1009,4 hPa 0,0 l/m 4,3 km/h (1 Bft) SW 236 0 min 0,000 mm 0,0 UV-I 0 W/m 5,6 C 6,0 C 6,4 km/h (2 Bft) 100,00 %
10.04.2016 02:57 6,0 C 97 % 1009,4 hPa 0,0 l/m 4,0 km/h (1 Bft) W-SW 241 0 min 0,000 mm 0,0 UV-I 0 W/m 5,6 C 6,0 C 4,8 km/h (1 Bft) 100,00 %
10.04.2016 02:58 6,0 C 97 % 1009,4 hPa 0,0 l/m 5,3 km/h (1 Bft) W 259 0 min 0,000 mm 0,0 UV-I 0 W/m 5,6 C 6,0 C 6,4 km/h (2 Bft) 96,30 %
10.04.2016 02:59 6,0 C 97 % 1009,5 hPa 0,0 l/m 6,9 km/h (2 Bft) W-SW 247 0 min 0,000 mm 0,0 UV-I 0 W/m 5,6 C 5,6 C 9,7 km/h (2 Bft) 100,00 %
10.04.2016 03:00 6,0 C 97 % 1009,5 hPa 0,0 l/m 5,6 km/h (1 Bft) W-SW 250 0 min 0,000 mm 0,0 UV-I 0 W/m 5,6 C 6,0 C 9,7 km/h (2 Bft) 100,00 %
10.04.2016 03:01 6,0 C 97 % 1009,5 hPa 0,0 l/m 5,6 km/h (1 Bft) W-SW 251 0 min 0,000 mm 0,0 UV-I 0 W/m 5,6 C 6,0 C 8,0 km/h (2 Bft) 100,00 %
10.04.2016 03:02 6,0 C 97 % 1009,5 hPa 0,0 l/m 5,2 km/h (1 Bft) SW 223 0 min 0,000 mm 0,0 UV-I 0 W/m 5,6 C 6,0 C 8,0 km/h (2 Bft) 100,00 %
10.04.2016 03:03 6,0 C 97 % 1009,5 hPa 0,0 l/m 4,4 km/h (1 Bft) W-SW 244 0 min 0,000 mm 0,0 UV-I 0 W/m 5,6 C 6,0 C 6,4 km/h (2 Bft) 100,00 %
10.04.2016 03:04 6,0 C 97 % 1009,5 hPa 0,2 l/m 3,0 km/h (1 Bft) W-SW 244 0 min 0,000 mm 0,0 UV-I 0 W/m 5,6 C 6,0 C 4,8 km/h (1 Bft) 95,83 %
10.04.2016 03:05 6,0 C 97 % 1009,5 hPa 0,0 l/m 3,8 km/h (1 Bft) W-SW 252 0 min 0,000 mm 0,0 UV-I 0 W/m 5,6 C 6,0 C 4,8 km/h (1 Bft) 100,00 %
10.04.2016 03:06 6,0 C 97 % 1009,5 hPa 0,0 l/m 6,1 km/h (2 Bft) W-SW 245 0 min 0,000 mm 0,0 UV-I 0 W/m 5,6 C 6,0 C 6,4 km/h (2 Bft) 100,00 %
10.04.2016 03:07 6,0 C 97 % 1009,5 hPa 0,0 l/m 4,8 km/h (1 Bft) W-SW 252 0 min 0,000 mm 0,0 UV-I 0 W/m 5,6 C 6,0 C 6,4 km/h (2 Bft) 96,55 %
10.04.2016 03:08 6,0 C 97 % 1009,5 hPa 0,0 l/m 4,7 km/h (1 Bft) W 259 0 min 0,000 mm 0,0 UV-I 0 W/m 5,6 C 6,0 C 6,4 km/h (2 Bft) 96,30 %
10.04.2016 03:09 6,0 C 97 % 1009,6 hPa 0,0 l/m 4,4 km/h (1 Bft) SW 235 0 min 0,000 mm 0,0 UV-I 0 W/m 5,6 C 6,0 C 6,4 km/h (2 Bft) 100,00 %
10.04.2016 03:10 6,0 C 97 % 1009,5 hPa 0,0 l/m 5,4 km/h (1 Bft) W 271 0 min 0,000 mm 0,0 UV-I 0 W/m 5,6 C 6,0 C 6,4 km/h (2 Bft) 100,00 %
10.04.2016 03:11 6,0 C 97 % 1009,6 hPa 0,0 l/m 6,0 km/h (2 Bft) W 263 0 min 0,000 mm 0,0 UV-I 0 W/m 5,6 C 6,0 C 9,7 km/h (2 Bft) 100,00 %
10.04.2016 03:12 6,0 C 97 % 1009,5 hPa 0,0 l/m 5,6 km/h (1 Bft) W-SW 255 0 min 0,000 mm 0,0 UV-I 0 W/m 5,6 C 6,0 C 6,4 km/h (2 Bft) 100,00 %
10.04.2016 03:13 6,0 C 97 % 1009,6 hPa 0,0 l/m 5,5 km/h (1 Bft) W 261 0 min 0,000 mm 0,0 UV-I 0 W/m 5,6 C 6,0 C 8,0 km/h (2 Bft) 100,00 %
10.04.2016 03:14 6,0 C 97 % 1009,5 hPa 0,0 l/m 4,8 km/h (1 Bft) W 270 0 min 0,000 mm 0,0 UV-I 0 W/m 5,6 C 6,0 C 6,4 km/h (2 Bft) 100,00 %
10.04.2016 03:15 6,0 C 97 % 1009,6 hPa 0,0 l/m 5,6 km/h (1 Bft) W-SW 251 0 min 0,000 mm 0,0 UV-I 0 W/m 5,6 C 6,0 C 6,4 km/h (2 Bft) 100,00 %
10.04.2016 03:16 6,0 C 97 % 1009,6 hPa 0,0 l/m 5,7 km/h (1 Bft) W-SW 248 0 min 0,000 mm 0,0 UV-I 0 W/m 5,6 C 6,0 C 8,0 km/h (2 Bft) 100,00 %
10.04.2016 03:17 6,0 C 97 % 1009,6 hPa 0,0 l/m 4,4 km/h (1 Bft) SW 220 0 min 0,000 mm 0,0 UV-I 0 W/m 5,6 C 6,0 C 8,0 km/h (2 Bft) 100,00 %
10.04.2016 03:18 6,0 C 97 % 1009,6 hPa 0,0 l/m 3,8 km/h (1 Bft) W-SW 257 0 min 0,000 mm 0,0 UV-I 0 W/m 5,6 C 6,0 C 4,8 km/h (1 Bft) 100,00 %
10.04.2016 03:19 6,0 C 97 % 1009,5 hPa 0,0 l/m 4,7 km/h (1 Bft) W-SW 238 0 min 0,000 mm 0,0 UV-I 0 W/m 5,6 C 6,0 C 6,4 km/h (2 Bft) 91,67 %
10.04.2016 03:20 6,0 C 97 % 1009,5 hPa 0,0 l/m 5,6 km/h (1 Bft) W-SW 243 0 min 0,000 mm 0,0 UV-I 0 W/m 5,6 C 6,0 C 6,4 km/h (2 Bft) 100,00 %
10.04.2016 03:21 6,0 C 97 % 1009,5 hPa 0,0 l/m 4,3 km/h (1 Bft) SW 236 0 min 0,000 mm 0,0 UV-I 0 W/m 5,6 C 6,0 C 6,4 km/h (2 Bft) 100,00 %
10.04.2016 03:22 6,0 C 97 % 1009,5 hPa 0,0 l/m 3,7 km/h (1 Bft) W-SW 257 0 min 0,000 mm 0,0 UV-I 0 W/m 5,6 C 6,0 C 4,8 km/h (1 Bft) 96,15 %
10.04.2016 03:23 6,0 C 97 % 1009,5 hPa 0,0 l/m 4,6 km/h (1 Bft) W 261 0 min 0,000 mm 0,0 UV-I 0 W/m 5,6 C 6,0 C 6,4 km/h (2 Bft) 100,00 %
10.04.2016 03:24 6,0 C 97 % 1009,5 hPa 0,0 l/m 4,7 km/h (1 Bft) W-SW 247 0 min 0,000 mm 0,0 UV-I 0 W/m 5,6 C 6,0 C 6,4 km/h (2 Bft) 100,00 %
10.04.2016 03:25 6,0 C 97 % 1009,6 hPa 0,0 l/m 4,9 km/h (1 Bft) W-SW 249 0 min 0,000 mm 0,0 UV-I 0 W/m 5,6 C 6,0 C 6,4 km/h (2 Bft) 100,00 %
10.04.2016 03:26 6,0 C 97 % 1009,6 hPa 0,0 l/m 6,2 km/h (2 Bft) W 263 0 min 0,000 mm 0,0 UV-I 0 W/m 5,6 C 6,0 C 8,0 km/h (2 Bft) 100,00 %
10.04.2016 03:27 6,0 C 97 % 1009,6 hPa 0,0 l/m 7,3 km/h (2 Bft) W-SW 257 0 min 0,000 mm 0,0 UV-I 0 W/m 5,6 C 5,2 C 9,7 km/h (2 Bft) 96,15 %
10.04.2016 03:28 6,0 C 97 % 1009,6 hPa 0,0 l/m 5,7 km/h (1 Bft) W-SW 254 0 min 0,000 mm 0,0 UV-I 0 W/m 5,6 C 6,0 C 6,4 km/h (2 Bft) 95,65 %
10.04.2016 03:29 6,0 C 97 % 1009,7 hPa 0,0 l/m 6,0 km/h (2 Bft) W-SW 245 0 min 0,000 mm 0,0 UV-I 0 W/m 5,6 C 6,0 C 6,4 km/h (2 Bft) 100,00 %
10.04.2016 03:30 6,0 C 97 % 1009,6 hPa 0,0 l/m 6,0 km/h (2 Bft) W 277 0 min 0,000 mm 0,0 UV-I 0 W/m 5,6 C 6,0 C 9,7 km/h (2 Bft) 100,00 %
10.04.2016 03:31 6,0 C 97 % 1009,6 hPa 0,0 l/m 4,7 km/h (1 Bft) W-SW 254 0 min 0,000 mm 0,0 UV-I 0 W/m 5,6 C 6,0 C 6,4 km/h (2 Bft) 100,00 %
10.04.2016 03:32 6,0 C 97 % 1009,6 hPa 0,0 l/m 5,8 km/h (2 Bft) W 268 0 min 0,000 mm 0,0 UV-I 0 W/m 5,6 C 6,0 C 8,0 km/h (2 Bft) 100,00 %
10.04.2016 03:33 6,0 C 97 % 1009,6 hPa 0,0 l/m 4,6 km/h (1 Bft) W-SW 246 0 min 0,000 mm 0,0 UV-I 0 W/m 5,6 C 6,0 C 6,4 km/h (2 Bft) 100,00 %
10.04.2016 03:34 6,0 C 97 % 1009,7 hPa 0,0 l/m 5,0 km/h (1 Bft) SW 232 0 min 0,000 mm 0,0 UV-I 0 W/m 5,6 C 6,0 C 6,4 km/h (2 Bft) 100,00 %
10.04.2016 03:35 6,0 C 97 % 1009,6 hPa 0,0 l/m 5,4 km/h (1 Bft) W-SW 254 0 min 0,000 mm 0,0 UV-I 0 W/m 5,6 C 6,0 C 8,0 km/h (2 Bft) 100,00 %
10.04.2016 03:36 6,0 C 97 % 1009,6 hPa 0,0 l/m 5,0 km/h (1 Bft) W-SW 256 0 min 0,000 mm 0,0 UV-I 0 W/m 5,6 C 6,0 C 6,4 km/h (2 Bft) 100,00 %
10.04.2016 03:37 6,0 C 97 % 1009,6 hPa 0,0 l/m 5,5 km/h (1 Bft) W-SW 238 0 min 0,000 mm 0,0 UV-I 0 W/m 5,6 C 6,0 C 6,4 km/h (2 Bft) 96,15 %
10.04.2016 03:38 6,0 C 97 % 1009,7 hPa 0,0 l/m 4,6 km/h (1 Bft) W 263 0 min 0,000 mm 0,0 UV-I 0 W/m 5,6 C 6,0 C 8,0 km/h (2 Bft) 96,30 %
10.04.2016 03:39 6,0 C 97 % 1009,7 hPa 0,0 l/m 5,0 km/h (1 Bft) W-SW 250 0 min 0,000 mm 0,0 UV-I 0 W/m 5,6 C 6,0 C 6,4 km/h (2 Bft) 100,00 %
10.04.2016 03:40 6,0 C 97 % 1009,7 hPa 0,0 l/m 6,4 km/h (2 Bft) W-SW 257 0 min 0,000 mm 0,0 UV-I 0 W/m 5,6 C 6,0 C 9,7 km/h (2 Bft) 100,00 %
10.04.2016 03:41 6,0 C 97 % 1009,7 hPa 0,0 l/m 5,0 km/h (1 Bft) W-SW 257 0 min 0,000 mm 0,0 UV-I 0 W/m 5,6 C 6,0 C 6,4 km/h (2 Bft) 100,00 %
10.04.2016 03:42 6,0 C 97 % 1009,6 hPa 0,0 l/m 4,9 km/h (1 Bft) W-SW 252 0 min 0,000 mm 0,0 UV-I 0 W/m 5,6 C 6,0 C 6,4 km/h (2 Bft) 96,30 %
10.04.2016 03:43 6,0 C 97 % 1009,6 hPa 0,0 l/m 5,1 km/h (1 Bft) W-SW 249 0 min 0,000 mm 0,0 UV-I 0 W/m 5,6 C 6,0 C 6,4 km/h (2 Bft) 98,50 %
10.04.2016 03:44 6,0 C 97 % 1009,6 hPa 0,0 l/m 4,8 km/h (1 Bft) W-SW 237 0 min 0,000 mm 0,0 UV-I 0 W/m 5,6 C 6,0 C 6,4 km/h (2 Bft) 97,37 %
10.04.2016 03:45 6,0 C 97 % 1009,7 hPa 0,0 l/m 4,5 km/h (1 Bft) W-SW 243 0 min 0,000 mm 0,0 UV-I 0 W/m 5,6 C 6,0 C 6,4 km/h (2 Bft) 100,00 %
10.04.2016 03:46 6,1 C 97 % 1009,7 hPa 0,0 l/m 3,8 km/h (1 Bft) SW 234 0 min 0,000 mm 0,0 UV-I 0 W/m 5,7 C 6,1 C 4,8 km/h (1 Bft) 100,00 %
10.04.2016 03:47 6,0 C 97 % 1009,6 hPa 0,0 l/m 4,7 km/h (1 Bft) W-SW 246 0 min 0,000 mm 0,0 UV-I 0 W/m 5,6 C 6,0 C 6,4 km/h (2 Bft) 100,00 %
10.04.2016 03:48 6,0 C 97 % 1009,7 hPa 0,0 l/m 5,0 km/h (1 Bft) W-SW 244 0 min 0,000 mm 0,0 UV-I 0 W/m 5,6 C 6,0 C 6,4 km/h (2 Bft) 100,00 %
10.04.2016 03:49 6,0 C 97 % 1009,7 hPa 0,0 l/m 5,0 km/h (1 Bft) W 272 0 min 0,000 mm 0,0 UV-I 0 W/m 5,6 C 6,0 C 6,4 km/h (2 Bft) 100,00 %
10.04.2016 03:50 6,0 C 97 % 1009,7 hPa 0,0 l/m 5,6 km/h (1 Bft) SW 234 0 min 0,000 mm 0,0 UV-I 0 W/m 5,6 C 6,0 C 8,0 km/h (2 Bft) 100,00 %
10.04.2016 03:51 6,0 C 97 % 1009,7 hPa 0,0 l/m 4,5 km/h (1 Bft) W-SW 257 0 min 0,000 mm 0,0 UV-I 0 W/m 5,6 C 6,0 C 4,8 km/h (1 Bft) 100,00 %
10.04.2016 03:52 6,0 C 97 % 1009,7 hPa 0,0 l/m 4,3 km/h (1 Bft) W-SW 242 0 min 0,000 mm 0,0 UV-I 0 W/m 5,6 C 6,0 C 6,4 km/h (2 Bft) 100,00 %
10.04.2016 03:53 6,0 C 97 % 1009,7 hPa 0,0 l/m 4,8 km/h (1 Bft) W-SW 252 0 min 0,000 mm 0,0 UV-I 0 W/m 5,6 C 6,0 C 8,0 km/h (2 Bft) 100,00 %
10.04.2016 03:54 6,0 C 97 % 1009,7 hPa 0,0 l/m 6,7 km/h (2 Bft) W-SW 254 0 min 0,000 mm 0,0 UV-I 0 W/m 5,6 C 5,8 C 9,7 km/h (2 Bft) 100,00 %
10.04.2016 03:55 6,0 C 97 % 1009,7 hPa 0,0 l/m 4,9 km/h (1 Bft) SW 236 0 min 0,000 mm 0,0 UV-I 0 W/m 5,6 C 6,0 C 8,0 km/h (2 Bft) 100,00 %
10.04.2016 03:56 6,0 C 97 % 1009,7 hPa 0,0 l/m 4,0 km/h (1 Bft) W 261 0 min 0,000 mm 0,0 UV-I 0 W/m 5,6 C 6,0 C 6,4 km/h (2 Bft) 96,15 %
10.04.2016 03:57 6,0 C 97 % 1009,7 hPa 0,0 l/m 3,9 km/h (1 Bft) W-SW 258 0 min 0,000 mm 0,0 UV-I 0 W/m 5,6 C 6,0 C 4,8 km/h (1 Bft) 100,00 %
10.04.2016 03:58 6,0 C 97 % 1009,7 hPa 0,0 l/m 4,7 km/h (1 Bft) W 270 0 min 0,000 mm 0,0 UV-I 0 W/m 5,6 C 6,0 C 6,4 km/h (2 Bft) 100,00 %
10.04.2016 03:59 6,0 C 97 % 1009,7 hPa 0,0 l/m 4,0 km/h (1 Bft) W-SW 242 0 min 0,000 mm 0,0 UV-I 0 W/m 5,6 C 6,0 C 4,8 km/h (1 Bft) 100,00 %
10.04.2016 04:00 6,0 C 97 % 1009,7 hPa 0,0 l/m 4,4 km/h (1 Bft) W-SW 244 0 min 0,000 mm 0,0 UV-I 0 W/m 5,6 C 6,0 C 6,4 km/h (2 Bft) 96,15 %
10.04.2016 04:01 6,0 C 97 % 1009,8 hPa 0,0 l/m 6,2 km/h (2 Bft) W-SW 244 0 min 0,000 mm 0,0 UV-I 0 W/m 5,6 C 6,0 C 6,4 km/h (2 Bft) 93,33 %
10.04.2016 04:02 6,0 C 97 % 1009,8 hPa 0,0 l/m 5,0 km/h (1 Bft) W-SW 247 0 min 0,000 mm 0,0 UV-I 0 W/m 5,6 C 6,0 C 6,4 km/h (2 Bft) 95,65 %
10.04.2016 04:03 6,0 C 97 % 1009,8 hPa 0,0 l/m 4,8 km/h (1 Bft) W-SW 258 0 min 0,000 mm 0,0 UV-I 0 W/m 5,6 C 6,0 C 6,4 km/h (2 Bft) 100,00 %
10.04.2016 04:04 6,0 C 97 % 1009,8 hPa 0,0 l/m 4,9 km/h (1 Bft) W-SW 254 0 min 0,000 mm 0,0 UV-I 0 W/m 5,6 C 6,0 C 8,0 km/h (2 Bft) 100,00 %
10.04.2016 04:05 6,0 C 97 % 1009,9 hPa 0,0 l/m 6,2 km/h (2 Bft) W-SW 253 0 min 0,000 mm 0,0 UV-I 0 W/m 5,6 C 6,0 C 8,0 km/h (2 Bft) 93,33 %
10.04.2016 04:06 6,0 C 97 % 1009,9 hPa 0,0 l/m 6,1 km/h (2 Bft) W-SW 250 0 min 0,000 mm 0,0 UV-I 0 W/m 5,6 C 6,0 C 8,0 km/h (2 Bft) 100,00 %
10.04.2016 04:07 6,0 C 97 % 1009,9 hPa 0,0 l/m 6,0 km/h (2 Bft) W-SW 255 0 min 0,000 mm 0,0 UV-I 0 W/m 5,6 C 6,0 C 9,7 km/h (2 Bft) 100,00 %
10.04.2016 04:08 6,0 C 97 % 1009,9 hPa 0,0 l/m 5,8 km/h (2 Bft) W-SW 250 0 min 0,000 mm 0,0 UV-I 0 W/m 5,6 C 6,0 C 8,0 km/h (2 Bft) 100,00 %
10.04.2016 04:09 6,0 C 97 % 1009,9 hPa 0,0 l/m 7,3 km/h (2 Bft) W-SW 248 0 min 0,000 mm 0,0 UV-I 0 W/m 5,6 C 5,2 C 9,7 km/h (2 Bft) 100,00 %
10.04.2016 04:10 6,0 C 97 % 1009,9 hPa 0,0 l/m 5,9 km/h (2 Bft) W-SW 250 0 min 0,000 mm 0,0 UV-I 0 W/m 5,6 C 6,0 C 9,7 km/h (2 Bft) 100,00 %
10.04.2016 04:11 6,0 C 97 % 1009,9 hPa 0,0 l/m 5,8 km/h (2 Bft) W-SW 252 0 min 0,000 mm 0,0 UV-I 0 W/m 5,6 C 6,0 C 6,4 km/h (2 Bft) 100,00 %
10.04.2016 04:12 6,0 C 97 % 1009,9 hPa 0,0 l/m 6,2 km/h (2 Bft) W-SW 245 0 min 0,000 mm 0,0 UV-I 0 W/m 5,6 C 6,0 C 8,0 km/h (2 Bft) 100,00 %
10.04.2016 04:13 6,0 C 97 % 1009,9 hPa 0,0 l/m 6,8 km/h (2 Bft) W-SW 254 0 min 0,000 mm 0,0 UV-I 0 W/m 5,6 C 5,7 C 9,7 km/h (2 Bft) 100,00 %
10.04.2016 04:14 6,0 C 97 % 1010,0 hPa 0,0 l/m 5,6 km/h (1 Bft) W-SW 255 0 min 0,000 mm 0,0 UV-I 0 W/m 5,6 C 6,0 C 8,0 km/h (2 Bft) 100,00 %
10.04.2016 04:15 6,0 C 97 % 1009,9 hPa 0,0 l/m 6,0 km/h (2 Bft) W-SW 255 0 min 0,000 mm 0,0 UV-I 0 W/m 5,6 C 6,0 C 8,0 km/h (2 Bft) 100,00 %
10.04.2016 04:16 6,0 C 97 % 1009,9 hPa 0,0 l/m 8,0 km/h (2 Bft) W-SW 252 0 min 0,000 mm 0,0 UV-I 0 W/m 5,6 C 4,7 C 11,3 km/h (2 Bft) 100,00 %
10.04.2016 04:17 6,0 C 97 % 1010,0 hPa 0,0 l/m 5,5 km/h (1 Bft) W-SW 239 0 min 0,000 mm 0,0 UV-I 0 W/m 5,6 C 6,0 C 6,4 km/h (2 Bft) 100,00 %
10.04.2016 04:18 6,0 C 97 % 1010,0 hPa 0,0 l/m 4,9 km/h (1 Bft) W-SW 248 0 min 0,000 mm 0,0 UV-I 0 W/m 5,6 C 6,0 C 8,0 km/h (2 Bft) 100,00 %
10.04.2016 04:19 6,0 C 97 % 1010,0 hPa 0,0 l/m 4,8 km/h (1 Bft) W-SW 243 0 min 0,000 mm 0,0 UV-I 0 W/m 5,6 C 6,0 C 8,0 km/h (2 Bft) 100,00 %
10.04.2016 04:20 6,0 C 97 % 1010,0 hPa 0,0 l/m 4,7 km/h (1 Bft) W-SW 250 0 min 0,000 mm 0,0 UV-I 0 W/m 5,6 C 6,0 C 6,4 km/h (2 Bft) 100,00 %
10.04.2016 04:21 6,0 C 97 % 1009,9 hPa 0,0 l/m 5,8 km/h (2 Bft) W-SW 252 0 min 0,000 mm 0,0 UV-I 0 W/m 5,6 C 6,0 C 6,4 km/h (2 Bft) 100,00 %
10.04.2016 04:22 6,0 C 97 % 1010,0 hPa 0,0 l/m 4,7 km/h (1 Bft) W-SW 250 0 min 0,000 mm 0,0 UV-I 0 W/m 5,6 C 6,0 C 6,4 km/h (2 Bft) 100,00 %
10.04.2016 04:23 6,0 C 97 % 1009,9 hPa 0,0 l/m 4,6 km/h (1 Bft) W 275 0 min 0,000 mm 0,0 UV-I 0 W/m 5,6 C 6,0 C 9,7 km/h (2 Bft) 100,00 %
10.04.2016 04:24 6,0 C 97 % 1009,9 hPa 0,0 l/m 6,0 km/h (2 Bft) SW 234 0 min 0,000 mm 0,0 UV-I 0 W/m 5,6 C 6,0 C 9,7 km/h (2 Bft) 96,97 %
10.04.2016 04:25 6,0 C 97 % 1009,9 hPa 0,0 l/m 6,3 km/h (2 Bft) W-SW 238 0 min 0,000 mm 0,0 UV-I 0 W/m 5,6 C 6,0 C 8,0 km/h (2 Bft) 95,65 %
10.04.2016 04:26 6,0 C 97 % 1010,0 hPa 0,0 l/m 5,8 km/h (2 Bft) W-SW 241 0 min 0,000 mm 0,0 UV-I 0 W/m 5,6 C 6,0 C 8,0 km/h (2 Bft) 100,00 %
10.04.2016 04:27 6,0 C 97 % 1009,9 hPa 0,0 l/m 5,2 km/h (1 Bft) W-SW 240 0 min 0,000 mm 0,0 UV-I 0 W/m 5,6 C 6,0 C 6,4 km/h (2 Bft) 92,86 %
10.04.2016 04:28 6,0 C 97 % 1009,9 hPa 0,0 l/m 5,9 km/h (2 Bft) SW 235 0 min 0,000 mm 0,0 UV-I 0 W/m 5,6 C 6,0 C 8,0 km/h (2 Bft) 95,83 %
10.04.2016 04:29 6,0 C 97 % 1010,0 hPa 0,0 l/m 5,9 km/h (2 Bft) W-SW 242 0 min 0,000 mm 0,0 UV-I 0 W/m 5,6 C 6,0 C 8,0 km/h (2 Bft) 95,83 %
10.04.2016 04:30 6,0 C 97 % 1010,0 hPa 0,0 l/m 4,8 km/h (1 Bft) W-SW 244 0 min 0,000 mm 0,0 UV-I 0 W/m 5,6 C 6,0 C 6,4 km/h (2 Bft) 100,00 %
10.04.2016 04:31 6,0 C 97 % 1010,0 hPa 0,0 l/m 6,3 km/h (2 Bft) W-SW 247 0 min 0,000 mm 0,0 UV-I 0 W/m 5,6 C 6,0 C 9,7 km/h (2 Bft) 96,55 %
10.04.2016 04:32 6,1 C 97 % 1010,0 hPa 0,0 l/m 5,8 km/h (2 Bft) W-SW 240 0 min 0,000 mm 0,0 UV-I 0 W/m 5,7 C 6,1 C 9,7 km/h (2 Bft) 95,83 %
10.04.2016 04:33 6,0 C 97 % 1010,0 hPa 0,0 l/m 6,2 km/h (2 Bft) W-SW 252 0 min 0,000 mm 0,0 UV-I 0 W/m 5,6 C 6,0 C 8,0 km/h (2 Bft) 100,00 %
10.04.2016 04:34 6,0 C 97 % 1010,0 hPa 0,0 l/m 4,0 km/h (1 Bft) W-SW 251 0 min 0,000 mm 0,0 UV-I 0 W/m 5,6 C 6,0 C 6,4 km/h (2 Bft) 100,00 %
10.04.2016 04:35 6,0 C 97 % 1010,0 hPa 0,0 l/m 6,6 km/h (2 Bft) SW 227 0 min 0,000 mm 0,0 UV-I 0 W/m 5,6 C 5,9 C 9,7 km/h (2 Bft) 95,83 %
10.04.2016 04:36 6,0 C 97 % 1010,0 hPa 0,0 l/m 5,3 km/h (1 Bft) W 266 0 min 0,000 mm 0,0 UV-I 0 W/m 5,6 C 6,0 C 8,0 km/h (2 Bft) 96,15 %
10.04.2016 04:37 6,0 C 97 % 1010,0 hPa 0,0 l/m 4,6 km/h (1 Bft) W-SW 239 0 min 0,000 mm 0,0 UV-I 0 W/m 5,6 C 6,0 C 6,4 km/h (2 Bft) 100,00 %
10.04.2016 04:38 6,0 C 97 % 1010,0 hPa 0,0 l/m 5,6 km/h (1 Bft) W-SW 256 0 min 0,000 mm 0,0 UV-I 0 W/m 5,6 C 6,0 C 9,7 km/h (2 Bft) 96,15 %
10.04.2016 04:39 6,1 C 97 % 1010,0 hPa 0,0 l/m 5,5 km/h (1 Bft) W-SW 257 0 min 0,000 mm 0,0 UV-I 0 W/m 5,7 C 6,1 C 11,3 km/h (2 Bft) 100,00 %
10.04.2016 04:40 6,1 C 97 % 1010,0 hPa 0,0 l/m 4,9 km/h (1 Bft) W-SW 257 0 min 0,000 mm 0,0 UV-I 0 W/m 5,7 C 6,1 C 6,4 km/h (2 Bft) 96,15 %
10.04.2016 04:41 6,1 C 97 % 1010,0 hPa 0,0 l/m 3,4 km/h (1 Bft) W-SW 257 0 min 0,000 mm 0,0 UV-I 0 W/m 5,7 C 6,1 C 4,8 km/h (1 Bft) 100,00 %
10.04.2016 04:42 6,1 C 97 % 1010,0 hPa 0,0 l/m 4,6 km/h (1 Bft) W-SW 250 0 min 0,000 mm 0,0 UV-I 0 W/m 5,7 C 6,1 C 6,4 km/h (2 Bft) 95,65 %
10.04.2016 04:43 6,1 C 97 % 1010,0 hPa 0,0 l/m 5,1 km/h (1 Bft) W 259 0 min 0,000 mm 0,0 UV-I 0 W/m 5,7 C 6,1 C 9,7 km/h (2 Bft) 96,30 %
10.04.2016 04:44 6,1 C 97 % 1010,0 hPa 0,0 l/m 5,2 km/h (1 Bft) W-SW 253 0 min 0,000 mm 0,0 UV-I 0 W/m 5,7 C 6,1 C 6,4 km/h (2 Bft) 100,00 %
10.04.2016 04:45 6,1 C 97 % 1010,0 hPa 0,0 l/m 6,6 km/h (2 Bft) W-SW 253 0 min 0,000 mm 0,0 UV-I 0 W/m 5,7 C 6,0 C 9,7 km/h (2 Bft) 86,67 %
10.04.2016 04:46 6,1 C 97 % 1010,0 hPa 0,0 l/m 5,9 km/h (2 Bft) W-SW 256 0 min 0,000 mm 0,0 UV-I 0 W/m 5,7 C 6,1 C 6,4 km/h (2 Bft) 100,00 %
10.04.2016 04:47 6,1 C 97 % 1010,0 hPa 0,0 l/m 5,2 km/h (1 Bft) W-SW 252 0 min 0,000 mm 0,0 UV-I 0 W/m 5,7 C 6,1 C 6,4 km/h (2 Bft) 95,83 %
10.04.2016 04:48 6,1 C 97 % 1010,0 hPa 0,0 l/m 5,8 km/h (2 Bft) W-SW 250 0 min 0,000 mm 0,0 UV-I 0 W/m 5,7 C 6,1 C 8,0 km/h (2 Bft) 100,00 %
10.04.2016 04:49 6,1 C 97 % 1010,0 hPa 0,0 l/m 5,1 km/h (1 Bft) W-SW 246 0 min 0,000 mm 0,0 UV-I 0 W/m 5,7 C 6,1 C 6,4 km/h (2 Bft) 96,15 %
10.04.2016 04:50 6,1 C 97 % 1010,0 hPa 0,2 l/m 5,4 km/h (1 Bft) W-SW 254 0 min 0,000 mm 0,0 UV-I 0 W/m 5,7 C 6,1 C 9,7 km/h (2 Bft) 100,00 %
10.04.2016 04:51 6,1 C 97 % 1010,1 hPa 0,0 l/m 4,1 km/h (1 Bft) W-SW 248 0 min 0,000 mm 0,0 UV-I 0 W/m 5,7 C 6,1 C 4,8 km/h (1 Bft) 96,55 %
10.04.2016 04:52 6,1 C 97 % 1010,1 hPa 0,0 l/m 4,6 km/h (1 Bft) W-SW 245 0 min 0,000 mm 0,0 UV-I 0 W/m 5,7 C 6,1 C 6,4 km/h (2 Bft) 100,00 %
10.04.2016 04:53 6,1 C 97 % 1010,1 hPa 0,0 l/m 4,1 km/h (1 Bft) W-SW 245 0 min 0,000 mm 0,0 UV-I 0 W/m 5,7 C 6,1 C 6,4 km/h (2 Bft) 96,15 %
10.04.2016 04:54 6,1 C 97 % 1010,1 hPa 0,0 l/m 4,7 km/h (1 Bft) W-SW 247 0 min 0,000 mm 0,0 UV-I 0 W/m 5,7 C 6,1 C 8,0 km/h (2 Bft) 95,83 %
10.04.2016 04:55 6,1 C 97 % 1010,1 hPa 0,0 l/m 4,9 km/h (1 Bft) W-SW 241 0 min 0,000 mm 0,0 UV-I 0 W/m 5,7 C 6,1 C 6,4 km/h (2 Bft) 96,15 %
10.04.2016 04:56 6,1 C 97 % 1010,1 hPa 0,0 l/m 4,2 km/h (1 Bft) W-SW 240 0 min 0,000 mm 0,0 UV-I 0 W/m 5,7 C 6,1 C 4,8 km/h (1 Bft) 95,83 %
10.04.2016 04:57 6,1 C 97 % 1010,1 hPa 0,0 l/m 3,6 km/h (1 Bft) W-SW 249 0 min 0,000 mm 0,0 UV-I 0 W/m 5,7 C 6,1 C 4,8 km/h (1 Bft) 100,00 %
10.04.2016 04:58 6,1 C 97 % 1010,1 hPa 0,0 l/m 5,4 km/h (1 Bft) W-SW 247 0 min 0,000 mm 0,0 UV-I 0 W/m 5,7 C 6,1 C 8,0 km/h (2 Bft) 96,67 %
10.04.2016 04:59 6,1 C 97 % 1010,1 hPa 0,0 l/m 4,7 km/h (1 Bft) W-SW 252 0 min 0,000 mm 0,0 UV-I 0 W/m 5,7 C 6,1 C 6,4 km/h (2 Bft) 100,00 %
10.04.2016 05:00 6,1 C 97 % 1010,1 hPa 0,0 l/m 4,1 km/h (1 Bft) SW 222 0 min 0,000 mm 0,0 UV-I 0 W/m 5,7 C 6,1 C 4,8 km/h (1 Bft) 100,00 %
10.04.2016 05:01 6,1 C 97 % 1010,1 hPa 0,0 l/m 3,8 km/h (1 Bft) SW 232 0 min 0,000 mm 0,0 UV-I 0 W/m 5,7 C 6,1 C 4,8 km/h (1 Bft) 96,15 %
10.04.2016 05:02 6,1 C 97 % 1010,1 hPa 0,0 l/m 4,3 km/h (1 Bft) SW 227 0 min 0,000 mm 0,0 UV-I 0 W/m 5,7 C 6,1 C 6,4 km/h (2 Bft) 96,30 %
10.04.2016 05:03 6,1 C 97 % 1010,1 hPa 0,0 l/m 5,5 km/h (1 Bft) S-SW 213 0 min 0,000 mm 0,0 UV-I 0 W/m 5,7 C 6,1 C 9,7 km/h (2 Bft) 91,30 %
10.04.2016 05:04 6,1 C 97 % 1010,1 hPa 0,0 l/m 5,6 km/h (1 Bft) SW 220 0 min 0,000 mm 0,0 UV-I 0 W/m 5,7 C 6,1 C 8,0 km/h (2 Bft) 100,00 %
10.04.2016 05:05 6,1 C 97 % 1010,1 hPa 0,0 l/m 5,1 km/h (1 Bft) SW 223 0 min 0,000 mm 0,0 UV-I 0 W/m 5,7 C 6,1 C 6,4 km/h (2 Bft) 100,00 %
10.04.2016 05:06 6,1 C 97 % 1010,1 hPa 0,0 l/m 4,7 km/h (1 Bft) SW 227 0 min 0,000 mm 0,0 UV-I 0 W/m 5,7 C 6,1 C 6,4 km/h (2 Bft) 100,00 %
10.04.2016 05:07 6,1 C 97 % 1010,1 hPa 0,0 l/m 5,6 km/h (1 Bft) SW 233 0 min 0,000 mm 0,0 UV-I 0 W/m 5,7 C 6,1 C 8,0 km/h (2 Bft) 92,31 %
10.04.2016 05:08 6,1 C 97 % 1010,1 hPa 0,0 l/m 5,5 km/h (1 Bft) SW 226 0 min 0,000 mm 0,0 UV-I 0 W/m 5,7 C 6,1 C 8,0 km/h (2 Bft) 100,00 %
10.04.2016 05:09 6,1 C 97 % 1010,1 hPa 0,0 l/m 6,1 km/h (2 Bft) S-SW 213 0 min 0,000 mm 0,0 UV-I 0 W/m 5,7 C 6,1 C 9,7 km/h (2 Bft) 96,15 %
10.04.2016 05:10 6,1 C 97 % 1010,1 hPa 0,0 l/m 5,6 km/h (1 Bft) SW 236 0 min 0,000 mm 0,0 UV-I 0 W/m 5,7 C 6,1 C 8,0 km/h (2 Bft) 100,00 %
10.04.2016 05:11 6,1 C 97 % 1010,1 hPa 0,0 l/m 6,6 km/h (2 Bft) SW 232 0 min 0,000 mm 0,0 UV-I 0 W/m 5,7 C 6,0 C 8,0 km/h (2 Bft) 100,00 %
10.04.2016 05:12 6,1 C 97 % 1010,1 hPa 0,0 l/m 7,1 km/h (2 Bft) SW 234 0 min 0,000 mm 0,0 UV-I 0 W/m 5,7 C 5,5 C 9,7 km/h (2 Bft) 95,83 %
10.04.2016 05:13 6,1 C 97 % 1010,1 hPa 0,0 l/m 5,2 km/h (1 Bft) SW 232 0 min 0,000 mm 0,0 UV-I 0 W/m 5,7 C 6,1 C 6,4 km/h (2 Bft) 100,00 %
10.04.2016 05:14 6,1 C 97 % 1010,1 hPa 0,0 l/m 6,4 km/h (2 Bft) SW 234 0 min 0,000 mm 0,0 UV-I 0 W/m 5,7 C 6,1 C 8,0 km/h (2 Bft) 100,00 %
10.04.2016 05:15 6,1 C 97 % 1010,1 hPa 0,0 l/m 6,1 km/h (2 Bft) SW 216 0 min 0,000 mm 0,0 UV-I 0 W/m 5,7 C 6,1 C 8,0 km/h (2 Bft) 100,00 %
10.04.2016 05:16 6,1 C 97 % 1010,1 hPa 0,0 l/m 6,5 km/h (2 Bft) SW 235 0 min 0,000 mm 0,0 UV-I 0 W/m 5,7 C 6,0 C 8,0 km/h (2 Bft) 100,00 %
10.04.2016 05:17 6,1 C 97 % 1010,1 hPa 0,0 l/m 6,0 km/h (2 Bft) SW 228 0 min 0,000 mm 0,0 UV-I 0 W/m 5,7 C 6,1 C 8,0 km/h (2 Bft) 100,00 %
10.04.2016 05:18 6,1 C 97 % 1010,1 hPa 0,0 l/m 6,8 km/h (2 Bft) SW 227 0 min 0,000 mm 0,0 UV-I 0 W/m 5,7 C 5,8 C 8,0 km/h (2 Bft) 100,00 %
10.04.2016 05:19 6,1 C 97 % 1010,1 hPa 0,0 l/m 4,9 km/h (1 Bft) SW 225 0 min 0,000 mm 0,0 UV-I 0 W/m 5,7 C 6,1 C 6,4 km/h (2 Bft) 100,00 %
10.04.2016 05:20 6,1 C 97 % 1010,1 hPa 0,0 l/m 5,5 km/h (1 Bft) S-SW 207 0 min 0,000 mm 0,0 UV-I 0 W/m 5,7 C 6,1 C 6,4 km/h (2 Bft) 100,00 %
10.04.2016 05:21 6,1 C 97 % 1010,1 hPa 0,0 l/m 6,0 km/h (2 Bft) W-SW 244 0 min 0,000 mm 0,0 UV-I 0 W/m 5,7 C 6,1 C 8,0 km/h (2 Bft) 97,44 %
10.04.2016 05:22 6,1 C 97 % 1010,2 hPa 0,0 l/m 6,8 km/h (2 Bft) SW 230 0 min 0,000 mm 0,0 UV-I 0 W/m 5,7 C 5,8 C 9,7 km/h (2 Bft) 100,00 %
10.04.2016 05:23 6,1 C 97 % 1010,2 hPa 0,0 l/m 5,7 km/h (1 Bft) SW 215 0 min 0,000 mm 0,0 UV-I 0 W/m 5,7 C 6,1 C 6,4 km/h (2 Bft) 100,00 %
10.04.2016 05:24 6,1 C 97 % 1010,2 hPa 0,0 l/m 6,4 km/h (2 Bft) SW 231 0 min 0,000 mm 0,0 UV-I 0 W/m 5,7 C 6,1 C 9,7 km/h (2 Bft) 100,00 %
10.04.2016 05:25 6,1 C 97 % 1010,2 hPa 0,0 l/m 5,8 km/h (2 Bft) SW 234 0 min 0,000 mm 0,0 UV-I 0 W/m 5,7 C 6,1 C 9,7 km/h (2 Bft) 95,83 %
10.04.2016 05:26 6,1 C 97 % 1010,2 hPa 0,0 l/m 5,3 km/h (1 Bft) SW 221 0 min 0,000 mm 0,0 UV-I 0 W/m 5,7 C 6,1 C 6,4 km/h (2 Bft) 100,00 %
10.04.2016 05:27 6,1 C 97 % 1010,2 hPa 0,0 l/m 6,4 km/h (2 Bft) SW 227 0 min 0,000 mm 0,0 UV-I 0 W/m 5,7 C 6,1 C 8,0 km/h (2 Bft) 100,00 %
10.04.2016 05:28 6,1 C 97 % 1010,2 hPa 0,0 l/m 7,0 km/h (2 Bft) SW 230 0 min 0,000 mm 0,0 UV-I 0 W/m 5,7 C 5,6 C 9,7 km/h (2 Bft) 100,00 %
10.04.2016 05:29 6,1 C 97 % 1010,3 hPa 0,0 l/m 4,9 km/h (1 Bft) SW 221 0 min 0,000 mm 0,0 UV-I 0 W/m 5,7 C 6,1 C 8,0 km/h (2 Bft) 100,00 %
10.04.2016 05:30 6,1 C 97 % 1010,3 hPa 0,0 l/m 5,0 km/h (1 Bft) SW 227 0 min 0,000 mm 0,0 UV-I 0 W/m 5,7 C 6,1 C 6,4 km/h (2 Bft) 100,00 %
10.04.2016 05:31 6,1 C 97 % 1010,2 hPa 0,0 l/m 5,0 km/h (1 Bft) SW 221 0 min 0,000 mm 0,0 UV-I 0 W/m 5,7 C 6,1 C 6,4 km/h (2 Bft) 100,00 %
10.04.2016 05:32 6,1 C 97 % 1010,3 hPa 0,0 l/m 4,1 km/h (1 Bft) SW 217 0 min 0,000 mm 0,0 UV-I 0 W/m 5,7 C 6,1 C 6,4 km/h (2 Bft) 100,00 %
10.04.2016 05:33 6,1 C 97 % 1010,3 hPa 0,0 l/m 5,0 km/h (1 Bft) SW 225 0 min 0,000 mm 0,0 UV-I 0 W/m 5,7 C 6,1 C 6,4 km/h (2 Bft) 100,00 %
10.04.2016 05:34 6,1 C 97 % 1010,3 hPa 0,0 l/m 6,5 km/h (2 Bft) SW 229 0 min 0,000 mm 0,0 UV-I 0 W/m 5,7 C 6,0 C 8,0 km/h (2 Bft) 100,00 %
10.04.2016 05:35 6,1 C 97 % 1010,3 hPa 0,0 l/m 5,6 km/h (1 Bft) SW 225 0 min 0,000 mm 0,0 UV-I 0 W/m 5,7 C 6,1 C 8,0 km/h (2 Bft) 100,00 %
10.04.2016 05:36 6,1 C 97 % 1010,3 hPa 0,0 l/m 5,0 km/h (1 Bft) SW 232 0 min 0,000 mm 0,0 UV-I 0 W/m 5,7 C 6,1 C 6,4 km/h (2 Bft) 96,30 %
10.04.2016 05:37 6,1 C 97 % 1010,3 hPa 0,0 l/m 2,8 km/h (1 Bft) SW 232 0 min 0,000 mm 0,0 UV-I 0 W/m 5,7 C 6,1 C 3,2 km/h (1 Bft) 100,00 %
10.04.2016 05:38 6,1 C 97 % 1010,3 hPa 0,0 l/m 4,3 km/h (1 Bft) S-SW 192 0 min 0,000 mm 0,0 UV-I 0 W/m 5,7 C 6,1 C 6,4 km/h (2 Bft) 95,83 %
10.04.2016 05:39 6,1 C 97 % 1010,3 hPa 0,0 l/m 4,8 km/h (1 Bft) SW 234 0 min 0,000 mm 0,0 UV-I 0 W/m 5,7 C 6,1 C 6,4 km/h (2 Bft) 95,65 %
10.04.2016 05:40 6,1 C 97 % 1010,3 hPa 0,0 l/m 5,2 km/h (1 Bft) W-SW 237 0 min 0,000 mm 0,0 UV-I 0 W/m 5,7 C 6,1 C 6,4 km/h (2 Bft) 100,00 %
10.04.2016 05:41 6,1 C 97 % 1010,3 hPa 0,0 l/m 5,2 km/h (1 Bft) SW 230 0 min 0,000 mm 0,0 UV-I 0 W/m 5,7 C 6,1 C 6,4 km/h (2 Bft) 100,00 %
10.04.2016 05:42 6,1 C 97 % 1010,3 hPa 0,0 l/m 4,1 km/h (1 Bft) SW 229 0 min 0,000 mm 0,0 UV-I 0 W/m 5,7 C 6,1 C 4,8 km/h (1 Bft) 100,00 %
10.04.2016 05:43 6,1 C 97 % 1010,3 hPa 0,0 l/m 4,8 km/h (1 Bft) S-SW 207 0 min 0,000 mm 0,0 UV-I 0 W/m 5,7 C 6,1 C 6,4 km/h (2 Bft) 100,00 %
10.04.2016 05:44 6,1 C 97 % 1010,3 hPa 0,0 l/m 4,0 km/h (1 Bft) SW 229 0 min 0,000 mm 0,0 UV-I 0 W/m 5,7 C 6,1 C 4,8 km/h (1 Bft) 100,00 %
10.04.2016 05:45 6,1 C 97 % 1010,4 hPa 0,0 l/m 4,2 km/h (1 Bft) SW 217 0 min 0,000 mm 0,0 UV-I 0 W/m 5,7 C 6,1 C 6,4 km/h (2 Bft) 100,00 %
10.04.2016 05:46 6,1 C 97 % 1010,4 hPa 0,0 l/m 4,0 km/h (1 Bft) SW 229 0 min 0,000 mm 0,0 UV-I 0 W/m 5,7 C 6,1 C 4,8 km/h (1 Bft) 100,00 %
10.04.2016 05:47 6,1 C 97 % 1010,4 hPa 0,0 l/m 4,1 km/h (1 Bft) SW 224 0 min 0,000 mm 0,0 UV-I 0 W/m 5,7 C 6,1 C 4,8 km/h (1 Bft) 100,00 %
10.04.2016 05:48 6,1 C 97 % 1010,4 hPa 0,0 l/m 4,6 km/h (1 Bft) SW 219 0 min 0,000 mm 0,0 UV-I 0 W/m 5,7 C 6,1 C 6,4 km/h (2 Bft) 100,00 %
10.04.2016 05:49 6,1 C 97 % 1010,4 hPa 0,0 l/m 4,1 km/h (1 Bft) S-SW 206 0 min 0,000 mm 0,0 UV-I 0 W/m 5,7 C 6,1 C 4,8 km/h (1 Bft) 100,00 %
10.04.2016 05:50 6,1 C 97 % 1010,4 hPa 0,0 l/m 3,6 km/h (1 Bft) S-SW 202 0 min 0,000 mm 0,0 UV-I 0 W/m 5,7 C 6,1 C 4,8 km/h (1 Bft) 100,00 %
10.04.2016 05:51 6,1 C 97 % 1010,4 hPa 0,0 l/m 2,5 km/h (1 Bft) S-SW 205 0 min 0,000 mm 0,0 UV-I 0 W/m 5,7 C 6,1 C 4,8 km/h (1 Bft) 100,00 %
10.04.2016 05:52 6,1 C 97 % 1010,4 hPa 0,0 l/m 3,5 km/h (1 Bft) SW 235 0 min 0,000 mm 0,0 UV-I 0 W/m 5,7 C 6,1 C 4,8 km/h (1 Bft) 100,00 %
10.04.2016 05:53 6,1 C 97 % 1010,5 hPa 0,0 l/m 5,5 km/h (1 Bft) SW 230 0 min 0,000 mm 0,0 UV-I 0 W/m 5,7 C 6,1 C 8,0 km/h (2 Bft) 96,67 %
10.04.2016 05:54 6,1 C 97 % 1010,5 hPa 0,0 l/m 5,4 km/h (1 Bft) SW 229 0 min 0,000 mm 0,0 UV-I 0 W/m 5,7 C 6,1 C 8,0 km/h (2 Bft) 98,48 %
10.04.2016 05:55 6,1 C 97 % 1010,5 hPa 0,0 l/m 6,0 km/h (2 Bft) W-SW 238 0 min 0,000 mm 0,0 UV-I 0 W/m 5,7 C 6,1 C 8,0 km/h (2 Bft) 100,00 %
10.04.2016 05:56 6,1 C 97 % 1010,5 hPa 0,0 l/m 4,3 km/h (1 Bft) SW 234 0 min 0,000 mm 0,0 UV-I 0 W/m 5,7 C 6,1 C 6,4 km/h (2 Bft) 100,00 %
10.04.2016 05:57 6,1 C 97 % 1010,5 hPa 0,0 l/m 4,1 km/h (1 Bft) SW 225 0 min 0,000 mm 0,0 UV-I 0 W/m 5,7 C 6,1 C 6,4 km/h (2 Bft) 100,00 %
10.04.2016 05:58 6,1 C 97 % 1010,5 hPa 0,0 l/m 5,0 km/h (1 Bft) SW 223 0 min 0,000 mm 0,0 UV-I 0 W/m 5,7 C 6,1 C 6,4 km/h (2 Bft) 100,00 %
10.04.2016 05:59 6,1 C 97 % 1010,5 hPa 0,0 l/m 5,4 km/h (1 Bft) SW 232 0 min 0,000 mm 0,0 UV-I 0 W/m 5,7 C 6,1 C 8,0 km/h (2 Bft) 100,00 %
10.04.2016 06:00 6,1 C 97 % 1010,5 hPa 0,0 l/m 5,6 km/h (1 Bft) SW 235 0 min 0,000 mm 0,0 UV-I 0 W/m 5,7 C 6,1 C 6,4 km/h (2 Bft) 100,00 %
10.04.2016 06:01 6,1 C 97 % 1010,5 hPa 0,0 l/m 6,5 km/h (2 Bft) W-SW 238 0 min 0,000 mm 0,0 UV-I 0 W/m 5,7 C 6,0 C 8,0 km/h (2 Bft) 100,00 %
10.04.2016 06:02 6,1 C 97 % 1010,5 hPa 0,0 l/m 5,6 km/h (1 Bft) SW 214 0 min 0,000 mm 0,0 UV-I 0 W/m 5,7 C 6,1 C 8,0 km/h (2 Bft) 100,00 %
10.04.2016 06:03 6,1 C 97 % 1010,5 hPa 0,0 l/m 3,6 km/h (1 Bft) S-SW 199 0 min 0,000 mm 0,0 UV-I 0 W/m 5,7 C 6,1 C 6,4 km/h (2 Bft) 100,00 %
10.04.2016 06:04 6,1 C 97 % 1010,5 hPa 0,0 l/m 4,1 km/h (1 Bft) S-SW 207 0 min 0,000 mm 0,0 UV-I 0 W/m 5,7 C 6,1 C 4,8 km/h (1 Bft) 96,15 %
10.04.2016 06:05 6,1 C 97 % 1010,5 hPa 0,0 l/m 5,0 km/h (1 Bft) S 184 0 min 0,000 mm 0,0 UV-I 0 W/m 5,7 C 6,1 C 8,0 km/h (2 Bft) 100,00 %
10.04.2016 06:06 6,1 C 97 % 1010,5 hPa 0,0 l/m 5,8 km/h (2 Bft) S-SW 208 0 min 0,000 mm 0,0 UV-I 0 W/m 5,7 C 6,1 C 8,0 km/h (2 Bft) 100,00 %
10.04.2016 06:07 6,1 C 97 % 1010,5 hPa 0,0 l/m 5,0 km/h (1 Bft) S 190 0 min 0,000 mm 0,0 UV-I 0 W/m 5,7 C 6,1 C 6,4 km/h (2 Bft) 100,00 %
10.04.2016 06:08 6,1 C 97 % 1010,6 hPa 0,0 l/m 3,7 km/h (1 Bft) S-SW 207 0 min 0,000 mm 0,0 UV-I 0 W/m 5,7 C 6,1 C 4,8 km/h (1 Bft) 100,00 %
10.04.2016 06:09 6,1 C 97 % 1010,5 hPa 0,0 l/m 3,5 km/h (1 Bft) S-SW 207 0 min 0,000 mm 0,0 UV-I 0 W/m 5,7 C 6,1 C 4,8 km/h (1 Bft) 95,83 %
10.04.2016 06:10 6,1 C 97 % 1010,6 hPa 0,0 l/m 4,0 km/h (1 Bft) S-SW 202 0 min 0,000 mm 0,0 UV-I 0 W/m 5,7 C 6,1 C 6,4 km/h (2 Bft) 95,65 %
10.04.2016 06:11 6,1 C 97 % 1010,6 hPa 0,0 l/m 4,8 km/h (1 Bft) S-SW 202 0 min 0,000 mm 0,0 UV-I 0 W/m 5,7 C 6,1 C 6,4 km/h (2 Bft) 100,00 %
10.04.2016 06:12 6,1 C 97 % 1010,6 hPa 0,0 l/m 3,5 km/h (1 Bft) S-SW 199 0 min 0,000 mm 0,0 UV-I 0 W/m 5,7 C 6,1 C 4,8 km/h (1 Bft) 100,00 %
10.04.2016 06:13 6,1 C 97 % 1010,6 hPa 0,0 l/m 3,5 km/h (1 Bft) S-SW 203 0 min 0,000 mm 0,0 UV-I 0 W/m 5,7 C 6,1 C 4,8 km/h (1 Bft) 96,67 %
10.04.2016 06:14 6,1 C 97 % 1010,6 hPa 0,0 l/m 5,0 km/h (1 Bft) S 191 0 min 0,000 mm 0,0 UV-I 0 W/m 5,7 C 6,1 C 6,4 km/h (2 Bft) 100,00 %
10.04.2016 06:15 6,1 C 97 % 1010,6 hPa 0,0 l/m 6,0 km/h (2 Bft) S-SW 193 0 min 0,000 mm 0,0 UV-I 0 W/m 5,7 C 6,1 C 9,7 km/h (2 Bft) 95,65 %
10.04.2016 06:16 6,1 C 97 % 1010,6 hPa 0,0 l/m 3,5 km/h (1 Bft) S-SW 202 0 min 0,000 mm 0,0 UV-I 0 W/m 5,7 C 6,1 C 4,8 km/h (1 Bft) 100,00 %
10.04.2016 06:17 6,1 C 97 % 1010,6 hPa 0,0 l/m 6,6 km/h (2 Bft) S-SW 198 0 min 0,000 mm 0,0 UV-I 0 W/m 5,7 C 6,0 C 9,7 km/h (2 Bft) 95,65 %
10.04.2016 06:18 6,1 C 97 % 1010,6 hPa 0,0 l/m 5,0 km/h (1 Bft) S-SW 213 0 min 0,000 mm 0,0 UV-I 0 W/m 5,7 C 6,1 C 8,0 km/h (2 Bft) 100,00 %
10.04.2016 06:19 6,1 C 97 % 1010,7 hPa 0,0 l/m 6,0 km/h (2 Bft) S 191 0 min 0,000 mm 0,0 UV-I 0 W/m 5,7 C 6,1 C 8,0 km/h (2 Bft) 100,00 %
10.04.2016 06:20 6,1 C 97 % 1010,7 hPa 0,0 l/m 4,4 km/h (1 Bft) S 186 0 min 0,000 mm 0,0 UV-I 0 W/m 5,7 C 6,1 C 6,4 km/h (2 Bft) 100,00 %
10.04.2016 06:21 6,1 C 97 % 1010,7 hPa 0,0 l/m 5,5 km/h (1 Bft) SW 225 0 min 0,000 mm 0,0 UV-I 0 W/m 5,7 C 6,1 C 8,0 km/h (2 Bft) 100,00 %
10.04.2016 06:22 6,1 C 97 % 1010,7 hPa 0,0 l/m 4,5 km/h (1 Bft) S-SW 192 0 min 0,000 mm 0,0 UV-I 0 W/m 5,7 C 6,1 C 6,4 km/h (2 Bft) 100,00 %
10.04.2016 06:23 6,1 C 97 % 1010,7 hPa 0,0 l/m 5,9 km/h (2 Bft) S-SW 207 0 min 0,000 mm 0,0 UV-I 0 W/m 5,7 C 6,1 C 8,0 km/h (2 Bft) 100,00 %
10.04.2016 06:24 6,1 C 97 % 1010,7 hPa 0,0 l/m 3,7 km/h (1 Bft) SW 225 0 min 0,000 mm 0,0 UV-I 0 W/m 5,7 C 6,1 C 4,8 km/h (1 Bft) 100,00 %
10.04.2016 06:25 6,1 C 97 % 1010,7 hPa 0,0 l/m 5,5 km/h (1 Bft) S-SW 209 0 min 0,000 mm 0,0 UV-I 0 W/m 5,7 C 6,1 C 9,7 km/h (2 Bft) 100,00 %
10.04.2016 06:26 6,1 C 97 % 1010,7 hPa 0,0 l/m 5,0 km/h (1 Bft) SW 218 0 min 0,000 mm 0,0 UV-I 0 W/m 5,7 C 6,1 C 8,0 km/h (2 Bft) 100,00 %
10.04.2016 06:27 6,1 C 97 % 1010,7 hPa 0,0 l/m 4,6 km/h (1 Bft) S-SW 196 0 min 0,000 mm 0,0 UV-I 0 W/m 5,7 C 6,1 C 6,4 km/h (2 Bft) 100,00 %
10.04.2016 06:28 6,1 C 97 % 1010,7 hPa 0,0 l/m 3,9 km/h (1 Bft) SW 227 0 min 0,000 mm 0,0 UV-I 0 W/m 5,7 C 6,1 C 4,8 km/h (1 Bft) 100,00 %
10.04.2016 06:29 6,1 C 97 % 1010,7 hPa 0,0 l/m 5,3 km/h (1 Bft) S-SW 198 0 min 0,000 mm 0,0 UV-I 0 W/m 5,7 C 6,1 C 6,4 km/h (2 Bft) 96,30 %
10.04.2016 06:30 6,1 C 97 % 1010,7 hPa 0,0 l/m 3,9 km/h (1 Bft) SW 218 0 min 0,000 mm 0,0 UV-I 0 W/m 5,7 C 6,1 C 4,8 km/h (1 Bft) 96,15 %
10.04.2016 06:31 6,1 C 97 % 1010,8 hPa 0,0 l/m 4,1 km/h (1 Bft) SW 223 0 min 0,000 mm 0,0 UV-I 0 W/m 5,7 C 6,1 C 4,8 km/h (1 Bft) 96,55 %
10.04.2016 06:32 6,1 C 97 % 1010,8 hPa 0,0 l/m 3,7 km/h (1 Bft) S-SW 213 0 min 0,000 mm 0,0 UV-I 0 W/m 5,7 C 6,1 C 4,8 km/h (1 Bft) 98,61 %
10.04.2016 06:33 6,1 C 97 % 1010,7 hPa 0,0 l/m 4,9 km/h (1 Bft) W-SW 242 0 min 0,000 mm 0,0 UV-I 0 W/m 5,7 C 6,1 C 8,0 km/h (2 Bft) 97,62 %
10.04.2016 06:34 6,1 C 97 % 1010,7 hPa 0,0 l/m 3,0 km/h (1 Bft) W-SW 239 0 min 0,000 mm 0,0 UV-I 0 W/m 5,7 C 6,1 C 4,8 km/h (1 Bft) 100,00 %
10.04.2016 06:35 6,1 C 97 % 1010,8 hPa 0,0 l/m 3,7 km/h (1 Bft) W-SW 251 0 min 0,000 mm 0,0 UV-I 0 W/m 5,7 C 6,1 C 4,8 km/h (1 Bft) 91,67 %
10.04.2016 06:36 6,1 C 97 % 1010,8 hPa 0,0 l/m 5,4 km/h (1 Bft) SW 215 0 min 0,000 mm 0,0 UV-I 0 W/m 5,7 C 6,1 C 8,0 km/h (2 Bft) 100,00 %
10.04.2016 06:37 6,1 C 97 % 1010,8 hPa 0,0 l/m 5,5 km/h (1 Bft) SW 233 0 min 0,000 mm 0,0 UV-I 0 W/m 5,7 C 6,1 C 8,0 km/h (2 Bft) 95,83 %
10.04.2016 06:38 6,1 C 97 % 1010,8 hPa 0,0 l/m 4,5 km/h (1 Bft) SW 231 0 min 0,000 mm 0,0 UV-I 0 W/m 5,7 C 6,1 C 6,4 km/h (2 Bft) 89,66 %
10.04.2016 06:39 6,1 C 97 % 1010,8 hPa 0,0 l/m 5,1 km/h (1 Bft) SW 220 0 min 0,000 mm 0,0 UV-I 0 W/m 5,7 C 6,1 C 6,4 km/h (2 Bft) 100,00 %
10.04.2016 06:40 6,1 C 97 % 1010,8 hPa 0,0 l/m 5,5 km/h (1 Bft) SW 232 0 min 0,000 mm 0,0 UV-I 0 W/m 5,7 C 6,1 C 8,0 km/h (2 Bft) 95,65 %
10.04.2016 06:41 6,1 C 97 % 1010,8 hPa 0,0 l/m 4,8 km/h (1 Bft) SW 224 0 min 0,000 mm 0,0 UV-I 0 W/m 5,7 C 6,1 C 6,4 km/h (2 Bft) 95,83 %
10.04.2016 06:42 6,1 C 97 % 1010,8 hPa 0,0 l/m 3,6 km/h (1 Bft) SW 236 0 min 0,000 mm 0,0 UV-I 0 W/m 5,7 C 6,1 C 4,8 km/h (1 Bft) 96,15 %
10.04.2016 06:43 6,1 C 97 % 1010,8 hPa 0,0 l/m 4,7 km/h (1 Bft) SW 223 0 min 0,000 mm 0,0 UV-I 0 W/m 5,7 C 6,1 C 6,4 km/h (2 Bft) 100,00 %
10.04.2016 06:44 6,1 C 97 % 1010,9 hPa 0,0 l/m 3,5 km/h (1 Bft) SW 223 0 min 0,000 mm 0,0 UV-I 0 W/m 5,7 C 6,1 C 4,8 km/h (1 Bft) 95,65 %
10.04.2016 06:45 6,1 C 97 % 1010,9 hPa 0,0 l/m 2,5 km/h (1 Bft) SW 223 0 min 0,000 mm 0,0 UV-I 0 W/m 5,7 C 6,1 C 4,8 km/h (1 Bft) 96,30 %
10.04.2016 06:46 6,1 C 97 % 1010,9 hPa 0,0 l/m 3,6 km/h (1 Bft) SW 224 0 min 0,000 mm 0,0 UV-I 0 W/m 5,7 C 6,1 C 4,8 km/h (1 Bft) 100,00 %
10.04.2016 06:47 6,1 C 97 % 1010,8 hPa 0,0 l/m 4,1 km/h (1 Bft) W 274 0 min 0,000 mm 0,0 UV-I 0 W/m 5,7 C 6,1 C 6,4 km/h (2 Bft) 96,15 %
10.04.2016 06:48 6,1 C 97 % 1010,9 hPa 0,0 l/m 4,4 km/h (1 Bft) W 264 0 min 0,000 mm 0,0 UV-I 0 W/m 5,7 C 6,1 C 4,8 km/h (1 Bft) 100,00 %
10.04.2016 06:49 6,1 C 97 % 1010,9 hPa 0,0 l/m 4,4 km/h (1 Bft) W 264 0 min 0,000 mm 0,0 UV-I 0 W/m 5,7 C 6,1 C 4,8 km/h (1 Bft) 96,15 %
10.04.2016 06:50 6,1 C 97 % 1010,9 hPa 0,0 l/m 3,5 km/h (1 Bft) W 264 0 min 0,000 mm 0,0 UV-I 0 W/m 5,7 C 6,1 C 4,8 km/h (1 Bft) 96,15 %
10.04.2016 06:51 6,1 C 97 % 1010,9 hPa 0,0 l/m 4,1 km/h (1 Bft) W-SW 257 0 min 0,000 mm 0,0 UV-I 0 W/m 5,7 C 6,1 C 6,4 km/h (2 Bft) 91,67 %
10.04.2016 06:52 6,1 C 97 % 1010,9 hPa 0,0 l/m 5,3 km/h (1 Bft) W 259 0 min 0,000 mm 0,0 UV-I 0 W/m 5,7 C 6,1 C 6,4 km/h (2 Bft) 100,00 %
10.04.2016 06:53 6,1 C 97 % 1010,9 hPa 0,0 l/m 4,7 km/h (1 Bft) W-SW 252 0 min 0,000 mm 0,0 UV-I 0 W/m 5,7 C 6,1 C 6,4 km/h (2 Bft) 95,65 %
10.04.2016 06:54 6,1 C 97 % 1010,9 hPa 0,0 l/m 4,9 km/h (1 Bft) W 265 0 min 0,000 mm 0,0 UV-I 0 W/m 5,7 C 6,1 C 6,4 km/h (2 Bft) 96,30 %
10.04.2016 06:55 6,1 C 97 % 1010,9 hPa 0,0 l/m 4,6 km/h (1 Bft) W 265 0 min 0,000 mm 0,0 UV-I 0 W/m 5,7 C 6,1 C 6,4 km/h (2 Bft) 100,00 %
10.04.2016 06:56 6,1 C 97 % 1011,0 hPa 0,0 l/m 4,1 km/h (1 Bft) SW 229 0 min 0,000 mm 0,0 UV-I 0 W/m 5,7 C 6,1 C 6,4 km/h (2 Bft) 96,67 %
10.04.2016 06:57 6,1 C 97 % 1011,0 hPa 0,0 l/m 4,3 km/h (1 Bft) W-SW 238 0 min 0,000 mm 0,0 UV-I 0 W/m 5,7 C 6,1 C 4,8 km/h (1 Bft) 100,00 %
10.04.2016 06:58 6,1 C 97 % 1011,0 hPa 0,0 l/m 4,3 km/h (1 Bft) S-SW 211 0 min 0,000 mm 0,0 UV-I 0 W/m 5,7 C 6,1 C 6,4 km/h (2 Bft) 91,67 %
10.04.2016 06:59 6,1 C 97 % 1011,0 hPa 0,0 l/m 5,7 km/h (1 Bft) SW 229 0 min 0,000 mm 0,0 UV-I 0 W/m 5,7 C 6,1 C 8,0 km/h (2 Bft) 100,00 %
10.04.2016 07:00 6,1 C 97 % 1011,0 hPa 0,0 l/m 5,3 km/h (1 Bft) W-SW 240 0 min 0,000 mm 0,0 UV-I 0 W/m 5,7 C 6,1 C 8,0 km/h (2 Bft) 91,67 %
10.04.2016 07:01 6,1 C 97 % 1011,0 hPa 0,0 l/m 5,6 km/h (1 Bft) SW 233 0 min 0,000 mm 0,0 UV-I 2 W/m 5,7 C 6,1 C 8,0 km/h (2 Bft) 92,31 %
10.04.2016 07:02 6,1 C 97 % 1011,0 hPa 0,0 l/m 6,3 km/h (2 Bft) SW 236 0 min 0,000 mm 0,0 UV-I 5 W/m 5,7 C 6,1 C 8,0 km/h (2 Bft) 96,30 %
10.04.2016 07:03 6,1 C 97 % 1011,0 hPa 0,0 l/m 4,9 km/h (1 Bft) SW 226 0 min 0,000 mm 0,0 UV-I 5 W/m 5,7 C 6,1 C 8,0 km/h (2 Bft) 100,00 %
10.04.2016 07:04 6,1 C 97 % 1011,1 hPa 0,0 l/m 6,0 km/h (2 Bft) SW 229 0 min 0,000 mm 0,0 UV-I 5 W/m 5,7 C 6,1 C 8,0 km/h (2 Bft) 100,00 %
10.04.2016 07:05 6,1 C 97 % 1011,1 hPa 0,0 l/m 5,1 km/h (1 Bft) SW 232 0 min 0,000 mm 0,0 UV-I 5 W/m 5,7 C 6,1 C 8,0 km/h (2 Bft) 100,00 %
10.04.2016 07:06 6,1 C 97 % 1011,1 hPa 0,0 l/m 5,8 km/h (2 Bft) W-SW 240 0 min 0,000 mm 0,0 UV-I 6 W/m 5,7 C 6,1 C 6,4 km/h (2 Bft) 100,00 %
10.04.2016 07:07 6,1 C 97 % 1011,1 hPa 0,0 l/m 6,1 km/h (2 Bft) W-SW 255 0 min 0,000 mm 0,0 UV-I 7 W/m 5,7 C 6,1 C 11,3 km/h (2 Bft) 93,33 %
10.04.2016 07:08 6,1 C 97 % 1011,1 hPa 0,0 l/m 5,6 km/h (1 Bft) SW 221 0 min 0,000 mm 0,0 UV-I 7 W/m 5,7 C 6,1 C 6,4 km/h (2 Bft) 100,00 %
10.04.2016 07:09 6,1 C 97 % 1011,1 hPa 0,0 l/m 3,9 km/h (1 Bft) SW 228 0 min 0,000 mm 0,0 UV-I 7 W/m 5,7 C 6,1 C 6,4 km/h (2 Bft) 95,83 %
10.04.2016 07:10 6,1 C 97 % 1011,1 hPa 0,0 l/m 4,6 km/h (1 Bft) SW 228 0 min 0,000 mm 0,0 UV-I 7 W/m 5,7 C 6,1 C 6,4 km/h (2 Bft) 100,00 %
10.04.2016 07:11 6,1 C 97 % 1011,1 hPa 0,0 l/m 4,2 km/h (1 Bft) SW 228 0 min 0,000 mm 0,0 UV-I 7 W/m 5,7 C 6,1 C 4,8 km/h (1 Bft) 100,00 %
10.04.2016 07:12 6,1 C 97 % 1011,1 hPa 0,0 l/m 5,7 km/h (1 Bft) SW 222 0 min 0,000 mm 0,0 UV-I 7 W/m 5,7 C 6,1 C 8,0 km/h (2 Bft) 100,00 %
10.04.2016 07:13 6,1 C 97 % 1011,1 hPa 0,0 l/m 3,6 km/h (1 Bft) SW 222 0 min 0,000 mm 0,0 UV-I 7 W/m 5,7 C 6,1 C 4,8 km/h (1 Bft) 100,00 %
10.04.2016 07:14 6,1 C 97 % 1011,1 hPa 0,0 l/m 5,7 km/h (1 Bft) S-SW 211 0 min 0,000 mm 0,0 UV-I 7 W/m 5,7 C 6,1 C 6,4 km/h (2 Bft) 100,00 %
10.04.2016 07:15 6,1 C 97 % 1011,1 hPa 0,0 l/m 5,0 km/h (1 Bft) SW 233 0 min 0,000 mm 0,0 UV-I 7 W/m 5,7 C 6,1 C 6,4 km/h (2 Bft) 100,00 %
10.04.2016 07:16 6,1 C 97 % 1011,1 hPa 0,0 l/m 5,4 km/h (1 Bft) SW 226 0 min 0,000 mm 0,0 UV-I 7 W/m 5,7 C 6,1 C 6,4 km/h (2 Bft) 91,30 %
10.04.2016 07:17 6,1 C 97 % 1011,1 hPa 0,0 l/m 4,8 km/h (1 Bft) SW 219 0 min 0,000 mm 0,0 UV-I 9 W/m 5,7 C 6,1 C 8,0 km/h (2 Bft) 100,00 %
10.04.2016 07:18 6,1 C 97 % 1011,1 hPa 0,0 l/m 4,9 km/h (1 Bft) SW 226 0 min 0,000 mm 0,0 UV-I 9 W/m 5,7 C 6,1 C 8,0 km/h (2 Bft) 100,00 %
10.04.2016 07:19 6,1 C 97 % 1011,1 hPa 0,0 l/m 4,9 km/h (1 Bft) SW 232 0 min 0,000 mm 0,0 UV-I 9 W/m 5,7 C 6,1 C 6,4 km/h (2 Bft) 100,00 %
10.04.2016 07:20 6,1 C 97 % 1011,1 hPa 0,0 l/m 4,6 km/h (1 Bft) W-SW 248 0 min 0,000 mm 0,0 UV-I 9 W/m 5,7 C 6,1 C 8,0 km/h (2 Bft) 100,00 %
10.04.2016 07:21 6,1 C 97 % 1011,1 hPa 0,0 l/m 5,3 km/h (1 Bft) W-SW 238 0 min 0,000 mm 0,0 UV-I 9 W/m 5,7 C 6,1 C 6,4 km/h (2 Bft) 100,00 %
10.04.2016 07:22 6,1 C 97 % 1011,1 hPa 0,0 l/m 6,3 km/h (2 Bft) SW 234 0 min 0,000 mm 0,0 UV-I 9 W/m 5,7 C 6,1 C 8,0 km/h (2 Bft) 96,15 %
10.04.2016 07:23 6,1 C 97 % 1011,2 hPa 0,0 l/m 4,9 km/h (1 Bft) SW 227 0 min 0,000 mm 0,0 UV-I 9 W/m 5,7 C 6,1 C 6,4 km/h (2 Bft) 100,00 %
10.04.2016 07:24 6,1 C 97 % 1011,2 hPa 0,0 l/m 5,6 km/h (1 Bft) SW 227 0 min 0,000 mm 0,0 UV-I 9 W/m 5,7 C 6,1 C 6,4 km/h (2 Bft) 98,38 %
10.04.2016 07:25 6,1 C 97 % 1011,2 hPa 0,0 l/m 4,4 km/h (1 Bft) SW 222 0 min 0,000 mm 0,0 UV-I 9 W/m 5,7 C 6,1 C 6,4 km/h (2 Bft) 100,00 %
10.04.2016 07:26 6,1 C 97 % 1011,2 hPa 0,0 l/m 4,4 km/h (1 Bft) SW 224 0 min 0,000 mm 0,0 UV-I 9 W/m 5,7 C 6,1 C 8,0 km/h (2 Bft) 100,00 %
10.04.2016 07:27 6,1 C 97 % 1011,2 hPa 0,0 l/m 4,5 km/h (1 Bft) S-SW 198 0 min 0,000 mm 0,0 UV-I 9 W/m 5,7 C 6,1 C 6,4 km/h (2 Bft) 100,00 %
10.04.2016 07:28 6,1 C 97 % 1011,2 hPa 0,0 l/m 4,6 km/h (1 Bft) S-SW 212 0 min 0,000 mm 0,0 UV-I 9 W/m 5,7 C 6,1 C 6,4 km/h (2 Bft) 100,00 %
10.04.2016 07:29 6,1 C 97 % 1011,2 hPa 0,0 l/m 4,6 km/h (1 Bft) S-SW 210 0 min 0,000 mm 0,0 UV-I 9 W/m 5,7 C 6,1 C 6,4 km/h (2 Bft) 95,65 %
10.04.2016 07:30 6,1 C 97 % 1011,2 hPa 0,0 l/m 4,6 km/h (1 Bft) S-SW 204 0 min 0,000 mm 0,0 UV-I 9 W/m 5,7 C 6,1 C 8,0 km/h (2 Bft) 100,00 %
10.04.2016 07:31 6,1 C 97 % 1011,2 hPa 0,0 l/m 5,6 km/h (1 Bft) SW 217 0 min 0,000 mm 0,0 UV-I 9 W/m 5,7 C 6,1 C 8,0 km/h (2 Bft) 100,00 %
10.04.2016 07:32 6,1 C 97 % 1011,2 hPa 0,0 l/m 4,0 km/h (1 Bft) S-SW 209 0 min 0,000 mm 0,0 UV-I 9 W/m 5,7 C 6,1 C 6,4 km/h (2 Bft) 100,00 %
10.04.2016 07:33 6,1 C 97 % 1011,2 hPa 0,0 l/m 5,0 km/h (1 Bft) S 187 0 min 0,000 mm 0,0 UV-I 9 W/m 5,7 C 6,1 C 6,4 km/h (2 Bft) 100,00 %
10.04.2016 07:34 6,1 C 97 % 1011,2 hPa 0,0 l/m 6,8 km/h (2 Bft) S-SW 204 0 min 0,000 mm 0,0 UV-I 9 W/m 5,7 C 5,8 C 8,0 km/h (2 Bft) 100,00 %
10.04.2016 07:35 6,1 C 97 % 1011,2 hPa 0,0 l/m 5,2 km/h (1 Bft) S 174 0 min 0,000 mm 0,0 UV-I 11 W/m 5,7 C 6,1 C 8,0 km/h (2 Bft) 100,00 %
10.04.2016 07:36 6,1 C 97 % 1011,3 hPa 0,0 l/m 6,5 km/h (2 Bft) S-SW 205 0 min 0,000 mm 0,0 UV-I 11 W/m 5,7 C 6,0 C 9,7 km/h (2 Bft) 100,00 %
10.04.2016 07:37 6,1 C 97 % 1011,3 hPa 0,0 l/m 6,8 km/h (2 Bft) SW 215 0 min 0,000 mm 0,0 UV-I 11 W/m 5,7 C 5,8 C 9,7 km/h (2 Bft) 100,00 %
10.04.2016 07:38 6,1 C 96 % 1011,3 hPa 0,0 l/m 6,7 km/h (2 Bft) S 182 0 min 0,000 mm 0,0 UV-I 11 W/m 5,5 C 5,9 C 8,0 km/h (2 Bft) 100,00 %
10.04.2016 07:39 6,1 C 96 % 1011,3 hPa 0,0 l/m 5,8 km/h (2 Bft) S-SW 206 0 min 0,000 mm 0,0 UV-I 11 W/m 5,5 C 6,1 C 8,0 km/h (2 Bft) 100,00 %
10.04.2016 07:40 6,1 C 96 % 1011,3 hPa 0,0 l/m 6,6 km/h (2 Bft) S 173 0 min 0,000 mm 0,0 UV-I 11 W/m 5,5 C 6,0 C 9,7 km/h (2 Bft) 95,83 %
10.04.2016 07:41 6,1 C 96 % 1011,3 hPa 0,0 l/m 6,4 km/h (2 Bft) S 184 0 min 0,000 mm 0,0 UV-I 11 W/m 5,5 C 6,1 C 8,0 km/h (2 Bft) 100,00 %
10.04.2016 07:42 6,1 C 96 % 1011,3 hPa 0,0 l/m 5,8 km/h (2 Bft) SW 233 0 min 0,000 mm 0,0 UV-I 11 W/m 5,5 C 6,1 C 9,7 km/h (2 Bft) 100,00 %
10.04.2016 07:43 6,1 C 96 % 1011,3 hPa 0,0 l/m 6,8 km/h (2 Bft) S-SW 207 0 min 0,000 mm 0,0 UV-I 11 W/m 5,5 C 5,8 C 9,7 km/h (2 Bft) 100,00 %
10.04.2016 07:44 6,1 C 96 % 1011,3 hPa 0,0 l/m 6,0 km/h (2 Bft) S-SW 203 0 min 0,000 mm 0,0 UV-I 11 W/m 5,5 C 6,1 C 8,0 km/h (2 Bft) 100,00 %
10.04.2016 07:45 6,2 C 96 % 1011,3 hPa 0,0 l/m 6,7 km/h (2 Bft) S 176 0 min 0,000 mm 0,0 UV-I 11 W/m 5,6 C 6,0 C 9,7 km/h (2 Bft) 100,00 %
10.04.2016 07:46 6,2 C 96 % 1011,4 hPa 0,0 l/m 5,5 km/h (1 Bft) S-SW 192 0 min 0,000 mm 0,0 UV-I 11 W/m 5,6 C 6,2 C 8,0 km/h (2 Bft) 100,00 %
10.04.2016 07:47 6,2 C 96 % 1011,4 hPa 0,0 l/m 8,5 km/h (2 Bft) SW 229 0 min 0,000 mm 0,0 UV-I 12 W/m 5,6 C 4,5 C 11,3 km/h (2 Bft) 100,00 %
10.04.2016 07:48 6,2 C 96 % 1011,4 hPa 0,0 l/m 8,0 km/h (2 Bft) S-SW 199 0 min 0,000 mm 0,0 UV-I 12 W/m 5,6 C 4,9 C 11,3 km/h (2 Bft) 100,00 %
10.04.2016 07:49 6,2 C 96 % 1011,4 hPa 0,0 l/m 8,1 km/h (2 Bft) S-SW 196 0 min 0,000 mm 0,0 UV-I 12 W/m 5,6 C 4,8 C 9,7 km/h (2 Bft) 96,30 %
10.04.2016 07:50 6,2 C 96 % 1011,4 hPa 0,0 l/m 7,0 km/h (2 Bft) S-SW 209 0 min 0,000 mm 0,0 UV-I 12 W/m 5,6 C 5,7 C 11,3 km/h (2 Bft) 100,00 %
10.04.2016 07:51 6,2 C 96 % 1011,4 hPa 0,0 l/m 8,1 km/h (2 Bft) S-SW 193 0 min 0,000 mm 0,0 UV-I 12 W/m 5,6 C 4,8 C 11,3 km/h (2 Bft) 100,00 %
10.04.2016 07:52 6,2 C 96 % 1011,4 hPa 0,0 l/m 10,0 km/h (2 Bft) SW 224 0 min 0,000 mm 0,0 UV-I 14 W/m 5,6 C 3,4 C 12,9 km/h (3 Bft) 100,00 %
10.04.2016 07:53 6,2 C 96 % 1011,4 hPa 0,0 l/m 6,2 km/h (2 Bft) S-SW 194 0 min 0,000 mm 0,0 UV-I 14 W/m 5,6 C 6,2 C 9,7 km/h (2 Bft) 100,00 %
10.04.2016 07:54 6,2 C 96 % 1011,4 hPa 0,0 l/m 7,0 km/h (2 Bft) SW 235 0 min 0,000 mm 0,0 UV-I 14 W/m 5,6 C 5,7 C 9,7 km/h (2 Bft) 100,00 %
10.04.2016 07:55 6,2 C 96 % 1011,4 hPa 0,0 l/m 6,6 km/h (2 Bft) S-SW 210 0 min 0,000 mm 0,0 UV-I 14 W/m 5,6 C 6,1 C 9,7 km/h (2 Bft) 100,00 %
10.04.2016 07:56 6,2 C 96 % 1011,4 hPa 0,0 l/m 7,2 km/h (2 Bft) SW 224 0 min 0,000 mm 0,0 UV-I 14 W/m 5,6 C 5,5 C 11,3 km/h (2 Bft) 95,65 %
10.04.2016 07:57 6,2 C 96 % 1011,4 hPa 0,0 l/m 7,5 km/h (2 Bft) S-SW 195 0 min 0,000 mm 0,0 UV-I 16 W/m 5,6 C 5,3 C 9,7 km/h (2 Bft) 100,00 %
10.04.2016 07:58 6,2 C 96 % 1011,4 hPa 0,0 l/m 7,2 km/h (2 Bft) S-SW 209 0 min 0,000 mm 0,0 UV-I 16 W/m 5,6 C 5,5 C 11,3 km/h (2 Bft) 100,00 %
10.04.2016 07:59 6,2 C 96 % 1011,3 hPa 0,0 l/m 7,0 km/h (2 Bft) SW 218 0 min 0,000 mm 0,0 UV-I 16 W/m 5,6 C 5,7 C 9,7 km/h (2 Bft) 100,00 %
10.04.2016 08:00 6,2 C 96 % 1011,3 hPa 0,0 l/m 6,9 km/h (2 Bft) S 183 0 min 0,000 mm 0,0 UV-I 18 W/m 5,6 C 5,8 C 9,7 km/h (2 Bft) 100,00 %
10.04.2016 08:01 6,2 C 96 % 1011,4 hPa 0,0 l/m 4,3 km/h (1 Bft) S 182 0 min 0,000 mm 0,0 UV-I 19 W/m 5,6 C 6,2 C 8,0 km/h (2 Bft) 100,00 %
10.04.2016 08:02 6,2 C 96 % 1011,4 hPa 0,0 l/m 8,5 km/h (2 Bft) S-SW 193 0 min 0,000 mm 0,0 UV-I 19 W/m 5,6 C 4,5 C 12,9 km/h (3 Bft) 100,00 %
10.04.2016 08:03 6,2 C 96 % 1011,4 hPa 0,0 l/m 8,0 km/h (2 Bft) W-SW 243 0 min 0,000 mm 0,0 UV-I 21 W/m 5,6 C 4,9 C 11,3 km/h (2 Bft) 100,00 %
10.04.2016 08:04 6,3 C 96 % 1011,4 hPa 0,0 l/m 6,9 km/h (2 Bft) S-SW 213 0 min 0,000 mm 0,0 UV-I 23 W/m 5,7 C 5,9 C 8,0 km/h (2 Bft) 100,00 %
10.04.2016 08:05 6,3 C 96 % 1011,4 hPa 0,0 l/m 6,9 km/h (2 Bft) S-SW 213 0 min 0,000 mm 0,0 UV-I 23 W/m 5,7 C 5,9 C 9,7 km/h (2 Bft) 100,00 %
10.04.2016 08:06 6,3 C 95 % 1011,4 hPa 0,0 l/m 8,2 km/h (2 Bft) S 180 0 min 0,000 mm 0,0 UV-I 24 W/m 5,6 C 4,8 C 14,5 km/h (3 Bft) 100,00 %
10.04.2016 08:07 6,3 C 95 % 1011,4 hPa 0,0 l/m 7,1 km/h (2 Bft) SW 228 0 min 0,000 mm 0,0 UV-I 25 W/m 5,6 C 5,7 C 11,3 km/h (2 Bft) 100,00 %
10.04.2016 08:08 6,3 C 95 % 1011,4 hPa 0,0 l/m 8,1 km/h (2 Bft) S-SW 208 0 min 0,000 mm 0,0 UV-I 26 W/m 5,6 C 4,9 C 12,9 km/h (3 Bft) 100,00 %
10.04.2016 08:09 6,3 C 95 % 1011,4 hPa 0,0 l/m 8,6 km/h (2 Bft) S 189 0 min 0,000 mm 0,0 UV-I 28 W/m 5,6 C 4,5 C 14,5 km/h (3 Bft) 100,00 %
10.04.2016 08:10 6,3 C 95 % 1011,4 hPa 0,0 l/m 8,6 km/h (2 Bft) S-SW 198 0 min 0,000 mm 0,0 UV-I 32 W/m 5,6 C 4,5 C 11,3 km/h (2 Bft) 100,00 %
10.04.2016 08:11 6,3 C 95 % 1011,4 hPa 0,0 l/m 10,0 km/h (2 Bft) S 189 0 min 0,000 mm 0,0 UV-I 34 W/m 5,6 C 3,5 C 16,1 km/h (3 Bft) 97,56 %
10.04.2016 08:12 6,3 C 95 % 1011,4 hPa 0,0 l/m 8,4 km/h (2 Bft) S 186 0 min 0,000 mm 0,0 UV-I 36 W/m 5,6 C 4,7 C 11,3 km/h (2 Bft) 100,00 %
10.04.2016 08:13 6,3 C 95 % 1011,4 hPa 0,0 l/m 7,3 km/h (2 Bft) SW 229 0 min 0,000 mm 0,0 UV-I 38 W/m 5,6 C 5,5 C 9,7 km/h (2 Bft) 100,00 %
10.04.2016 08:14 6,3 C 95 % 1011,4 hPa 0,0 l/m 7,9 km/h (2 Bft) S 188 0 min 0,000 mm 0,0 UV-I 40 W/m 5,6 C 5,0 C 12,9 km/h (3 Bft) 100,00 %
10.04.2016 08:15 6,3 C 95 % 1011,5 hPa 0,0 l/m 9,2 km/h (2 Bft) S-SW 211 0 min 0,000 mm 0,0 UV-I 42 W/m 5,6 C 4,1 C 12,9 km/h (3 Bft) 100,00 %
10.04.2016 08:16 6,3 C 95 % 1011,4 hPa 0,0 l/m 9,5 km/h (2 Bft) S-SW 207 0 min 0,000 mm 0,0 UV-I 44 W/m 5,6 C 3,9 C 12,9 km/h (3 Bft) 100,00 %
10.04.2016 08:17 6,4 C 95 % 1011,4 hPa 0,0 l/m 10,0 km/h (2 Bft) S 190 0 min 0,000 mm 0,0 UV-I 44 W/m 5,7 C 3,6 C 12,9 km/h (3 Bft) 100,00 %
10.04.2016 08:18 6,4 C 95 % 1011,5 hPa 0,0 l/m 7,7 km/h (2 Bft) S 182 0 min 0,000 mm 0,0 UV-I 44 W/m 5,7 C 5,3 C 12,9 km/h (3 Bft) 100,00 %
10.04.2016 08:19 6,4 C 95 % 1011,4 hPa 0,0 l/m 10,4 km/h (2 Bft) SW 226 0 min 0,000 mm 0,0 UV-I 44 W/m 5,7 C 3,4 C 14,5 km/h (3 Bft) 100,00 %
10.04.2016 08:20 6,4 C 95 % 1011,5 hPa 0,0 l/m 12,3 km/h (3 Bft) S 183 0 min 0,000 mm 0,0 UV-I 44 W/m 5,7 C 2,2 C 14,5 km/h (3 Bft) 100,00 %
10.04.2016 08:21 6,4 C 95 % 1011,4 hPa 0,0 l/m 10,1 km/h (2 Bft) S-SW 192 0 min 0,000 mm 0,0 UV-I 44 W/m 5,7 C 3,6 C 17,7 km/h (3 Bft) 100,00 %
10.04.2016 08:22 6,4 C 95 % 1011,5 hPa 0,0 l/m 7,7 km/h (2 Bft) SW 231 0 min 0,000 mm 0,0 UV-I 44 W/m 5,7 C 5,3 C 11,3 km/h (2 Bft) 100,00 %
10.04.2016 08:23 6,4 C 95 % 1011,5 hPa 0,0 l/m 10,1 km/h (2 Bft) S-SW 196 0 min 0,000 mm 0,0 UV-I 45 W/m 5,7 C 3,6 C 12,9 km/h (3 Bft) 100,00 %
10.04.2016 08:24 6,4 C 95 % 1011,5 hPa 0,0 l/m 9,7 km/h (2 Bft) S-SW 209 0 min 0,000 mm 0,0 UV-I 46 W/m 5,7 C 3,8 C 14,5 km/h (3 Bft) 100,00 %
10.04.2016 08:25 6,4 C 95 % 1011,6 hPa 0,0 l/m 6,8 km/h (2 Bft) SW 229 0 min 0,000 mm 0,0 UV-I 46 W/m 5,7 C 6,1 C 9,7 km/h (2 Bft) 100,00 %
10.04.2016 08:26 6,4 C 95 % 1011,5 hPa 0,0 l/m 6,8 km/h (2 Bft) S 174 0 min 0,000 mm 0,0 UV-I 46 W/m 5,7 C 6,1 C 11,3 km/h (2 Bft) 100,00 %
10.04.2016 08:27 6,5 C 95 % 1011,6 hPa 0,0 l/m 10,5 km/h (2 Bft) W-SW 239 0 min 0,000 mm 0,0 UV-I 44 W/m 5,8 C 3,4 C 14,5 km/h (3 Bft) 96,15 %
10.04.2016 08:28 6,5 C 95 % 1011,6 hPa 0,0 l/m 9,6 km/h (2 Bft) SW 216 0 min 0,000 mm 0,0 UV-I 44 W/m 5,8 C 4,0 C 12,9 km/h (3 Bft) 100,00 %
10.04.2016 08:29 6,5 C 95 % 1011,6 hPa 0,0 l/m 10,1 km/h (2 Bft) S-SO 167 0 min 0,000 mm 0,0 UV-I 42 W/m 5,8 C 3,7 C 14,5 km/h (3 Bft) 100,00 %
10.04.2016 08:30 6,5 C 95 % 1011,6 hPa 0,0 l/m 9,3 km/h (2 Bft) SW 218 0 min 0,000 mm 0,0 UV-I 42 W/m 5,8 C 4,2 C 14,5 km/h (3 Bft) 100,00 %
10.04.2016 08:31 6,5 C 94 % 1011,6 hPa 0,0 l/m 8,1 km/h (2 Bft) SW 223 0 min 0,000 mm 0,0 UV-I 42 W/m 5,6 C 5,1 C 11,3 km/h (2 Bft) 100,00 %
10.04.2016 08:32 6,5 C 95 % 1011,6 hPa 0,0 l/m 8,3 km/h (2 Bft) SW 220 0 min 0,000 mm 0,0 UV-I 42 W/m 5,8 C 4,9 C 12,9 km/h (3 Bft) 92,68 %
10.04.2016 08:33 6,6 C 95 % 1011,6 hPa 0,0 l/m 8,8 km/h (2 Bft) S-SW 205 0 min 0,000 mm 0,0 UV-I 42 W/m 5,9 C 4,7 C 12,9 km/h (3 Bft) 91,67 %
10.04.2016 08:34 6,6 C 95 % 1011,6 hPa 0,0 l/m 9,7 km/h (2 Bft) S-SW 207 0 min 0,000 mm 0,0 UV-I 45 W/m 5,9 C 4,0 C 12,9 km/h (3 Bft) 96,15 %
10.04.2016 08:35 6,6 C 95 % 1011,6 hPa 0,0 l/m 8,6 km/h (2 Bft) SW 232 0 min 0,000 mm 0,0 UV-I 46 W/m 5,9 C 4,8 C 14,5 km/h (3 Bft) 96,67 %
10.04.2016 08:36 6,6 C 95 % 1011,6 hPa 0,0 l/m 8,4 km/h (2 Bft) S-SW 208 0 min 0,000 mm 0,0 UV-I 47 W/m 5,9 C 5,0 C 11,3 km/h (2 Bft) 96,15 %
10.04.2016 08:37 6,6 C 95 % 1011,6 hPa 0,0 l/m 6,9 km/h (2 Bft) SW 225 0 min 0,000 mm 0,0 UV-I 46 W/m 5,9 C 6,2 C 12,9 km/h (3 Bft) 91,67 %
10.04.2016 08:38 6,6 C 95 % 1011,6 hPa 0,0 l/m 10,0 km/h (2 Bft) SW 229 0 min 0,000 mm 0,0 UV-I 46 W/m 5,9 C 3,8 C 16,1 km/h (3 Bft) 96,55 %
10.04.2016 08:39 6,6 C 95 % 1011,6 hPa 0,0 l/m 9,7 km/h (2 Bft) S 186 0 min 0,000 mm 0,0 UV-I 44 W/m 5,9 C 4,0 C 12,9 km/h (3 Bft) 100,00 %
10.04.2016 08:40 6,6 C 94 % 1011,6 hPa 0,0 l/m 10,1 km/h (2 Bft) S-SW 198 0 min 0,000 mm 0,0 UV-I 44 W/m 5,7 C 3,8 C 11,3 km/h (2 Bft) 91,30 %
10.04.2016 08:41 6,6 C 94 % 1011,6 hPa 0,0 l/m 9,3 km/h (2 Bft) SW 219 0 min 0,000 mm 0,0 UV-I 43 W/m 5,7 C 4,3 C 12,9 km/h (3 Bft) 100,00 %
10.04.2016 08:42 6,6 C 94 % 1011,6 hPa 0,0 l/m 8,1 km/h (2 Bft) S-SW 205 0 min 0,000 mm 0,0 UV-I 42 W/m 5,7 C 5,2 C 14,5 km/h (3 Bft) 92,86 %
10.04.2016 08:43 6,6 C 94 % 1011,6 hPa 0,0 l/m 7,4 km/h (2 Bft) W-SW 238 0 min 0,000 mm 0,0 UV-I 41 W/m 5,7 C 5,8 C 9,7 km/h (2 Bft) 100,00 %
10.04.2016 08:44 6,6 C 94 % 1011,6 hPa 0,0 l/m 7,4 km/h (2 Bft) S-SW 201 0 min 0,000 mm 0,0 UV-I 39 W/m 5,7 C 5,8 C 11,3 km/h (2 Bft) 96,15 %
10.04.2016 08:45 6,6 C 94 % 1011,6 hPa 0,0 l/m 11,1 km/h (2 Bft) SW 234 0 min 0,000 mm 0,0 UV-I 35 W/m 5,7 C 3,1 C 16,1 km/h (3 Bft) 91,67 %
10.04.2016 08:46 6,6 C 94 % 1011,6 hPa 0,0 l/m 7,4 km/h (2 Bft) SW 235 0 min 0,000 mm 0,0 UV-I 34 W/m 5,7 C 5,8 C 12,9 km/h (3 Bft) 100,00 %
10.04.2016 08:47 6,6 C 94 % 1011,6 hPa 0,0 l/m 6,4 km/h (2 Bft) S-SW 199 0 min 0,000 mm 0,0 UV-I 31 W/m 5,7 C 6,6 C 11,3 km/h (2 Bft) 100,00 %
10.04.2016 08:48 6,6 C 94 % 1011,6 hPa 0,0 l/m 9,3 km/h (2 Bft) S-SW 212 0 min 0,000 mm 0,0 UV-I 30 W/m 5,7 C 4,3 C 14,5 km/h (3 Bft) 96,30 %
10.04.2016 08:49 6,6 C 94 % 1011,6 hPa 0,0 l/m 9,1 km/h (2 Bft) W-SW 250 0 min 0,000 mm 0,0 UV-I 30 W/m 5,7 C 4,5 C 11,3 km/h (2 Bft) 96,15 %
10.04.2016 08:50 6,6 C 94 % 1011,6 hPa 0,0 l/m 7,7 km/h (2 Bft) S 184 0 min 0,000 mm 0,0 UV-I 32 W/m 5,7 C 5,5 C 14,5 km/h (3 Bft) 100,00 %
10.04.2016 08:51 6,6 C 94 % 1011,6 hPa 0,0 l/m 8,6 km/h (2 Bft) S 175 0 min 0,000 mm 0,0 UV-I 34 W/m 5,7 C 4,8 C 12,9 km/h (3 Bft) 96,55 %
10.04.2016 08:52 6,6 C 94 % 1011,6 hPa 0,0 l/m 9,6 km/h (2 Bft) W-SW 248 0 min 0,000 mm 0,0 UV-I 38 W/m 5,7 C 4,1 C 12,9 km/h (3 Bft) 96,30 %
10.04.2016 08:53 6,6 C 94 % 1011,6 hPa 0,0 l/m 6,4 km/h (2 Bft) SW 214 0 min 0,000 mm 0,0 UV-I 40 W/m 5,7 C 6,6 C 9,7 km/h (2 Bft) 95,65 %
10.04.2016 08:54 6,7 C 94 % 1011,6 hPa 0,0 l/m 8,3 km/h (2 Bft) SW 217 0 min 0,000 mm 0,0 UV-I 43 W/m 5,8 C 5,2 C 11,3 km/h (2 Bft) 96,30 %
10.04.2016 08:55 6,7 C 94 % 1011,6 hPa 0,0 l/m 7,7 km/h (2 Bft) S-SW 212 0 min 0,000 mm 0,0 UV-I 44 W/m 5,8 C 5,6 C 11,3 km/h (2 Bft) 100,00 %
10.04.2016 08:56 6,7 C 94 % 1011,6 hPa 0,0 l/m 8,2 km/h (2 Bft) SW 219 0 min 0,000 mm 0,0 UV-I 44 W/m 5,8 C 5,2 C 11,3 km/h (2 Bft) 86,67 %
10.04.2016 08:57 6,7 C 94 % 1011,6 hPa 0,0 l/m 9,8 km/h (2 Bft) SW 225 0 min 0,000 mm 0,0 UV-I 44 W/m 5,8 C 4,1 C 14,5 km/h (3 Bft) 100,00 %
10.04.2016 08:58 6,7 C 94 % 1011,6 hPa 0,0 l/m 7,8 km/h (2 Bft) S-SW 201 0 min 0,000 mm 0,0 UV-I 46 W/m 5,8 C 5,5 C 14,5 km/h (3 Bft) 95,83 %
10.04.2016 08:59 6,7 C 94 % 1011,6 hPa 0,0 l/m 7,0 km/h (2 Bft) W-SW 246 0 min 0,000 mm 0,0 UV-I 46 W/m 5,8 C 6,2 C 11,3 km/h (2 Bft) 100,00 %
10.04.2016 09:00 6,7 C 94 % 1011,6 hPa 0,0 l/m 7,0 km/h (2 Bft) S-SW 211 0 min 0,025 mm 0,0 UV-I 47 W/m 5,8 C 6,2 C 12,9 km/h (3 Bft) 96,67 %
10.04.2016 09:01 6,7 C 94 % 1011,7 hPa 0,0 l/m 9,3 km/h (2 Bft) S 178 0 min 0,000 mm 0,0 UV-I 49 W/m 5,8 C 4,4 C 14,5 km/h (3 Bft) 100,00 %
10.04.2016 09:02 6,7 C 94 % 1011,6 hPa 0,0 l/m 8,1 km/h (2 Bft) SW 225 0 min 0,000 mm 0,0 UV-I 49 W/m 5,8 C 5,3 C 12,9 km/h (3 Bft) 96,15 %
10.04.2016 09:03 6,8 C 94 % 1011,6 hPa 0,0 l/m 9,1 km/h (2 Bft) SW 215 0 min 0,000 mm 0,0 UV-I 51 W/m 5,9 C 4,7 C 12,9 km/h (3 Bft) 100,00 %
10.04.2016 09:04 6,8 C 94 % 1011,6 hPa 0,0 l/m 8,6 km/h (2 Bft) S-SW 200 0 min 0,000 mm 0,0 UV-I 52 W/m 5,9 C 5,0 C 11,3 km/h (2 Bft) 96,30 %
10.04.2016 09:05 6,8 C 93 % 1011,7 hPa 0,0 l/m 13,0 km/h (3 Bft) SW 227 0 min 0,000 mm 0,0 UV-I 55 W/m 5,7 C 2,3 C 22,5 km/h (4 Bft) 96,15 %
10.04.2016 09:06 6,8 C 93 % 1011,7 hPa 0,0 l/m 7,3 km/h (2 Bft) W-SW 249 0 min 0,000 mm 0,0 UV-I 59 W/m 5,7 C 6,1 C 9,7 km/h (2 Bft) 100,00 %
10.04.2016 09:07 6,8 C 93 % 1011,7 hPa 0,0 l/m 8,0 km/h (2 Bft) W-SW 247 0 min 0,000 mm 0,0 UV-I 62 W/m 5,7 C 5,5 C 12,9 km/h (3 Bft) 100,00 %
10.04.2016 09:08 6,8 C 93 % 1011,8 hPa 0,0 l/m 6,5 km/h (2 Bft) S 188 0 min 0,000 mm 0,0 UV-I 64 W/m 5,7 C 6,7 C 9,7 km/h (2 Bft) 100,00 %
10.04.2016 09:09 6,8 C 93 % 1011,8 hPa 0,0 l/m 8,5 km/h (2 Bft) W-SW 242 0 min 0,000 mm 0,0 UV-I 68 W/m 5,7 C 5,1 C 14,5 km/h (3 Bft) 100,00 %
10.04.2016 09:10 6,8 C 93 % 1011,8 hPa 0,0 l/m 7,6 km/h (2 Bft) SW 231 0 min 0,000 mm 0,0 UV-I 71 W/m 5,7 C 5,8 C 12,9 km/h (3 Bft) 100,00 %
10.04.2016 09:11 6,8 C 93 % 1011,8 hPa 0,0 l/m 8,3 km/h (2 Bft) SW 229 0 min 0,000 mm 0,0 UV-I 74 W/m 5,7 C 5,3 C 11,3 km/h (2 Bft) 100,00 %
10.04.2016 09:12 6,9 C 93 % 1011,8 hPa 0,0 l/m 6,9 km/h (2 Bft) W-SW 240 0 min 0,000 mm 0,0 UV-I 78 W/m 5,8 C 6,5 C 9,7 km/h (2 Bft) 93,33 %
10.04.2016 09:13 6,9 C 93 % 1011,8 hPa 0,0 l/m 4,1 km/h (1 Bft) W-SW 249 0 min 0,000 mm 0,0 UV-I 81 W/m 5,8 C 6,9 C 6,4 km/h (2 Bft) 100,00 %
10.04.2016 09:14 6,9 C 93 % 1011,8 hPa 0,0 l/m 5,4 km/h (1 Bft) W 263 0 min 0,000 mm 0,0 UV-I 81 W/m 5,8 C 6,9 C 8,0 km/h (2 Bft) 96,15 %
10.04.2016 09:15 6,9 C 94 % 1011,9 hPa 0,0 l/m 2,2 km/h (1 Bft) W 263 0 min 0,000 mm 0,0 UV-I 83 W/m 6,0 C 6,9 C 4,8 km/h (1 Bft) 94,44 %
10.04.2016 09:16 6,9 C 94 % 1011,9 hPa 0,0 l/m 7,0 km/h (2 Bft) W 259 0 min 0,000 mm 0,0 UV-I 83 W/m 6,0 C 6,4 C 11,3 km/h (2 Bft) 100,00 %
10.04.2016 09:17 6,9 C 94 % 1011,9 hPa 0,0 l/m 6,3 km/h (2 Bft) W-SW 254 0 min 0,000 mm 0,0 UV-I 85 W/m 6,0 C 6,9 C 11,3 km/h (2 Bft) 100,00 %
10.04.2016 09:18 6,9 C 94 % 1011,9 hPa 0,0 l/m 6,0 km/h (2 Bft) W 269 0 min 0,000 mm 0,0 UV-I 88 W/m 6,0 C 6,9 C 8,0 km/h (2 Bft) 100,00 %
10.04.2016 09:19 6,9 C 94 % 1012,0 hPa 0,0 l/m 4,8 km/h (1 Bft) W 266 0 min 0,000 mm 0,0 UV-I 88 W/m 6,0 C 6,9 C 6,4 km/h (2 Bft) 100,00 %
10.04.2016 09:20 6,9 C 94 % 1012,0 hPa 0,0 l/m 3,6 km/h (1 Bft) W 271 0 min 0,000 mm 0,0 UV-I 90 W/m 6,0 C 6,9 C 4,8 km/h (1 Bft) 96,15 %
10.04.2016 09:21 7,0 C 94 % 1012,0 hPa 0,0 l/m 5,1 km/h (1 Bft) W 264 0 min 0,000 mm 0,0 UV-I 90 W/m 6,1 C 7,0 C 6,4 km/h (2 Bft) 100,00 %
10.04.2016 09:22 7,0 C 94 % 1012,0 hPa 0,0 l/m 6,2 km/h (2 Bft) W-NW 290 0 min 0,000 mm 0,0 UV-I 93 W/m 6,1 C 7,0 C 11,3 km/h (2 Bft) 100,00 %
10.04.2016 09:23 7,0 C 94 % 1012,0 hPa 0,0 l/m 5,0 km/h (1 Bft) W-SW 258 0 min 0,000 mm 0,0 UV-I 95 W/m 6,1 C 7,0 C 6,4 km/h (2 Bft) 100,00 %
10.04.2016 09:24 7,0 C 94 % 1012,0 hPa 0,0 l/m 4,1 km/h (1 Bft) W-SW 253 0 min 0,000 mm 0,0 UV-I 95 W/m 6,1 C 7,0 C 6,4 km/h (2 Bft) 100,00 %
10.04.2016 09:25 7,0 C 94 % 1012,0 hPa 0,0 l/m 3,2 km/h (1 Bft) W-SW 253 0 min 0,000 mm 0,0 UV-I 93 W/m 6,1 C 7,0 C 6,4 km/h (2 Bft) 100,00 %
10.04.2016 09:26 7,0 C 94 % 1011,9 hPa 0,0 l/m 5,8 km/h (2 Bft) W-SW 242 0 min 0,000 mm 0,0 UV-I 93 W/m 6,1 C 7,0 C 6,4 km/h (2 Bft) 100,00 %
10.04.2016 09:27 7,1 C 94 % 1011,9 hPa 0,0 l/m 7,2 km/h (2 Bft) W-SW 256 0 min 0,000 mm 0,0 UV-I 93 W/m 6,2 C 6,4 C 11,3 km/h (2 Bft) 95,65 %
10.04.2016 09:28 7,1 C 94 % 1011,9 hPa 0,0 l/m 10,9 km/h (2 Bft) W-SW 252 0 min 0,000 mm 0,0 UV-I 90 W/m 6,2 C 3,8 C 12,9 km/h (3 Bft) 96,30 %
10.04.2016 09:29 7,1 C 94 % 1011,9 hPa 0,0 l/m 8,0 km/h (2 Bft) W-SW 241 0 min 0,000 mm 0,0 UV-I 90 W/m 6,2 C 5,8 C 14,5 km/h (3 Bft) 100,00 %
10.04.2016 09:30 7,1 C 94 % 1011,9 hPa 0,0 l/m 5,1 km/h (1 Bft) SW 232 0 min 0,000 mm 0,0 UV-I 88 W/m 6,2 C 7,1 C 8,0 km/h (2 Bft) 100,00 %
10.04.2016 09:31 7,1 C 93 % 1012,0 hPa 0,0 l/m 6,4 km/h (2 Bft) S-SW 205 0 min 0,000 mm 0,0 UV-I 88 W/m 6,0 C 7,1 C 9,7 km/h (2 Bft) 100,00 %
10.04.2016 09:32 7,2 C 94 % 1012,0 hPa 0,0 l/m 7,2 km/h (2 Bft) S-SW 213 0 min 0,000 mm 0,0 UV-I 88 W/m 6,3 C 6,5 C 11,3 km/h (2 Bft) 100,00 %
10.04.2016 09:33 7,2 C 93 % 1011,9 hPa 0,0 l/m 5,7 km/h (1 Bft) W 273 0 min 0,000 mm 0,0 UV-I 86 W/m 6,1 C 7,2 C 9,7 km/h (2 Bft) 100,00 %
10.04.2016 09:34 7,2 C 93 % 1012,0 hPa 0,0 l/m 6,4 km/h (2 Bft) W-SW 250 0 min 0,000 mm 0,0 UV-I 84 W/m 6,1 C 7,2 C 9,7 km/h (2 Bft) 100,00 %
10.04.2016 09:35 7,2 C 93 % 1012,0 hPa 0,0 l/m 9,2 km/h (2 Bft) W-SW 240 0 min 0,000 mm 0,0 UV-I 84 W/m 6,1 C 5,0 C 12,9 km/h (3 Bft) 100,00 %
10.04.2016 09:36 7,2 C 93 % 1011,9 hPa 0,0 l/m 7,0 km/h (2 Bft) W-SW 244 0 min 0,000 mm 0,0 UV-I 84 W/m 6,1 C 6,7 C 11,3 km/h (2 Bft) 100,00 %
10.04.2016 09:37 7,2 C 93 % 1012,0 hPa 0,0 l/m 8,7 km/h (2 Bft) W-SW 248 0 min 0,000 mm 0,0 UV-I 83 W/m 6,1 C 5,4 C 12,9 km/h (3 Bft) 100,00 %
10.04.2016 09:38 7,2 C 93 % 1012,0 hPa 0,0 l/m 7,4 km/h (2 Bft) W-SW 257 0 min 0,000 mm 0,0 UV-I 83 W/m 6,1 C 6,4 C 12,9 km/h (3 Bft) 95,83 %
10.04.2016 09:39 7,2 C 93 % 1012,0 hPa 0,0 l/m 7,6 km/h (2 Bft) W-SW 254 0 min 0,000 mm 0,0 UV-I 83 W/m 6,1 C 6,2 C 12,9 km/h (3 Bft) 100,00 %
10.04.2016 09:40 7,2 C 93 % 1012,0 hPa 0,0 l/m 6,4 km/h (2 Bft) SW 225 0 min 0,000 mm 0,0 UV-I 83 W/m 6,1 C 7,2 C 8,0 km/h (2 Bft) 100,00 %
10.04.2016 09:41 7,2 C 93 % 1012,0 hPa 0,0 l/m 8,3 km/h (2 Bft) W-SW 252 0 min 0,000 mm 0,0 UV-I 82 W/m 6,1 C 5,7 C 12,9 km/h (3 Bft) 100,00 %
10.04.2016 09:42 7,2 C 93 % 1012,0 hPa 0,0 l/m 7,1 km/h (2 Bft) W-SW 238 0 min 0,000 mm 0,0 UV-I 79 W/m 6,1 C 6,6 C 11,3 km/h (2 Bft) 100,00 %
10.04.2016 09:43 7,3 C 93 % 1012,0 hPa 0,0 l/m 6,6 km/h (2 Bft) SW 234 0 min 0,000 mm 0,0 UV-I 77 W/m 6,2 C 7,2 C 9,7 km/h (2 Bft) 95,65 %
10.04.2016 09:44 7,3 C 93 % 1012,0 hPa 0,0 l/m 9,3 km/h (2 Bft) SW 231 0 min 0,000 mm 0,0 UV-I 77 W/m 6,2 C 5,1 C 14,5 km/h (3 Bft) 100,00 %
10.04.2016 09:45 7,3 C 93 % 1012,0 hPa 0,0 l/m 7,3 km/h (2 Bft) SW 223 0 min 0,000 mm 0,0 UV-I 78 W/m 6,2 C 6,6 C 9,7 km/h (2 Bft) 100,00 %
10.04.2016 09:46 7,3 C 93 % 1012,0 hPa 0,0 l/m 10,5 km/h (2 Bft) SW 231 0 min 0,000 mm 0,0 UV-I 82 W/m 6,2 C 4,3 C 14,5 km/h (3 Bft) 100,00 %
10.04.2016 09:47 7,3 C 93 % 1012,1 hPa 0,0 l/m 9,8 km/h (2 Bft) W-SW 244 0 min 0,000 mm 0,0 UV-I 87 W/m 6,2 C 4,7 C 12,9 km/h (3 Bft) 100,00 %
10.04.2016 09:48 7,3 C 93 % 1012,0 hPa 0,0 l/m 9,2 km/h (2 Bft) W-SW 247 0 min 0,000 mm 0,0 UV-I 91 W/m 6,2 C 5,1 C 12,9 km/h (3 Bft) 100,00 %
10.04.2016 09:49 7,3 C 92 % 1012,0 hPa 0,0 l/m 8,9 km/h (2 Bft) W-SW 240 0 min 0,000 mm 0,0 UV-I 95 W/m 6,1 C 5,4 C 14,5 km/h (3 Bft) 100,00 %
10.04.2016 09:50 7,3 C 92 % 1012,0 hPa 0,0 l/m 9,1 km/h (2 Bft) SW 231 0 min 0,000 mm 0,0 UV-I 96 W/m 6,1 C 5,2 C 14,5 km/h (3 Bft) 96,15 %
10.04.2016 09:51 7,3 C 93 % 1012,0 hPa 0,0 l/m 12,3 km/h (3 Bft) SW 234 0 min 0,000 mm 0,0 UV-I 97 W/m 6,2 C 3,2 C 14,5 km/h (3 Bft) 100,00 %
10.04.2016 09:52 7,3 C 92 % 1012,0 hPa 0,0 l/m 6,4 km/h (2 Bft) W-SW 238 0 min 0,000 mm 0,0 UV-I 98 W/m 6,1 C 7,3 C 12,9 km/h (3 Bft) 100,00 %
10.04.2016 09:53 7,3 C 92 % 1012,0 hPa 0,0 l/m 6,4 km/h (2 Bft) W-SW 248 0 min 0,000 mm 0,0 UV-I 98 W/m 6,1 C 7,3 C 9,7 km/h (2 Bft) 100,00 %
10.04.2016 09:54 7,4 C 92 % 1012,0 hPa 0,0 l/m 5,2 km/h (1 Bft) SW 232 0 min 0,000 mm 0,0 UV-I 100 W/m 6,2 C 7,4 C 9,7 km/h (2 Bft) 100,00 %
10.04.2016 09:55 7,4 C 93 % 1012,1 hPa 0,0 l/m 7,2 km/h (2 Bft) SW 232 0 min 0,000 mm 0,4 UV-I 104 W/m 6,3 C 6,8 C 12,9 km/h (3 Bft) 100,00 %
10.04.2016 09:56 7,4 C 92 % 1012,1 hPa 0,0 l/m 8,0 km/h (2 Bft) SW 224 0 min 0,000 mm 0,5 UV-I 108 W/m 6,2 C 6,1 C 9,7 km/h (2 Bft) 100,00 %
10.04.2016 09:57 7,4 C 93 % 1012,1 hPa 0,0 l/m 6,3 km/h (2 Bft) W-SW 249 0 min 0,000 mm 0,5 UV-I 114 W/m 6,3 C 7,4 C 8,0 km/h (2 Bft) 96,30 %
10.04.2016 09:58 7,5 C 93 % 1012,1 hPa 0,0 l/m 6,2 km/h (2 Bft) W-SW 246 0 min 0,000 mm 0,5 UV-I 119 W/m 6,4 C 7,5 C 8,0 km/h (2 Bft) 100,00 %
10.04.2016 09:59 7,5 C 93 % 1012,1 hPa 0,0 l/m 5,0 km/h (1 Bft) SW 229 0 min 0,000 mm 0,6 UV-I 126 W/m 6,4 C 7,5 C 6,4 km/h (2 Bft) 100,00 %
10.04.2016 10:00 7,6 C 93 % 1012,1 hPa 0,0 l/m 7,5 km/h (2 Bft) SW 229 0 min 0,000 mm 0,6 UV-I 133 W/m 6,5 C 6,7 C 12,9 km/h (3 Bft) 100,00 %
10.04.2016 10:01 7,6 C 92 % 1012,1 hPa 0,0 l/m 10,0 km/h (2 Bft) W-SW 238 0 min 0,051 mm 0,6 UV-I 143 W/m 6,4 C 4,9 C 16,1 km/h (3 Bft) 100,00 %
10.04.2016 10:02 7,6 C 92 % 1012,1 hPa 0,0 l/m 14,6 km/h (3 Bft) W-SW 248 0 min 0,000 mm 0,7 UV-I 151 W/m 6,4 C 2,4 C 19,3 km/h (3 Bft) 100,00 %
10.04.2016 10:03 7,6 C 92 % 1012,1 hPa 0,0 l/m 10,7 km/h (2 Bft) SW 234 0 min 0,000 mm 0,7 UV-I 164 W/m 6,4 C 4,5 C 16,1 km/h (3 Bft) 100,00 %
10.04.2016 10:04 7,6 C 92 % 1012,1 hPa 0,0 l/m 11,3 km/h (2 Bft) W-SW 250 0 min 0,000 mm 0,8 UV-I 177 W/m 6,4 C 4,1 C 14,5 km/h (3 Bft) 100,00 %
10.04.2016 10:05 7,7 C 92 % 1012,1 hPa 0,0 l/m 8,1 km/h (2 Bft) S-SW 205 0 min 0,000 mm 0,9 UV-I 188 W/m 6,5 C 6,4 C 16,1 km/h (3 Bft) 100,00 %
10.04.2016 10:06 7,7 C 92 % 1012,1 hPa 0,0 l/m 10,8 km/h (2 Bft) S 187 0 min 0,000 mm 0,9 UV-I 198 W/m 6,5 C 4,6 C 14,5 km/h (3 Bft) 100,00 %
10.04.2016 10:07 7,8 C 92 % 1012,1 hPa 0,0 l/m 5,9 km/h (2 Bft) W-SW 257 0 min 0,000 mm 1,0 UV-I 208 W/m 6,6 C 7,8 C 8,0 km/h (2 Bft) 100,00 %
10.04.2016 10:08 7,8 C 91 % 1012,1 hPa 0,0 l/m 10,2 km/h (2 Bft) SW 227 0 min 0,000 mm 1,0 UV-I 215 W/m 6,4 C 5,0 C 14,5 km/h (3 Bft) 100,00 %
10.04.2016 10:09 7,8 C 91 % 1012,0 hPa 0,0 l/m 8,9 km/h (2 Bft) SW 232 0 min 0,000 mm 1,0 UV-I 220 W/m 6,4 C 5,9 C 14,5 km/h (3 Bft) 100,00 %
10.04.2016 10:10 7,8 C 91 % 1012,0 hPa 0,0 l/m 7,9 km/h (2 Bft) W-SW 238 0 min 0,000 mm 1,0 UV-I 224 W/m 6,4 C 6,6 C 11,3 km/h (2 Bft) 100,00 %
10.04.2016 10:11 7,9 C 92 % 1012,0 hPa 0,0 l/m 8,0 km/h (2 Bft) W-SW 250 0 min 0,000 mm 1,1 UV-I 228 W/m 6,7 C 6,6 C 11,3 km/h (2 Bft) 100,00 %
10.04.2016 10:12 7,9 C 92 % 1012,0 hPa 0,0 l/m 9,9 km/h (2 Bft) W-SW 251 0 min 0,000 mm 1,1 UV-I 232 W/m 6,7 C 5,3 C 16,1 km/h (3 Bft) 100,00 %
10.04.2016 10:13 7,9 C 92 % 1012,0 hPa 0,0 l/m 8,2 km/h (2 Bft) SW 225 0 min 0,000 mm 1,1 UV-I 238 W/m 6,7 C 6,5 C 11,3 km/h (2 Bft) 100,00 %
10.04.2016 10:14 8,0 C 92 % 1012,0 hPa 0,0 l/m 7,5 km/h (2 Bft) S-SW 210 0 min 0,000 mm 1,2 UV-I 243 W/m 6,8 C 7,1 C 12,9 km/h (3 Bft) 95,83 %
10.04.2016 10:15 8,1 C 92 % 1012,0 hPa 0,0 l/m 6,2 km/h (2 Bft) W 270 0 min 0,000 mm 1,2 UV-I 248 W/m 6,9 C 8,1 C 9,7 km/h (2 Bft) 100,00 %
10.04.2016 10:16 8,1 C 92 % 1012,0 hPa 0,0 l/m 5,2 km/h (1 Bft) S-SW 202 0 min 0,000 mm 1,2 UV-I 256 W/m 6,9 C 8,1 C 6,4 km/h (2 Bft) 100,00 %
10.04.2016 10:17 8,1 C 90 % 1012,0 hPa 0,0 l/m 7,8 km/h (2 Bft) W-SW 240 0 min 0,000 mm 1,3 UV-I 264 W/m 6,6 C 7,0 C 12,9 km/h (3 Bft) 100,00 %
10.04.2016 10:18 8,2 C 91 % 1012,0 hPa 0,0 l/m 7,2 km/h (2 Bft) S-SW 213 0 min 0,000 mm 1,3 UV-I 279 W/m 6,8 C 7,6 C 11,3 km/h (2 Bft) 100,00 %
10.04.2016 10:19 8,2 C 91 % 1012,0 hPa 0,0 l/m 7,7 km/h (2 Bft) S-SO 161 0 min 0,000 mm 1,4 UV-I 297 W/m 6,8 C 7,2 C 12,9 km/h (3 Bft) 100,00 %
10.04.2016 10:20 8,2 C 90 % 1012,0 hPa 0,0 l/m 9,4 km/h (2 Bft) SW 235 0 min 0,000 mm 1,4 UV-I 315 W/m 6,7 C 6,0 C 12,9 km/h (3 Bft) 100,00 %
10.04.2016 10:21 8,2 C 90 % 1012,0 hPa 0,0 l/m 8,6 km/h (2 Bft) SW 231 0 min 0,000 mm 1,4 UV-I 326 W/m 6,7 C 6,5 C 14,5 km/h (3 Bft) 100,00 %
10.04.2016 10:22 8,3 C 91 % 1012,0 hPa 0,0 l/m 11,1 km/h (2 Bft) W-SW 244 1 min 0,000 mm 1,4 UV-I 340 W/m 6,9 C 5,1 C 16,1 km/h (3 Bft) 100,00 %
10.04.2016 10:23 8,3 C 91 % 1012,0 hPa 0,0 l/m 6,5 km/h (2 Bft) SW 216 1 min 0,000 mm 1,5 UV-I 366 W/m 6,9 C 8,2 C 9,7 km/h (2 Bft) 100,00 %
10.04.2016 10:24 8,4 C 91 % 1012,0 hPa 0,0 l/m 10,1 km/h (2 Bft) S-SW 211 1 min 0,000 mm 1,5 UV-I 368 W/m 7,0 C 5,8 C 14,5 km/h (3 Bft) 100,00 %
10.04.2016 10:25 8,5 C 90 % 1012,0 hPa 0,0 l/m 3,9 km/h (1 Bft) W-NW 284 1 min 0,000 mm 1,6 UV-I 378 W/m 7,0 C 8,5 C 4,8 km/h (1 Bft) 100,00 %
10.04.2016 10:26 8,6 C 91 % 1012,0 hPa 0,0 l/m 6,5 km/h (2 Bft) W 279 1 min 0,000 mm 1,6 UV-I 407 W/m 7,2 C 8,5 C 9,7 km/h (2 Bft) 96,15 %
10.04.2016 10:27 8,8 C 91 % 1012,0 hPa 0,0 l/m 7,5 km/h (2 Bft) SW 219 1 min 0,000 mm 1,7 UV-I 441 W/m 7,4 C 8,0 C 11,3 km/h (2 Bft) 100,00 %
10.04.2016 10:28 8,8 C 91 % 1012,0 hPa 0,0 l/m 5,2 km/h (1 Bft) S-SW 202 1 min 0,000 mm 1,7 UV-I 456 W/m 7,4 C 8,8 C 8,0 km/h (2 Bft) 100,00 %
10.04.2016 10:29 8,8 C 89 % 1012,0 hPa 0,0 l/m 8,7 km/h (2 Bft) SW 227 1 min 0,000 mm 1,8 UV-I 443 W/m 7,1 C 7,1 C 17,7 km/h (3 Bft) 100,00 %
10.04.2016 10:30 8,9 C 90 % 1012,0 hPa 0,0 l/m 8,2 km/h (2 Bft) W-SW 246 1 min 0,000 mm 1,7 UV-I 411 W/m 7,4 C 7,6 C 12,9 km/h (3 Bft) 100,00 %
10.04.2016 10:31 8,9 C 90 % 1012,1 hPa 0,0 l/m 13,4 km/h (3 Bft) SW 219 1 min 0,000 mm 1,9 UV-I 448 W/m 7,4 C 4,5 C 17,7 km/h (3 Bft) 100,00 %
10.04.2016 10:32 9,0 C 88 % 1012,1 hPa 0,0 l/m 14,6 km/h (3 Bft) W-SW 252 1 min 0,000 mm 1,9 UV-I 498 W/m 7,1 C 4,1 C 17,7 km/h (3 Bft) 100,00 %
10.04.2016 10:33 9,1 C 88 % 1012,1 hPa 0,0 l/m 9,3 km/h (2 Bft) W 268 1 min 0,000 mm 1,8 UV-I 529 W/m 7,2 C 7,0 C 12,9 km/h (3 Bft) 96,67 %
10.04.2016 10:34 9,0 C 87 % 1012,1 hPa 0,0 l/m 10,7 km/h (2 Bft) W-SW 247 1 min 0,000 mm 1,7 UV-I 414 W/m 7,0 C 6,1 C 14,5 km/h (3 Bft) 100,00 %
10.04.2016 10:35 9,0 C 88 % 1012,1 hPa 0,0 l/m 12,8 km/h (3 Bft) SW 236 0 min 0,000 mm 1,6 UV-I 333 W/m 7,1 C 5,0 C 20,9 km/h (4 Bft) 95,24 %
10.04.2016 10:36 8,9 C 87 % 1012,1 hPa 0,0 l/m 7,3 km/h (2 Bft) W-SW 248 0 min 0,000 mm 1,6 UV-I 312 W/m 6,9 C 8,2 C 11,3 km/h (2 Bft) 90,91 %
10.04.2016 10:37 8,9 C 88 % 1012,1 hPa 0,0 l/m 8,5 km/h (2 Bft) SW 234 0 min 0,000 mm 1,6 UV-I 289 W/m 7,0 C 7,3 C 16,1 km/h (3 Bft) 96,30 %
10.04.2016 10:38 8,8 C 87 % 1012,1 hPa 0,0 l/m 10,8 km/h (2 Bft) SW 231 0 min 0,000 mm 1,6 UV-I 292 W/m 6,8 C 5,8 C 16,1 km/h (3 Bft) 96,88 %
10.04.2016 10:39 8,8 C 87 % 1012,1 hPa 0,0 l/m 11,0 km/h (2 Bft) S-SW 209 0 min 0,000 mm 1,6 UV-I 313 W/m 6,8 C 5,7 C 17,7 km/h (3 Bft) 100,00 %
10.04.2016 10:40 8,8 C 87 % 1012,1 hPa 0,0 l/m 9,6 km/h (2 Bft) W-SW 251 0 min 0,000 mm 1,6 UV-I 335 W/m 6,8 C 6,5 C 16,1 km/h (3 Bft) 95,65 %
10.04.2016 10:41 8,8 C 89 % 1012,1 hPa 0,0 l/m 10,9 km/h (2 Bft) W-SW 243 0 min 0,000 mm 1,6 UV-I 342 W/m 7,1 C 5,7 C 16,1 km/h (3 Bft) 100,00 %
10.04.2016 10:42 8,8 C 89 % 1012,1 hPa 0,0 l/m 9,2 km/h (2 Bft) W 261 0 min 0,000 mm 1,6 UV-I 306 W/m 7,1 C 6,8 C 16,1 km/h (3 Bft) 96,55 %
10.04.2016 10:43 8,9 C 88 % 1012,1 hPa 0,0 l/m 13,5 km/h (3 Bft) W-SW 237 0 min 0,000 mm 1,7 UV-I 338 W/m 7,0 C 4,5 C 19,3 km/h (3 Bft) 96,30 %
10.04.2016 10:44 8,9 C 87 % 1012,1 hPa 0,0 l/m 11,9 km/h (2 Bft) W-SW 244 1 min 0,000 mm 1,7 UV-I 357 W/m 6,9 C 5,3 C 14,5 km/h (3 Bft) 96,15 %
10.04.2016 10:45 8,9 C 88 % 1012,1 hPa 0,0 l/m 10,5 km/h (2 Bft) W-SW 250 0 min 0,000 mm 1,7 UV-I 343 W/m 7,0 C 6,1 C 14,5 km/h (3 Bft) 100,00 %
10.04.2016 10:46 8,9 C 88 % 1012,1 hPa 0,0 l/m 10,3 km/h (2 Bft) SW 232 1 min 0,000 mm 1,7 UV-I 360 W/m 7,0 C 6,2 C 16,1 km/h (3 Bft) 93,10 %
10.04.2016 10:47 9,0 C 88 % 1012,1 hPa 0,0 l/m 10,9 km/h (2 Bft) S-SW 202 1 min 0,000 mm 1,8 UV-I 364 W/m 7,1 C 6,0 C 16,1 km/h (3 Bft) 86,67 %
10.04.2016 10:48 9,1 C 87 % 1012,1 hPa 0,0 l/m 9,6 km/h (2 Bft) W-SW 242 1 min 0,000 mm 1,8 UV-I 365 W/m 7,1 C 6,8 C 16,1 km/h (3 Bft) 96,30 %
10.04.2016 10:49 9,1 C 87 % 1012,1 hPa 0,0 l/m 7,8 km/h (2 Bft) SW 227 1 min 0,000 mm 1,7 UV-I 385 W/m 7,1 C 8,1 C 14,5 km/h (3 Bft) 96,15 %
10.04.2016 10:50 9,1 C 87 % 1012,1 hPa 0,0 l/m 9,9 km/h (2 Bft) S-SW 199 1 min 0,000 mm 1,9 UV-I 437 W/m 7,1 C 6,7 C 14,5 km/h (3 Bft) 100,00 %
10.04.2016 10:51 9,1 C 87 % 1012,1 hPa 0,0 l/m 10,3 km/h (2 Bft) SW 217 1 min 0,000 mm 1,9 UV-I 464 W/m 7,1 C 6,4 C 14,5 km/h (3 Bft) 95,65 %
10.04.2016 10:52 9,1 C 87 % 1012,1 hPa 0,0 l/m 8,0 km/h (2 Bft) W 272 1 min 0,000 mm 1,8 UV-I 464 W/m 7,1 C 7,9 C 14,5 km/h (3 Bft) 100,00 %
10.04.2016 10:53 9,2 C 88 % 1012,1 hPa 0,0 l/m 9,9 km/h (2 Bft) N 349 0 min 0,000 mm 1,6 UV-I 323 W/m 7,3 C 6,8 C 14,5 km/h (3 Bft) 95,65 %
10.04.2016 10:54 9,3 C 88 % 1012,1 hPa 0,0 l/m 9,5 km/h (2 Bft) W-SW 250 0 min 0,000 mm 1,7 UV-I 327 W/m 7,4 C 7,1 C 17,7 km/h (3 Bft) 100,00 %
10.04.2016 10:55 9,3 C 88 % 1012,1 hPa 0,0 l/m 8,2 km/h (2 Bft) S-SW 213 0 min 0,000 mm 1,6 UV-I 294 W/m 7,4 C 8,0 C 12,9 km/h (3 Bft) 96,15 %
10.04.2016 10:56 9,3 C 87 % 1012,1 hPa 0,0 l/m 6,4 km/h (2 Bft) S 178 0 min 0,000 mm 1,5 UV-I 270 W/m 7,2 C 9,3 C 9,7 km/h (2 Bft) 100,00 %
10.04.2016 10:57 9,3 C 86 % 1012,1 hPa 0,0 l/m 6,0 km/h (2 Bft) S-SW 200 0 min 0,000 mm 1,5 UV-I 282 W/m 7,1 C 9,3 C 9,7 km/h (2 Bft) 96,15 %
10.04.2016 10:58 9,2 C 85 % 1012,1 hPa 0,0 l/m 8,1 km/h (2 Bft) S-SW 211 0 min 0,000 mm 1,6 UV-I 298 W/m 6,8 C 7,9 C 12,9 km/h (3 Bft) 92,59 %
10.04.2016 10:59 9,2 C 87 % 1012,1 hPa 0,0 l/m 11,3 km/h (2 Bft) SW 224 0 min 0,000 mm 1,6 UV-I 267 W/m 7,2 C 6,0 C 14,5 km/h (3 Bft) 100,00 %
10.04.2016 11:00 9,2 C 87 % 1012,2 hPa 0,0 l/m 10,3 km/h (2 Bft) W-SW 253 0 min 0,153 mm 1,5 UV-I 252 W/m 7,2 C 6,5 C 14,5 km/h (3 Bft) 96,15 %
10.04.2016 11:01 9,2 C 86 % 1012,1 hPa 0,0 l/m 11,2 km/h (2 Bft) SW 222 0 min 0,000 mm 1,5 UV-I 238 W/m 7,0 C 6,0 C 16,1 km/h (3 Bft) 96,15 %
10.04.2016 11:02 9,2 C 86 % 1012,1 hPa 0,0 l/m 11,6 km/h (2 Bft) S-SW 193 0 min 0,000 mm 1,4 UV-I 238 W/m 7,0 C 5,8 C 19,3 km/h (3 Bft) 96,67 %
10.04.2016 11:03 9,1 C 86 % 1012,1 hPa 0,0 l/m 10,4 km/h (2 Bft) SW 232 0 min 0,000 mm 1,6 UV-I 281 W/m 6,9 C 6,4 C 16,1 km/h (3 Bft) 95,65 %
10.04.2016 11:04 9,1 C 86 % 1012,1 hPa 0,0 l/m 11,3 km/h (2 Bft) SW 230 0 min 0,000 mm 1,7 UV-I 349 W/m 6,9 C 5,9 C 16,1 km/h (3 Bft) 100,00 %
10.04.2016 11:05 9,2 C 87 % 1012,1 hPa 0,0 l/m 11,5 km/h (2 Bft) S-SW 196 1 min 0,000 mm 1,8 UV-I 394 W/m 7,2 C 5,9 C 14,5 km/h (3 Bft) 95,65 %
10.04.2016 11:06 9,3 C 87 % 1012,1 hPa 0,0 l/m 8,0 km/h (2 Bft) W-SW 244 1 min 0,000 mm 1,8 UV-I 444 W/m 7,2 C 8,1 C 11,3 km/h (2 Bft) 100,00 %
10.04.2016 11:07 9,4 C 88 % 1012,1 hPa 0,0 l/m 7,7 km/h (2 Bft) W-SW 248 1 min 0,000 mm 2,1 UV-I 440 W/m 7,5 C 8,4 C 9,7 km/h (2 Bft) 100,00 %
10.04.2016 11:08 9,5 C 88 % 1012,1 hPa 0,0 l/m 5,4 km/h (1 Bft) SW 230 1 min 0,000 mm 1,7 UV-I 375 W/m 7,6 C 9,5 C 8,0 km/h (2 Bft) 100,00 %
10.04.2016 11:09 9,6 C 86 % 1012,1 hPa 0,0 l/m 11,6 km/h (2 Bft) W-SW 241 1 min 0,000 mm 1,9 UV-I 406 W/m 7,4 C 6,3 C 16,1 km/h (3 Bft) 100,00 %
10.04.2016 11:10 9,6 C 87 % 1012,1 hPa 0,0 l/m 10,8 km/h (2 Bft) S-SW 213 1 min 0,000 mm 1,9 UV-I 406 W/m 7,5 C 6,7 C 14,5 km/h (3 Bft) 100,00 %
10.04.2016 11:11 9,7 C 88 % 1012,1 hPa 0,0 l/m 6,0 km/h (2 Bft) W-SW 258 0 min 0,000 mm 1,8 UV-I 374 W/m 7,8 C 9,7 C 12,9 km/h (3 Bft) 95,83 %
10.04.2016 11:12 9,8 C 86 % 1012,1 hPa 0,0 l/m 7,6 km/h (2 Bft) W-SW 254 1 min 0,000 mm 2,1 UV-I 437 W/m 7,6 C 8,9 C 9,7 km/h (2 Bft) 100,00 %
10.04.2016 11:13 9,8 C 87 % 1012,1 hPa 0,0 l/m 6,8 km/h (2 Bft) S-SW 201 1 min 0,000 mm 1,7 UV-I 415 W/m 7,7 C 9,5 C 11,3 km/h (2 Bft) 100,00 %
10.04.2016 11:14 9,9 C 86 % 1012,1 hPa 0,0 l/m 9,1 km/h (2 Bft) W-SW 254 1 min 0,000 mm 1,5 UV-I 390 W/m 7,7 C 8,0 C 16,1 km/h (3 Bft) 100,00 %
10.04.2016 11:15 10,0 C 86 % 1012,1 hPa 0,0 l/m 8,5 km/h (2 Bft) SW 221 1 min 0,000 mm 1,4 UV-I 390 W/m 7,8 C 8,5 C 11,3 km/h (2 Bft) 100,00 %
10.04.2016 11:16 10,0 C 86 % 1012,2 hPa 0,0 l/m 9,3 km/h (2 Bft) SW 220 0 min 0,000 mm 1,2 UV-I 263 W/m 7,8 C 8,0 C 14,5 km/h (3 Bft) 100,00 %
10.04.2016 11:17 9,9 C 85 % 1012,1 hPa 0,0 l/m 9,9 km/h (2 Bft) S-SW 205 0 min 0,000 mm 1,1 UV-I 222 W/m 7,5 C 7,5 C 14,5 km/h (3 Bft) 100,00 %
10.04.2016 11:18 9,9 C 84 % 1012,1 hPa 0,0 l/m 9,7 km/h (2 Bft) SW 227 0 min 0,000 mm 1,1 UV-I 215 W/m 7,3 C 7,7 C 16,1 km/h (3 Bft) 100,00 %
10.04.2016 11:19 9,8 C 83 % 1012,1 hPa 0,0 l/m 10,7 km/h (2 Bft) W-SW 249 0 min 0,000 mm 1,2 UV-I 218 W/m 7,1 C 7,0 C 16,1 km/h (3 Bft) 100,00 %
10.04.2016 11:20 9,7 C 84 % 1012,1 hPa 0,0 l/m 10,2 km/h (2 Bft) S-SW 213 0 min 0,000 mm 1,4 UV-I 236 W/m 7,1 C 7,1 C 17,7 km/h (3 Bft) 98,53 %
10.04.2016 11:21 9,6 C 84 % 1012,1 hPa 0,0 l/m 13,5 km/h (3 Bft) SW 222 0 min 0,000 mm 1,6 UV-I 276 W/m 7,0 C 5,3 C 22,5 km/h (4 Bft) 100,00 %
10.04.2016 11:22 9,5 C 84 % 1012,1 hPa 0,0 l/m 12,1 km/h (2 Bft) W 268 0 min 0,000 mm 1,8 UV-I 331 W/m 6,9 C 5,9 C 17,7 km/h (3 Bft) 100,00 %
10.04.2016 11:23 9,5 C 85 % 1012,1 hPa 0,0 l/m 11,9 km/h (2 Bft) W-SW 239 0 min 0,000 mm 1,8 UV-I 368 W/m 7,1 C 6,0 C 14,5 km/h (3 Bft) 100,00 %
10.04.2016 11:24 9,6 C 85 % 1012,1 hPa 0,0 l/m 10,3 km/h (2 Bft) W-SW 240 1 min 0,000 mm 1,9 UV-I 424 W/m 7,2 C 7,0 C 14,5 km/h (3 Bft) 100,00 %
10.04.2016 11:25 9,6 C 86 % 1012,1 hPa 0,0 l/m 9,9 km/h (2 Bft) W 274 1 min 0,000 mm 2,0 UV-I 462 W/m 7,4 C 7,2 C 17,7 km/h (3 Bft) 100,00 %
10.04.2016 11:26 9,7 C 85 % 1012,1 hPa 0,0 l/m 13,5 km/h (3 Bft) W-SW 238 1 min 0,000 mm 1,9 UV-I 462 W/m 7,3 C 5,4 C 17,7 km/h (3 Bft) 100,00 %
10.04.2016 11:27 9,8 C 85 % 1012,1 hPa 0,0 l/m 6,7 km/h (2 Bft) S-SW 206 0 min 0,000 mm 1,7 UV-I 351 W/m 7,4 C 9,6 C 11,3 km/h (2 Bft) 100,00 %
10.04.2016 11:28 9,8 C 85 % 1012,1 hPa 0,0 l/m 10,5 km/h (2 Bft) SW 221 0 min 0,000 mm 1,7 UV-I 315 W/m 7,4 C 7,1 C 16,1 km/h (3 Bft) 100,00 %
10.04.2016 11:29 9,9 C 85 % 1012,1 hPa 0,0 l/m 9,7 km/h (2 Bft) S-SW 213 0 min 0,000 mm 1,7 UV-I 330 W/m 7,5 C 7,7 C 14,5 km/h (3 Bft) 100,00 %
10.04.2016 11:30 9,9 C 83 % 1012,1 hPa 0,0 l/m 11,2 km/h (2 Bft) SW 234 0 min 0,000 mm 1,7 UV-I 330 W/m 7,2 C 6,8 C 14,5 km/h (3 Bft) 100,00 %
10.04.2016 11:31 10,0 C 84 % 1012,1 hPa 0,0 l/m 9,4 km/h (2 Bft) SW 220 0 min 0,000 mm 1,7 UV-I 323 W/m 7,4 C 8,0 C 16,1 km/h (3 Bft) 100,00 %
10.04.2016 11:32 10,1 C 84 % 1012,1 hPa 0,0 l/m 10,5 km/h (2 Bft) SW 215 0 min 0,000 mm 2,1 UV-I 311 W/m 7,5 C 7,4 C 14,5 km/h (3 Bft) 100,00 %
10.04.2016 11:33 10,2 C 83 % 1012,1 hPa 0,0 l/m 12,8 km/h (3 Bft) W-SW 247 1 min 0,000 mm 2,6 UV-I 631 W/m 7,4 C 6,4 C 17,7 km/h (3 Bft) 100,00 %
10.04.2016 11:34 10,2 C 82 % 1012,1 hPa 0,0 l/m 11,7 km/h (2 Bft) W 281 1 min 0,000 mm 2,7 UV-I 765 W/m 7,3 C 6,9 C 14,5 km/h (3 Bft) 100,00 %
10.04.2016 11:35 10,2 C 83 % 1012,1 hPa 0,0 l/m 6,7 km/h (2 Bft) W 259 1 min 0,000 mm 2,6 UV-I 773 W/m 7,4 C 10,0 C 12,9 km/h (3 Bft) 100,00 %
10.04.2016 11:36 10,3 C 83 % 1012,1 hPa 0,0 l/m 9,9 km/h (2 Bft) W-SW 246 1 min 0,000 mm 2,5 UV-I 740 W/m 7,5 C 8,0 C 14,5 km/h (3 Bft) 100,00 %
10.04.2016 11:37 10,4 C 84 % 1012,1 hPa 0,0 l/m 10,3 km/h (2 Bft) W-SW 248 1 min 0,000 mm 2,4 UV-I 740 W/m 7,8 C 7,9 C 17,7 km/h (3 Bft) 92,86 %
10.04.2016 11:38 10,4 C 82 % 1012,1 hPa 0,0 l/m 13,4 km/h (3 Bft) W-SW 257 1 min 0,000 mm 2,4 UV-I 740 W/m 7,5 C 6,3 C 17,7 km/h (3 Bft) 100,00 %
10.04.2016 11:39 10,4 C 82 % 1012,1 hPa 0,0 l/m 10,0 km/h (2 Bft) W 274 1 min 0,000 mm 2,3 UV-I 542 W/m 7,5 C 8,0 C 12,9 km/h (3 Bft) 100,00 %
10.04.2016 11:40 10,5 C 83 % 1012,1 hPa 0,0 l/m 5,7 km/h (1 Bft) W-SW 258 1 min 0,000 mm 2,0 UV-I 523 W/m 7,7 C 10,5 C 9,7 km/h (2 Bft) 100,00 %
10.04.2016 11:41 10,6 C 83 % 1012,1 hPa 0,0 l/m 4,6 km/h (1 Bft) W-SW 258 1 min 0,000 mm 1,8 UV-I 482 W/m 7,8 C 10,6 C 9,7 km/h (2 Bft) 97,37 %
10.04.2016 11:42 10,6 C 84 % 1012,1 hPa 0,0 l/m 6,5 km/h (2 Bft) W 260 0 min 0,000 mm 2,0 UV-I 335 W/m 8,0 C 10,6 C 11,3 km/h (2 Bft) 100,00 %
10.04.2016 11:43 10,6 C 82 % 1012,1 hPa 0,0 l/m 10,3 km/h (2 Bft) SW 229 0 min 0,000 mm 2,3 UV-I 364 W/m 7,7 C 8,1 C 14,5 km/h (3 Bft) 91,67 %
10.04.2016 11:44 10,4 C 82 % 1012,1 hPa 0,0 l/m 6,6 km/h (2 Bft) W-SW 254 0 min 0,000 mm 2,0 UV-I 364 W/m 7,5 C 10,3 C 11,3 km/h (2 Bft) 100,00 %
10.04.2016 11:45 10,4 C 82 % 1012,0 hPa 0,0 l/m 11,2 km/h (2 Bft) SW 219 0 min 0,000 mm 1,5 UV-I 364 W/m 7,5 C 7,4 C 14,5 km/h (3 Bft) 96,15 %
10.04.2016 11:46 10,4 C 83 % 1012,1 hPa 0,0 l/m 9,3 km/h (2 Bft) S 172 0 min 0,000 mm 1,2 UV-I 224 W/m 7,6 C 8,4 C 11,3 km/h (2 Bft) 100,00 %
10.04.2016 11:47 10,4 C 83 % 1012,1 hPa 0,0 l/m 9,3 km/h (2 Bft) W-NW 286 0 min 0,000 mm 1,1 UV-I 190 W/m 7,6 C 8,4 C 17,7 km/h (3 Bft) 100,00 %
10.04.2016 11:48 10,4 C 81 % 1012,0 hPa 0,0 l/m 13,6 km/h (3 Bft) SW 233 0 min 0,000 mm 1,0 UV-I 182 W/m 7,3 C 6,2 C 20,9 km/h (4 Bft) 100,00 %
10.04.2016 11:49 10,3 C 81 % 1012,0 hPa 0,0 l/m 8,3 km/h (2 Bft) W-SW 246 0 min 0,000 mm 1,0 UV-I 184 W/m 7,2 C 9,0 C 11,3 km/h (2 Bft) 100,00 %
10.04.2016 11:50 10,2 C 82 % 1012,1 hPa 0,0 l/m 9,3 km/h (2 Bft) S-SW 198 0 min 0,000 mm 1,0 UV-I 188 W/m 7,3 C 8,2 C 12,9 km/h (3 Bft) 100,00 %
10.04.2016 11:51 10,2 C 81 % 1012,1 hPa 0,0 l/m 9,6 km/h (2 Bft) W-SW 242 0 min 0,000 mm 1,0 UV-I 182 W/m 7,1 C 8,0 C 16,1 km/h (3 Bft) 100,00 %
10.04.2016 11:52 10,1 C 81 % 1012,1 hPa 0,0 l/m 8,7 km/h (2 Bft) SW 234 0 min 0,000 mm 0,9 UV-I 167 W/m 7,0 C 8,5 C 16,1 km/h (3 Bft) 100,00 %
10.04.2016 11:53 10,1 C 82 % 1012,1 hPa 0,0 l/m 10,5 km/h (2 Bft) W-SW 250 0 min 0,000 mm 0,8 UV-I 154 W/m 7,2 C 7,4 C 12,9 km/h (3 Bft) 100,00 %
10.04.2016 11:54 10,0 C 83 % 1012,1 hPa 0,0 l/m 10,4 km/h (2 Bft) SW 228 0 min 0,000 mm 0,7 UV-I 142 W/m 7,2 C 7,4 C 12,9 km/h (3 Bft) 100,00 %
10.04.2016 11:55 10,0 C 82 % 1012,1 hPa 0,0 l/m 7,2 km/h (2 Bft) W 276 0 min 0,000 mm 0,7 UV-I 129 W/m 7,1 C 9,4 C 12,9 km/h (3 Bft) 100,00 %
10.04.2016 11:56 10,0 C 82 % 1012,1 hPa 0,0 l/m 10,0 km/h (2 Bft) W-SW 246 0 min 0,000 mm 0,6 UV-I 119 W/m 7,1 C 7,6 C 14,5 km/h (3 Bft) 96,55 %
10.04.2016 11:57 10,0 C 82 % 1012,1 hPa 0,0 l/m 9,7 km/h (2 Bft) W-SW 257 0 min 0,000 mm 0,6 UV-I 115 W/m 7,1 C 7,8 C 12,9 km/h (3 Bft) 100,00 %
10.04.2016 11:58 9,9 C 82 % 1012,1 hPa 0,0 l/m 9,8 km/h (2 Bft) W 274 0 min 0,000 mm 0,6 UV-I 113 W/m 7,0 C 7,6 C 11,3 km/h (2 Bft) 96,15 %
10.04.2016 11:59 9,9 C 82 % 1012,1 hPa 0,0 l/m 5,0 km/h (1 Bft) W-SW 240 0 min 0,000 mm 0,6 UV-I 113 W/m 7,0 C 9,9 C 6,4 km/h (2 Bft) 100,00 %
10.04.2016 12:00 9,9 C 81 % 1012,1 hPa 0,0 l/m 4,0 km/h (1 Bft) W-SW 243 0 min 0,000 mm 0,6 UV-I 108 W/m 6,8 C 9,9 C 4,8 km/h (1 Bft) 100,00 %
10.04.2016 12:01 9,9 C 81 % 1012,0 hPa 0,0 l/m 3,3 km/h (1 Bft) W-SW 250 0 min 0,177 mm 0,5 UV-I 96 W/m 6,8 C 9,9 C 4,8 km/h (1 Bft) 96,30 %
10.04.2016 12:02 9,9 C 82 % 1012,1 hPa 0,0 l/m 2,8 km/h (1 Bft) W 273 0 min 0,000 mm 0,3 UV-I 88 W/m 7,0 C 9,9 C 3,2 km/h (1 Bft) 100,00 %
10.04.2016 12:03 9,9 C 82 % 1012,1 hPa 0,0 l/m 6,7 km/h (2 Bft) W 273 0 min 0,000 mm 0,0 UV-I 85 W/m 7,0 C 9,7 C 12,9 km/h (3 Bft) 100,00 %
10.04.2016 12:04 9,9 C 82 % 1012,1 hPa 0,0 l/m 6,7 km/h (2 Bft) W 267 0 min 0,000 mm 0,4 UV-I 93 W/m 7,0 C 9,7 C 12,9 km/h (3 Bft) 95,83 %
10.04.2016 12:05 9,9 C 82 % 1012,1 hPa 0,0 l/m 5,2 km/h (1 Bft) W-SW 242 0 min 0,000 mm 0,6 UV-I 112 W/m 7,0 C 9,9 C 9,7 km/h (2 Bft) 100,00 %
10.04.2016 12:06 9,9 C 83 % 1012,1 hPa 0,0 l/m 5,5 km/h (1 Bft) W 275 0 min 0,000 mm 0,7 UV-I 134 W/m 7,2 C 9,9 C 9,7 km/h (2 Bft) 100,00 %
10.04.2016 12:07 9,9 C 82 % 1012,1 hPa 0,0 l/m 6,8 km/h (2 Bft) W 277 0 min 0,000 mm 0,8 UV-I 146 W/m 7,0 C 9,6 C 11,3 km/h (2 Bft) 100,00 %
10.04.2016 12:08 9,9 C 82 % 1012,1 hPa 0,0 l/m 4,7 km/h (1 Bft) W 271 0 min 0,000 mm 0,8 UV-I 143 W/m 7,0 C 9,9 C 6,4 km/h (2 Bft) 100,00 %
10.04.2016 12:09 9,9 C 82 % 1012,1 hPa 0,0 l/m 5,9 km/h (2 Bft) W-SW 252 0 min 0,000 mm 0,8 UV-I 135 W/m 7,0 C 9,9 C 9,7 km/h (2 Bft) 96,15 %
10.04.2016 12:10 10,0 C 83 % 1012,1 hPa 0,0 l/m 5,2 km/h (1 Bft) SW 233 0 min 0,000 mm 0,8 UV-I 133 W/m 7,2 C 10,0 C 6,4 km/h (2 Bft) 100,00 %
10.04.2016 12:11 10,0 C 83 % 1012,1 hPa 0,0 l/m 5,0 km/h (1 Bft) W-SW 242 0 min 0,000 mm 0,8 UV-I 136 W/m 7,2 C 10,0 C 6,4 km/h (2 Bft) 100,00 %
10.04.2016 12:12 10,0 C 82 % 1012,0 hPa 0,0 l/m 5,5 km/h (1 Bft) W-SW 248 0 min 0,000 mm 0,8 UV-I 137 W/m 7,1 C 10,0 C 8,0 km/h (2 Bft) 100,00 %
10.04.2016 12:13 10,0 C 83 % 1012,0 hPa 0,0 l/m 7,2 km/h (2 Bft) W-SW 248 0 min 0,000 mm 0,8 UV-I 136 W/m 7,2 C 9,4 C 12,9 km/h (3 Bft) 97,56 %
10.04.2016 12:14 10,1 C 82 % 1012,0 hPa 0,0 l/m 7,4 km/h (2 Bft) W-SW 240 0 min 0,000 mm 0,8 UV-I 134 W/m 7,2 C 9,4 C 12,9 km/h (3 Bft) 100,00 %
10.04.2016 12:15 10,0 C 82 % 1012,0 hPa 0,0 l/m 6,9 km/h (2 Bft) W-SW 254 0 min 0,000 mm 0,8 UV-I 136 W/m 7,1 C 9,6 C 9,7 km/h (2 Bft) 100,00 %
10.04.2016 12:16 10,1 C 83 % 1012,0 hPa 0,0 l/m 6,5 km/h (2 Bft) W 279 0 min 0,000 mm 0,9 UV-I 147 W/m 7,3 C 10,1 C 9,7 km/h (2 Bft) 100,00 %
10.04.2016 12:17 10,1 C 83 % 1012,0 hPa 0,0 l/m 7,7 km/h (2 Bft) W-SW 243 0 min 0,000 mm 1,0 UV-I 158 W/m 7,3 C 9,2 C 12,9 km/h (3 Bft) 95,65 %
10.04.2016 12:18 10,1 C 82 % 1012,0 hPa 0,0 l/m 8,0 km/h (2 Bft) W-SW 246 0 min 0,000 mm 1,1 UV-I 174 W/m 7,2 C 9,0 C 12,9 km/h (3 Bft) 100,00 %
10.04.2016 12:19 10,1 C 82 % 1012,0 hPa 0,0 l/m 10,7 km/h (2 Bft) W-SW 242 0 min 0,000 mm 1,2 UV-I 186 W/m 7,2 C 7,3 C 14,5 km/h (3 Bft) 100,00 %
10.04.2016 12:20 10,1 C 81 % 1012,0 hPa 0,0 l/m 7,4 km/h (2 Bft) W 275 0 min 0,000 mm 1,4 UV-I 192 W/m 7,0 C 9,4 C 11,3 km/h (2 Bft) 100,00 %
10.04.2016 12:21 10,1 C 81 % 1012,0 hPa 0,0 l/m 6,2 km/h (2 Bft) W-SW 255 0 min 0,000 mm 1,4 UV-I 192 W/m 7,0 C 10,1 C 9,7 km/h (2 Bft) 100,00 %
10.04.2016 12:22 10,1 C 82 % 1012,0 hPa 0,0 l/m 7,3 km/h (2 Bft) W-SW 250 0 min 0,000 mm 1,5 UV-I 192 W/m 7,2 C 9,4 C 12,9 km/h (3 Bft) 100,00 %
10.04.2016 12:23 10,1 C 82 % 1012,0 hPa 0,0 l/m 5,1 km/h (1 Bft) W-SW 248 0 min 0,000 mm 1,6 UV-I 201 W/m 7,2 C 10,1 C 8,0 km/h (2 Bft) 100,00 %
10.04.2016 12:24 10,1 C 82 % 1012,0 hPa 0,0 l/m 7,9 km/h (2 Bft) W-SW 256 0 min 0,000 mm 1,7 UV-I 213 W/m 7,2 C 9,0 C 12,9 km/h (3 Bft) 100,00 %
10.04.2016 12:25 10,1 C 81 % 1012,0 hPa 0,0 l/m 9,2 km/h (2 Bft) W 259 0 min 0,000 mm 1,9 UV-I 216 W/m 7,0 C 8,2 C 14,5 km/h (3 Bft) 100,00 %
10.04.2016 12:26 10,1 C 81 % 1012,0 hPa 0,0 l/m 7,6 km/h (2 Bft) W-NW 287 0 min 0,000 mm 2,0 UV-I 220 W/m 7,0 C 9,2 C 12,9 km/h (3 Bft) 100,00 %
10.04.2016 12:27 10,2 C 81 % 1012,0 hPa 0,0 l/m 9,4 km/h (2 Bft) SW 218 0 min 0,000 mm 2,2 UV-I 246 W/m 7,1 C 8,2 C 12,9 km/h (3 Bft) 100,00 %
10.04.2016 12:28 10,2 C 82 % 1012,0 hPa 0,0 l/m 8,9 km/h (2 Bft) W 261 0 min 0,000 mm 2,5 UV-I 287 W/m 7,3 C 8,5 C 12,9 km/h (3 Bft) 96,15 %
10.04.2016 12:29 10,3 C 82 % 1012,0 hPa 0,0 l/m 7,6 km/h (2 Bft) W-SW 245 0 min 0,000 mm 3,3 UV-I 287 W/m 7,4 C 9,4 C 12,9 km/h (3 Bft) 100,00 %
10.04.2016 12:30 10,5 C 83 % 1012,0 hPa 0,0 l/m 7,5 km/h (2 Bft) S-SW 207 0 min 0,000 mm 3,3 UV-I 287 W/m 7,7 C 9,7 C 11,3 km/h (2 Bft) 95,65 %
10.04.2016 12:31 10,6 C 81 % 1012,0 hPa 0,0 l/m 10,4 km/h (2 Bft) W-SW 248 1 min 0,000 mm 3,1 UV-I 510 W/m 7,5 C 8,0 C 12,9 km/h (3 Bft) 100,00 %
10.04.2016 12:32 10,7 C 79 % 1012,0 hPa 0,0 l/m 9,3 km/h (2 Bft) S-SW 209 1 min 0,000 mm 2,9 UV-I 596 W/m 7,2 C 8,8 C 12,9 km/h (3 Bft) 96,15 %
10.04.2016 12:33 10,8 C 80 % 1011,9 hPa 0,0 l/m 11,1 km/h (2 Bft) W-SW 250 1 min 0,000 mm 3,2 UV-I 596 W/m 7,5 C 7,9 C 14,5 km/h (3 Bft) 95,83 %
10.04.2016 12:34 10,8 C 80 % 1011,9 hPa 0,0 l/m 7,3 km/h (2 Bft) SW 227 1 min 0,000 mm 3,6 UV-I 605 W/m 7,5 C 10,2 C 12,9 km/h (3 Bft) 100,00 %
10.04.2016 12:35 10,9 C 80 % 1011,9 hPa 0,0 l/m 9,4 km/h (2 Bft) SW 227 1 min 0,000 mm 3,4 UV-I 651 W/m 7,6 C 8,9 C 12,9 km/h (3 Bft) 95,83 %
10.04.2016 12:36 11,0 C 80 % 1012,0 hPa 0,0 l/m 6,3 km/h (2 Bft) S-SW 195 1 min 0,000 mm 3,3 UV-I 686 W/m 7,7 C 11,0 C 11,3 km/h (2 Bft) 96,15 %
10.04.2016 12:37 11,1 C 79 % 1012,0 hPa 0,0 l/m 7,6 km/h (2 Bft) W-SW 246 1 min 0,000 mm 3,5 UV-I 717 W/m 7,6 C 10,3 C 12,9 km/h (3 Bft) 95,83 %
10.04.2016 12:38 11,3 C 80 % 1012,0 hPa 0,0 l/m 4,5 km/h (1 Bft) SW 221 1 min 0,000 mm 3,5 UV-I 743 W/m 8,0 C 11,3 C 11,3 km/h (2 Bft) 100,00 %
10.04.2016 12:39 11,4 C 78 % 1011,9 hPa 0,0 l/m 12,4 km/h (3 Bft) W-SW 240 1 min 0,000 mm 3,1 UV-I 745 W/m 7,7 C 7,9 C 19,3 km/h (3 Bft) 95,12 %
10.04.2016 12:40 11,4 C 78 % 1011,9 hPa 0,0 l/m 6,4 km/h (2 Bft) SW 226 1 min 0,000 mm 3,0 UV-I 745 W/m 7,7 C 11,4 C 9,7 km/h (2 Bft) 100,00 %
10.04.2016 12:41 11,4 C 76 % 1011,9 hPa 0,0 l/m 6,4 km/h (2 Bft) SW 225 1 min 0,000 mm 3,0 UV-I 745 W/m 7,3 C 11,4 C 11,3 km/h (2 Bft) 91,67 %
10.04.2016 12:42 11,4 C 75 % 1011,9 hPa 0,0 l/m 8,4 km/h (2 Bft) W-SW 250 1 min 0,000 mm 3,1 UV-I 678 W/m 7,1 C 10,1 C 14,5 km/h (3 Bft) 97,56 %
10.04.2016 12:43 11,4 C 74 % 1011,9 hPa 0,0 l/m 13,3 km/h (3 Bft) W 268 1 min 0,000 mm 3,2 UV-I 617 W/m 6,9 C 7,5 C 17,7 km/h (3 Bft) 100,00 %
10.04.2016 12:44 11,3 C 73 % 1011,9 hPa 0,0 l/m 8,2 km/h (2 Bft) W-SW 238 1 min 0,000 mm 3,4 UV-I 617 W/m 6,6 C 10,1 C 11,3 km/h (2 Bft) 96,67 %
10.04.2016 12:45 11,5 C 80 % 1011,9 hPa 0,0 l/m 5,8 km/h (2 Bft) W-SW 239 1 min 0,000 mm 3,4 UV-I 851 W/m 8,2 C 11,5 C 8,0 km/h (2 Bft) 96,15 %
10.04.2016 12:46 11,6 C 78 % 1011,9 hPa 0,0 l/m 9,1 km/h (2 Bft) W-SW 239 1 min 0,000 mm 3,6 UV-I 881 W/m 7,9 C 9,9 C 14,5 km/h (3 Bft) 94,44 %
10.04.2016 12:47 11,7 C 74 % 1011,9 hPa 0,0 l/m 12,9 km/h (3 Bft) S-SW 207 1 min 0,000 mm 3,2 UV-I 881 W/m 7,2 C 8,1 C 16,1 km/h (3 Bft) 100,00 %
10.04.2016 12:48 11,7 C 69 % 1011,9 hPa 0,0 l/m 9,3 km/h (2 Bft) W-SW 243 1 min 0,000 mm 3,2 UV-I 881 W/m 6,2 C 9,9 C 12,9 km/h (3 Bft) 95,83 %
10.04.2016 12:49 11,7 C 68 % 1011,9 hPa 0,0 l/m 6,0 km/h (2 Bft) S 169 1 min 0,000 mm 3,4 UV-I 881 W/m 6,0 C 11,7 C 11,3 km/h (2 Bft) 96,15 %
10.04.2016 12:50 11,6 C 69 % 1011,8 hPa 0,0 l/m 5,9 km/h (2 Bft) SW 232 1 min 0,000 mm 3,6 UV-I 878 W/m 6,1 C 11,6 C 9,7 km/h (2 Bft) 100,00 %
10.04.2016 12:51 11,7 C 70 % 1011,8 hPa 0,0 l/m 6,2 km/h (2 Bft) W-SW 244 1 min 0,000 mm 3,6 UV-I 809 W/m 6,4 C 11,7 C 9,7 km/h (2 Bft) 91,30 %
10.04.2016 12:52 11,8 C 71 % 1011,8 hPa 0,0 l/m 5,9 km/h (2 Bft) W 278 1 min 0,000 mm 3,6 UV-I 809 W/m 6,7 C 11,8 C 9,7 km/h (2 Bft) 100,00 %
10.04.2016 12:53 11,9 C 68 % 1011,8 hPa 0,0 l/m 7,0 km/h (2 Bft) W-SW 246 1 min 0,000 mm 3,2 UV-I 823 W/m 6,2 C 11,5 C 11,3 km/h (2 Bft) 92,86 %
10.04.2016 12:54 11,9 C 70 % 1011,8 hPa 0,0 l/m 6,5 km/h (2 Bft) W 264 0 min 0,000 mm 2,6 UV-I 406 W/m 6,6 C 11,9 C 8,0 km/h (2 Bft) 100,00 %
10.04.2016 12:55 12,0 C 69 % 1011,8 hPa 0,0 l/m 6,0 km/h (2 Bft) W-NW 292 0 min 0,000 mm 3,3 UV-I 267 W/m 6,5 C 12,0 C 9,7 km/h (2 Bft) 96,15 %
10.04.2016 12:56 12,1 C 69 % 1011,8 hPa 0,0 l/m 2,4 km/h (1 Bft) W-NW 292 0 min 0,000 mm 3,4 UV-I 323 W/m 6,6 C 12,1 C 6,4 km/h (2 Bft) 100,00 %
10.04.2016 12:57 12,2 C 72 % 1011,8 hPa 0,0 l/m 4,7 km/h (1 Bft) W 261 1 min 0,000 mm 3,5 UV-I 828 W/m 7,3 C 12,2 C 9,7 km/h (2 Bft) 91,30 %
10.04.2016 12:58 12,2 C 69 % 1011,8 hPa 0,0 l/m 8,0 km/h (2 Bft) W-NW 284 1 min 0,000 mm 2,7 UV-I 828 W/m 6,7 C 11,2 C 14,5 km/h (3 Bft) 96,30 %
10.04.2016 12:59 12,2 C 66 % 1011,8 hPa 0,0 l/m 15,3 km/h (3 Bft) W-NW 284 1 min 0,000 mm 3,4 UV-I 828 W/m 6,0 C 7,7 C 20,9 km/h (4 Bft) 100,00 %
10.04.2016 13:00 12,1 C 66 % 1011,8 hPa 0,0 l/m 11,6 km/h (2 Bft) W 272 1 min 0,000 mm 3,9 UV-I 843 W/m 5,9 C 9,1 C 16,1 km/h (3 Bft) 100,00 %
10.04.2016 13:01 12,1 C 65 % 1011,8 hPa 0,0 l/m 11,9 km/h (2 Bft) SW 217 1 min 0,229 mm 3,8 UV-I 837 W/m 5,7 C 9,0 C 19,3 km/h (3 Bft) 100,00 %
10.04.2016 13:02 12,1 C 66 % 1011,8 hPa 0,0 l/m 12,7 km/h (3 Bft) W 279 1 min 0,000 mm 3,7 UV-I 833 W/m 5,9 C 8,6 C 17,7 km/h (3 Bft) 100,00 %
10.04.2016 13:03 12,2 C 65 % 1011,8 hPa 0,0 l/m 6,0 km/h (2 Bft) W-NW 289 1 min 0,000 mm 2,9 UV-I 833 W/m 5,8 C 12,2 C 12,9 km/h (3 Bft) 100,00 %
10.04.2016 13:04 12,2 C 65 % 1011,8 hPa 0,0 l/m 5,3 km/h (1 Bft) NW 311 1 min 0,000 mm 3,4 UV-I 810 W/m 5,8 C 12,2 C 14,5 km/h (3 Bft) 96,15 %
10.04.2016 13:05 12,2 C 67 % 1011,8 hPa 0,0 l/m 7,6 km/h (2 Bft) N-NW 342 1 min 0,000 mm 3,5 UV-I 791 W/m 6,3 C 11,4 C 12,9 km/h (3 Bft) 95,83 %
10.04.2016 13:06 12,3 C 70 % 1011,7 hPa 0,0 l/m 6,3 km/h (2 Bft) W-NW 286 1 min 0,000 mm 3,6 UV-I 781 W/m 7,0 C 12,3 C 12,9 km/h (3 Bft) 100,00 %
10.04.2016 13:07 12,4 C 68 % 1011,8 hPa 0,0 l/m 7,1 km/h (2 Bft) SW 226 1 min 0,000 mm 2,9 UV-I 763 W/m 6,7 C 11,9 C 14,5 km/h (3 Bft) 100,00 %
10.04.2016 13:08 12,4 C 66 % 1011,8 hPa 0,0 l/m 13,0 km/h (3 Bft) SW 224 1 min 0,000 mm 2,4 UV-I 702 W/m 6,2 C 8,8 C 19,3 km/h (3 Bft) 92,31 %
10.04.2016 13:09 12,3 C 65 % 1011,8 hPa 0,0 l/m 15,5 km/h (3 Bft) W-SW 250 0 min 0,000 mm 2,3 UV-I 182 W/m 5,9 C 7,7 C 19,3 km/h (3 Bft) 100,00 %
10.04.2016 13:10 12,1 C 65 % 1011,8 hPa 0,0 l/m 11,9 km/h (2 Bft) W-SW 238 0 min 0,000 mm 2,3 UV-I 181 W/m 5,7 C 9,0 C 16,1 km/h (3 Bft) 100,00 %
10.04.2016 13:11 11,9 C 67 % 1011,8 hPa 0,0 l/m 10,2 km/h (2 Bft) SW 236 0 min 0,000 mm 2,4 UV-I 201 W/m 6,0 C 9,6 C 14,5 km/h (3 Bft) 100,00 %
10.04.2016 13:12 11,8 C 67 % 1011,8 hPa 0,0 l/m 13,0 km/h (3 Bft) W-SW 244 0 min 0,000 mm 3,0 UV-I 218 W/m 5,9 C 8,1 C 16,1 km/h (3 Bft) 100,00 %
10.04.2016 13:13 11,7 C 65 % 1011,8 hPa 0,0 l/m 12,0 km/h (2 Bft) W 264 1 min 0,000 mm 3,6 UV-I 644 W/m 5,3 C 8,5 C 19,3 km/h (3 Bft) 100,00 %
10.04.2016 13:14 11,7 C 65 % 1011,8 hPa 0,0 l/m 11,2 km/h (2 Bft) W 267 1 min 0,000 mm 3,7 UV-I 759 W/m 5,3 C 8,9 C 19,3 km/h (3 Bft) 96,88 %
10.04.2016 13:15 11,7 C 67 % 1011,8 hPa 0,0 l/m 13,1 km/h (3 Bft) W 265 1 min 0,000 mm 3,7 UV-I 765 W/m 5,8 C 8,0 C 19,3 km/h (3 Bft) 100,00 %
10.04.2016 13:16 11,8 C 64 % 1011,8 hPa 0,0 l/m 12,4 km/h (3 Bft) W-NW 285 1 min 0,000 mm 3,7 UV-I 757 W/m 5,2 C 8,4 C 16,1 km/h (3 Bft) 100,00 %
10.04.2016 13:17 11,8 C 63 % 1011,8 hPa 0,0 l/m 13,8 km/h (3 Bft) W 272 1 min 0,000 mm 3,6 UV-I 743 W/m 5,0 C 7,8 C 16,1 km/h (3 Bft) 100,00 %
10.04.2016 13:18 11,9 C 66 % 1011,8 hPa 0,0 l/m 13,0 km/h (3 Bft) W-SW 256 1 min 0,000 mm 3,6 UV-I 739 W/m 5,8 C 8,3 C 17,7 km/h (3 Bft) 90,91 %
10.04.2016 13:19 12,1 C 67 % 1011,8 hPa 0,0 l/m 14,2 km/h (3 Bft) W 263 1 min 0,000 mm 3,6 UV-I 743 W/m 6,2 C 8,0 C 17,7 km/h (3 Bft) 100,00 %
10.04.2016 13:20 12,2 C 64 % 1011,8 hPa 0,0 l/m 9,6 km/h (2 Bft) SW 232 1 min 0,000 mm 3,5 UV-I 737 W/m 5,6 C 10,2 C 12,9 km/h (3 Bft) 100,00 %
10.04.2016 13:21 12,2 C 63 % 1011,8 hPa 0,0 l/m 4,4 km/h (1 Bft) W-SW 246 1 min 0,000 mm 3,5 UV-I 733 W/m 5,4 C 12,2 C 9,7 km/h (2 Bft) 100,00 %
10.04.2016 13:22 12,3 C 65 % 1011,8 hPa 0,0 l/m 11,8 km/h (2 Bft) W-SW 240 1 min 0,000 mm 2,9 UV-I 707 W/m 5,9 C 9,3 C 16,1 km/h (3 Bft) 100,00 %
10.04.2016 13:23 12,2 C 63 % 1011,8 hPa 0,0 l/m 7,6 km/h (2 Bft) W 265 0 min 0,000 mm 2,3 UV-I 337 W/m 5,4 C 11,4 C 12,9 km/h (3 Bft) 100,00 %
10.04.2016 13:24 12,1 C 64 % 1011,8 hPa 0,0 l/m 6,0 km/h (2 Bft) W 264 0 min 0,000 mm 2,2 UV-I 176 W/m 5,5 C 12,1 C 9,7 km/h (2 Bft) 100,00 %
10.04.2016 13:25 12,0 C 67 % 1011,8 hPa 0,0 l/m 8,0 km/h (2 Bft) W 271 0 min 0,000 mm 2,2 UV-I 177 W/m 6,1 C 11,0 C 12,9 km/h (3 Bft) 100,00 %
10.04.2016 13:26 11,9 C 66 % 1011,8 hPa 0,0 l/m 5,1 km/h (1 Bft) W-SW 258 0 min 0,000 mm 2,2 UV-I 190 W/m 5,8 C 11,9 C 9,7 km/h (2 Bft) 100,00 %
10.04.2016 13:27 11,7 C 68 % 1011,8 hPa 0,0 l/m 5,3 km/h (1 Bft) W-SW 254 0 min 0,000 mm 2,2 UV-I 180 W/m 6,0 C 11,7 C 6,4 km/h (2 Bft) 100,00 %
10.04.2016 13:28 11,7 C 67 % 1011,8 hPa 0,0 l/m 6,8 km/h (2 Bft) W-SW 251 0 min 0,000 mm 2,2 UV-I 177 W/m 5,8 C 11,4 C 11,3 km/h (2 Bft) 100,00 %
10.04.2016 13:29 11,6 C 67 % 1011,8 hPa 0,0 l/m 5,9 km/h (2 Bft) W 264 0 min 0,000 mm 2,2 UV-I 177 W/m 5,7 C 11,6 C 11,3 km/h (2 Bft) 100,00 %
10.04.2016 13:30 11,4 C 65 % 1011,8 hPa 0,0 l/m 8,0 km/h (2 Bft) W-SW 249 0 min 0,000 mm 2,3 UV-I 181 W/m 5,1 C 10,3 C 11,3 km/h (2 Bft) 100,00 %
10.04.2016 13:31 11,4 C 67 % 1011,8 hPa 0,0 l/m 4,3 km/h (1 Bft) W 267 0 min 0,000 mm 2,3 UV-I 190 W/m 5,5 C 11,4 C 11,3 km/h (2 Bft) 100,00 %
10.04.2016 13:32 11,3 C 67 % 1011,8 hPa 0,0 l/m 10,5 km/h (2 Bft) W 263 0 min 0,000 mm 2,6 UV-I 246 W/m 5,4 C 8,8 C 16,1 km/h (3 Bft) 95,83 %
10.04.2016 13:33 11,3 C 65 % 1011,8 hPa 0,0 l/m 10,1 km/h (2 Bft) W 264 0 min 0,000 mm 3,3 UV-I 301 W/m 5,0 C 9,0 C 16,1 km/h (3 Bft) 100,00 %
10.04.2016 13:34 11,3 C 65 % 1011,8 hPa 0,0 l/m 7,2 km/h (2 Bft) W 265 0 min 0,000 mm 3,3 UV-I 301 W/m 5,0 C 10,8 C 11,3 km/h (2 Bft) 100,00 %
10.04.2016 13:35 11,4 C 68 % 1011,8 hPa 0,0 l/m 7,9 km/h (2 Bft) W 263 1 min 0,000 mm 3,5 UV-I 579 W/m 5,7 C 10,4 C 11,3 km/h (2 Bft) 100,00 %
10.04.2016 13:36 11,6 C 66 % 1011,8 hPa 0,0 l/m 9,7 km/h (2 Bft) W-SW 248 1 min 0,000 mm 3,6 UV-I 736 W/m 5,5 C 9,5 C 12,9 km/h (3 Bft) 100,00 %
10.04.2016 13:37 11,6 C 63 % 1011,8 hPa 0,0 l/m 10,1 km/h (2 Bft) W-SW 252 1 min 0,000 mm 3,6 UV-I 747 W/m 4,8 C 9,3 C 14,5 km/h (3 Bft) 100,00 %
10.04.2016 13:38 11,7 C 64 % 1011,8 hPa 0,0 l/m 6,8 km/h (2 Bft) W 274 1 min 0,000 mm 3,7 UV-I 755 W/m 5,1 C 11,4 C 8,0 km/h (2 Bft) 100,00 %
10.04.2016 13:39 11,7 C 64 % 1011,7 hPa 0,0 l/m 5,8 km/h (2 Bft) W-SW 247 1 min 0,000 mm 3,7 UV-I 747 W/m 5,1 C 11,7 C 14,5 km/h (3 Bft) 100,00 %
10.04.2016 13:40 11,8 C 64 % 1011,8 hPa 0,0 l/m 9,9 km/h (2 Bft) SW 230 1 min 0,000 mm 3,7 UV-I 739 W/m 5,2 C 9,6 C 12,9 km/h (3 Bft) 100,00 %
10.04.2016 13:41 11,9 C 65 % 1011,7 hPa 0,0 l/m 7,9 km/h (2 Bft) W-SW 240 1 min 0,000 mm 3,7 UV-I 731 W/m 5,5 C 10,9 C 12,9 km/h (3 Bft) 100,00 %
10.04.2016 13:42 12,0 C 64 % 1011,7 hPa 0,0 l/m 9,5 km/h (2 Bft) SW 234 1 min 0,000 mm 3,6 UV-I 721 W/m 5,4 C 10,1 C 16,1 km/h (3 Bft) 100,00 %
10.04.2016 13:43 12,1 C 64 % 1011,7 hPa 0,0 l/m 8,9 km/h (2 Bft) W-SW 252 1 min 0,000 mm 3,6 UV-I 715 W/m 5,5 C 10,5 C 14,5 km/h (3 Bft) 100,00 %
10.04.2016 13:44 12,1 C 64 % 1011,7 hPa 0,0 l/m 9,5 km/h (2 Bft) S 169 1 min 0,000 mm 3,6 UV-I 716 W/m 5,5 C 10,2 C 14,5 km/h (3 Bft) 100,00 %
10.04.2016 13:45 12,1 C 63 % 1011,6 hPa 0,0 l/m 11,0 km/h (2 Bft) S 178 1 min 0,000 mm 3,7 UV-I 730 W/m 5,3 C 9,4 C 14,5 km/h (3 Bft) 100,00 %
10.04.2016 13:46 12,1 C 61 % 1011,7 hPa 0,0 l/m 9,7 km/h (2 Bft) S 186 1 min 0,000 mm 3,7 UV-I 739 W/m 4,8 C 10,1 C 12,9 km/h (3 Bft) 100,00 %
10.04.2016 13:47 12,0 C 63 % 1011,7 hPa 0,0 l/m 7,4 km/h (2 Bft) W-SW 250 1 min 0,000 mm 3,7 UV-I 745 W/m 5,2 C 11,3 C 9,7 km/h (2 Bft) 100,00 %
10.04.2016 13:48 12,1 C 67 % 1011,6 hPa 0,0 l/m 8,9 km/h (2 Bft) W-SW 253 1 min 0,000 mm 3,7 UV-I 755 W/m 6,2 C 10,5 C 11,3 km/h (2 Bft) 96,15 %
10.04.2016 13:49 12,3 C 69 % 1011,7 hPa 0,0 l/m 7,7 km/h (2 Bft) SW 221 1 min 0,000 mm 3,7 UV-I 757 W/m 6,8 C 11,5 C 11,3 km/h (2 Bft) 95,83 %
10.04.2016 13:50 12,5 C 65 % 1011,6 hPa 0,0 l/m 8,8 km/h (2 Bft) W-SW 254 1 min 0,000 mm 3,7 UV-I 736 W/m 6,1 C 11,0 C 12,9 km/h (3 Bft) 100,00 %
10.04.2016 13:51 12,6 C 62 % 1011,7 hPa 0,0 l/m 4,4 km/h (1 Bft) W 261 1 min 0,000 mm 3,7 UV-I 739 W/m 5,5 C 12,6 C 11,3 km/h (2 Bft) 100,00 %
10.04.2016 13:52 12,5 C 60 % 1011,7 hPa 0,0 l/m 3,2 km/h (1 Bft) N-NO 30 1 min 0,000 mm 3,7 UV-I 740 W/m 5,0 C 12,5 C 8,0 km/h (2 Bft) 95,65 %
10.04.2016 13:53 12,4 C 63 % 1011,6 hPa 0,0 l/m 2,8 km/h (1 Bft) S-SW 193 1 min 0,000 mm 3,8 UV-I 763 W/m 5,6 C 12,4 C 6,4 km/h (2 Bft) 95,83 %
10.04.2016 13:54 12,5 C 62 % 1011,6 hPa 0,0 l/m 7,9 km/h (2 Bft) W-NW 284 1 min 0,000 mm 3,8 UV-I 780 W/m 5,4 C 11,5 C 12,9 km/h (3 Bft) 100,00 %
10.04.2016 13:55 12,6 C 61 % 1011,6 hPa 0,0 l/m 11,5 km/h (2 Bft) SW 224 1 min 0,000 mm 3,8 UV-I 794 W/m 5,3 C 9,7 C 14,5 km/h (3 Bft) 100,00 %
10.04.2016 13:56 12,7 C 66 % 1011,5 hPa 0,0 l/m 11,4 km/h (2 Bft) S-SW 200 1 min 0,000 mm 3,8 UV-I 799 W/m 6,5 C 9,9 C 14,5 km/h (3 Bft) 100,00 %
10.04.2016 13:57 12,7 C 60 % 1011,6 hPa 0,0 l/m 9,5 km/h (2 Bft) W-SW 237 1 min 0,000 mm 3,8 UV-I 794 W/m 5,1 C 10,8 C 16,1 km/h (3 Bft) 100,00 %
10.04.2016 13:58 12,7 C 61 % 1011,6 hPa 0,0 l/m 9,9 km/h (2 Bft) W-SW 246 1 min 0,000 mm 3,7 UV-I 794 W/m 5,4 C 10,6 C 16,1 km/h (3 Bft) 100,00 %
10.04.2016 13:59 12,8 C 63 % 1011,5 hPa 0,0 l/m 14,6 km/h (3 Bft) W-SW 255 1 min 0,000 mm 3,7 UV-I 719 W/m 5,9 C 8,7 C 19,3 km/h (3 Bft) 100,00 %
10.04.2016 14:00 12,9 C 60 % 1011,6 hPa 0,0 l/m 10,9 km/h (2 Bft) W-SW 254 1 min 0,330 mm 3,6 UV-I 787 W/m 5,3 C 10,4 C 14,5 km/h (3 Bft) 100,00 %
10.04.2016 14:01 12,9 C 56 % 1011,6 hPa 0,0 l/m 10,6 km/h (2 Bft) W 260 1 min 0,000 mm 3,4 UV-I 791 W/m 4,3 C 10,5 C 14,5 km/h (3 Bft) 100,00 %
10.04.2016 14:02 12,8 C 58 % 1011,5 hPa 0,0 l/m 9,6 km/h (2 Bft) W-SW 249 1 min 0,000 mm 3,1 UV-I 791 W/m 4,7 C 10,9 C 14,5 km/h (3 Bft) 93,33 %
10.04.2016 14:03 12,8 C 59 % 1011,5 hPa 0,0 l/m 15,4 km/h (3 Bft) W-SW 237 1 min 0,000 mm 3,6 UV-I 791 W/m 5,0 C 8,4 C 25,7 km/h (4 Bft) 100,00 %
10.04.2016 14:04 12,8 C 59 % 1011,4 hPa 0,0 l/m 13,6 km/h (3 Bft) W 271 1 min 0,000 mm 3,7 UV-I 800 W/m 5,0 C 9,1 C 25,7 km/h (4 Bft) 100,00 %
10.04.2016 14:05 12,9 C 59 % 1011,5 hPa 0,0 l/m 7,7 km/h (2 Bft) W 263 1 min 0,000 mm 3,7 UV-I 808 W/m 5,1 C 12,1 C 14,5 km/h (3 Bft) 100,00 %
10.04.2016 14:06 12,9 C 56 % 1011,5 hPa 0,0 l/m 11,7 km/h (2 Bft) SW 236 1 min 0,000 mm 3,7 UV-I 809 W/m 4,3 C 10,0 C 16,1 km/h (3 Bft) 100,00 %
10.04.2016 14:07 12,9 C 58 % 1011,5 hPa 0,0 l/m 12,2 km/h (2 Bft) W-NW 285 1 min 0,000 mm 3,7 UV-I 810 W/m 4,8 C 9,8 C 17,7 km/h (3 Bft) 100,00 %
10.04.2016 14:08 12,9 C 58 % 1011,5 hPa 0,0 l/m 10,9 km/h (2 Bft) W-SW 255 1 min 0,000 mm 2,8 UV-I 713 W/m 4,8 C 10,4 C 16,1 km/h (3 Bft) 100,00 %
10.04.2016 14:09 12,8 C 58 % 1011,5 hPa 0,0 l/m 10,0 km/h (2 Bft) W-NW 288 0 min 0,000 mm 2,7 UV-I 325 W/m 4,7 C 10,7 C 14,5 km/h (3 Bft) 100,00 %
10.04.2016 14:10 12,8 C 56 % 1011,5 hPa 0,0 l/m 9,5 km/h (2 Bft) W-NW 290 0 min 0,000 mm 3,0 UV-I 320 W/m 4,2 C 10,9 C 14,5 km/h (3 Bft) 100,00 %
10.04.2016 14:11 12,7 C 58 % 1011,5 hPa 0,0 l/m 11,9 km/h (2 Bft) SW 225 0 min 0,000 mm 3,5 UV-I 320 W/m 4,7 C 9,7 C 17,7 km/h (3 Bft) 100,00 %
10.04.2016 14:12 12,8 C 60 % 1011,4 hPa 0,0 l/m 15,6 km/h (3 Bft) W-SW 242 1 min 0,000 mm 3,6 UV-I 765 W/m 5,2 C 8,3 C 17,7 km/h (3 Bft) 100,00 %
10.04.2016 14:13 12,8 C 60 % 1011,4 hPa 0,0 l/m 10,5 km/h (2 Bft) SW 226 1 min 0,000 mm 3,6 UV-I 797 W/m 5,2 C 10,4 C 16,1 km/h (3 Bft) 100,00 %
10.04.2016 14:14 12,9 C 63 % 1011,4 hPa 0,0 l/m 10,9 km/h (2 Bft) S 178 1 min 0,000 mm 3,7 UV-I 818 W/m 6,0 C 10,4 C 14,5 km/h (3 Bft) 100,00 %
10.04.2016 14:15 12,9 C 60 % 1011,4 hPa 0,0 l/m 6,2 km/h (2 Bft) SO 145 1 min 0,000 mm 3,8 UV-I 843 W/m 5,3 C 12,9 C 9,7 km/h (2 Bft) 96,55 %
10.04.2016 14:16 12,8 C 59 % 1011,4 hPa 0,0 l/m 5,5 km/h (1 Bft) W-NW 295 1 min 0,000 mm 3,7 UV-I 838 W/m 5,0 C 12,8 C 8,0 km/h (2 Bft) 91,67 %
10.04.2016 14:17 12,8 C 61 % 1011,4 hPa 0,0 l/m 4,4 km/h (1 Bft) W 263 1 min 0,000 mm 3,7 UV-I 845 W/m 5,5 C 12,8 C 6,4 km/h (2 Bft) 96,15 %
10.04.2016 14:18 13,0 C 66 % 1011,4 hPa 0,0 l/m 4,9 km/h (1 Bft) W-SW 254 1 min 0,000 mm 3,8 UV-I 862 W/m 6,8 C 13,0 C 14,5 km/h (3 Bft) 100,00 %
10.04.2016 14:19 13,2 C 64 % 1011,4 hPa 0,0 l/m 10,5 km/h (2 Bft) W-SW 254 1 min 0,000 mm 3,8 UV-I 869 W/m 6,5 C 10,9 C 14,5 km/h (3 Bft) 91,67 %
10.04.2016 14:20 13,2 C 60 % 1011,4 hPa 0,0 l/m 8,5 km/h (2 Bft) NW 318 1 min 0,000 mm 3,8 UV-I 868 W/m 5,6 C 11,9 C 14,5 km/h (3 Bft) 96,88 %
10.04.2016 14:21 13,3 C 61 % 1011,4 hPa 0,0 l/m 9,1 km/h (2 Bft) W-SW 246 1 min 0,000 mm 3,8 UV-I 874 W/m 5,9 C 11,7 C 12,9 km/h (3 Bft) 91,67 %
10.04.2016 14:22 13,3 C 61 % 1011,3 hPa 0,0 l/m 5,9 km/h (2 Bft) W 271 1 min 0,000 mm 3,7 UV-I 868 W/m 5,9 C 13,3 C 9,7 km/h (2 Bft) 100,00 %
10.04.2016 14:23 13,4 C 60 % 1011,3 hPa 0,0 l/m 8,0 km/h (2 Bft) S-SO 163 1 min 0,000 mm 3,6 UV-I 858 W/m 5,8 C 12,4 C 22,5 km/h (4 Bft) 96,30 %
10.04.2016 14:24 13,6 C 61 % 1011,2 hPa 0,0 l/m 13,5 km/h (3 Bft) SW 233 1 min 0,000 mm 3,5 UV-I 850 W/m 6,2 C 10,1 C 27,4 km/h (4 Bft) 96,15 %
10.04.2016 14:25 13,7 C 62 % 1011,3 hPa 0,0 l/m 10,0 km/h (2 Bft) SW 236 1 min 0,000 mm 3,4 UV-I 834 W/m 6,6 C 11,7 C 16,1 km/h (3 Bft) 100,00 %
10.04.2016 14:26 13,7 C 61 % 1011,3 hPa 0,0 l/m 8,0 km/h (2 Bft) W-SW 244 1 min 0,000 mm 3,1 UV-I 826 W/m 6,3 C 12,7 C 11,3 km/h (2 Bft) 96,15 %
10.04.2016 14:27 13,7 C 57 % 1011,3 hPa 0,0 l/m 9,0 km/h (2 Bft) S-SW 198 1 min 0,000 mm 2,7 UV-I 826 W/m 5,3 C 12,2 C 12,9 km/h (3 Bft) 96,30 %
10.04.2016 14:28 13,5 C 58 % 1011,3 hPa 0,0 l/m 4,0 km/h (1 Bft) W 263 1 min 0,000 mm 2,9 UV-I 599 W/m 5,4 C 13,5 C 8,0 km/h (2 Bft) 96,15 %
10.04.2016 14:29 13,6 C 62 % 1011,3 hPa 0,0 l/m 6,8 km/h (2 Bft) W-SW 254 1 min 0,000 mm 3,3 UV-I 448 W/m 6,5 C 13,4 C 12,9 km/h (3 Bft) 100,00 %
10.04.2016 14:30 13,6 C 58 % 1011,3 hPa 0,0 l/m 7,3 km/h (2 Bft) W-SW 254 1 min 0,000 mm 3,4 UV-I 841 W/m 5,5 C 13,0 C 16,1 km/h (3 Bft) 96,15 %
10.04.2016 14:31 13,6 C 59 % 1011,3 hPa 0,0 l/m 7,8 km/h (2 Bft) W 260 1 min 0,000 mm 3,4 UV-I 826 W/m 5,7 C 12,7 C 14,5 km/h (3 Bft) 100,00 %
10.04.2016 14:32 13,6 C 58 % 1011,3 hPa 0,0 l/m 11,0 km/h (2 Bft) W-SW 238 1 min 0,000 mm 3,4 UV-I 830 W/m 5,5 C 11,1 C 16,1 km/h (3 Bft) 96,15 %
10.04.2016 14:33 13,7 C 62 % 1011,3 hPa 0,0 l/m 11,4 km/h (2 Bft) W 259 1 min 0,000 mm 3,1 UV-I 839 W/m 6,6 C 11,0 C 17,7 km/h (3 Bft) 100,00 %
10.04.2016 14:34 13,8 C 64 % 1011,2 hPa 0,0 l/m 11,9 km/h (2 Bft) W-SW 238 1 min 0,000 mm 3,2 UV-I 847 W/m 7,1 C 10,9 C 16,1 km/h (3 Bft) 96,67 %
10.04.2016 14:35 13,8 C 58 % 1011,3 hPa 0,0 l/m 11,3 km/h (2 Bft) SW 227 1 min 0,000 mm 3,4 UV-I 847 W/m 5,7 C 11,2 C 16,1 km/h (3 Bft) 100,00 %
10.04.2016 14:36 13,7 C 57 % 1011,3 hPa 0,0 l/m 12,6 km/h (3 Bft) W-SW 240 1 min 0,000 mm 3,5 UV-I 823 W/m 5,3 C 10,5 C 16,1 km/h (3 Bft) 96,77 %
10.04.2016 14:37 13,6 C 57 % 1011,2 hPa 0,0 l/m 9,4 km/h (2 Bft) SW 229 1 min 0,000 mm 3,5 UV-I 823 W/m 5,2 C 11,9 C 14,5 km/h (3 Bft) 90,00 %
10.04.2016 14:38 13,3 C 56 % 1011,2 hPa 0,0 l/m 10,9 km/h (2 Bft) W-SW 246 1 min 0,000 mm 3,5 UV-I 819 W/m 4,7 C 10,8 C 12,9 km/h (3 Bft) 100,00 %
10.04.2016 14:39 13,4 C 59 % 1011,2 hPa 0,0 l/m 12,6 km/h (3 Bft) W-SW 239 1 min 0,000 mm 3,5 UV-I 815 W/m 5,6 C 10,2 C 19,3 km/h (3 Bft) 96,15 %
10.04.2016 14:40 13,4 C 59 % 1011,2 hPa 0,0 l/m 12,9 km/h (3 Bft) W-SW 249 1 min 0,000 mm 3,4 UV-I 806 W/m 5,6 C 10,1 C 14,5 km/h (3 Bft) 100,00 %
10.04.2016 14:41 13,4 C 56 % 1011,2 hPa 0,0 l/m 9,7 km/h (2 Bft) W-SW 257 1 min 0,000 mm 3,3 UV-I 803 W/m 4,8 C 11,5 C 16,1 km/h (3 Bft) 96,15 %
10.04.2016 14:42 13,3 C 56 % 1011,2 hPa 0,0 l/m 11,4 km/h (2 Bft) S-SW 204 1 min 0,000 mm 3,3 UV-I 810 W/m 4,7 C 10,6 C 19,3 km/h (3 Bft) 96,30 %
10.04.2016 14:43 13,3 C 56 % 1011,2 hPa 0,0 l/m 13,4 km/h (3 Bft) S-SW 198 1 min 0,000 mm 3,1 UV-I 812 W/m 4,7 C 9,7 C 20,9 km/h (4 Bft) 100,00 %
10.04.2016 14:44 13,1 C 56 % 1011,2 hPa 0,0 l/m 11,3 km/h (2 Bft) SW 235 1 min 0,000 mm 2,3 UV-I 812 W/m 4,5 C 10,4 C 16,1 km/h (3 Bft) 100,00 %
10.04.2016 14:45 13,0 C 56 % 1011,2 hPa 0,0 l/m 12,2 km/h (2 Bft) W-SW 258 1 min 0,000 mm 2,2 UV-I 535 W/m 4,4 C 9,9 C 16,1 km/h (3 Bft) 92,31 %
10.04.2016 14:46 12,8 C 58 % 1011,2 hPa 0,0 l/m 7,1 km/h (2 Bft) SW 226 0 min 0,000 mm 2,0 UV-I 245 W/m 4,7 C 12,4 C 11,3 km/h (2 Bft) 96,67 %
10.04.2016 14:47 12,8 C 59 % 1011,2 hPa 0,0 l/m 8,4 km/h (2 Bft) SW 232 0 min 0,000 mm 1,9 UV-I 238 W/m 5,0 C 11,6 C 12,9 km/h (3 Bft) 100,00 %
10.04.2016 14:48 12,7 C 61 % 1011,2 hPa 0,0 l/m 8,9 km/h (2 Bft) W-SW 237 0 min 0,000 mm 1,9 UV-I 235 W/m 5,4 C 11,2 C 12,9 km/h (3 Bft) 100,00 %
10.04.2016 14:49 12,7 C 60 % 1011,2 hPa 0,0 l/m 8,9 km/h (2 Bft) W-SW 250 0 min 0,000 mm 1,9 UV-I 236 W/m 5,1 C 11,2 C 12,9 km/h (3 Bft) 100,00 %
10.04.2016 14:50 12,6 C 62 % 1011,2 hPa 0,0 l/m 9,0 km/h (2 Bft) W 265 0 min 0,000 mm 1,8 UV-I 247 W/m 5,5 C 11,0 C 11,3 km/h (2 Bft) 100,00 %
10.04.2016 14:51 12,7 C 64 % 1011,3 hPa 0,0 l/m 8,9 km/h (2 Bft) W-SW 240 0 min 0,000 mm 1,9 UV-I 261 W/m 6,1 C 11,2 C 12,9 km/h (3 Bft) 95,65 %
10.04.2016 14:52 12,7 C 60 % 1011,3 hPa 0,0 l/m 10,8 km/h (2 Bft) W-SW 246 0 min 0,000 mm 2,1 UV-I 264 W/m 5,1 C 10,2 C 14,5 km/h (3 Bft) 100,00 %
10.04.2016 14:53 12,7 C 60 % 1011,3 hPa 0,0 l/m 6,5 km/h (2 Bft) W-SW 257 0 min 0,000 mm 2,0 UV-I 339 W/m 5,1 C 12,7 C 9,7 km/h (2 Bft) 100,00 %
10.04.2016 14:54 12,7 C 62 % 1011,3 hPa 0,0 l/m 6,4 km/h (2 Bft) SW 236 0 min 0,000 mm 1,9 UV-I 265 W/m 5,6 C 12,7 C 8,0 km/h (2 Bft) 100,00 %
10.04.2016 14:55 12,7 C 58 % 1011,3 hPa 0,0 l/m 6,2 km/h (2 Bft) W-SW 238 0 min 0,000 mm 1,9 UV-I 274 W/m 4,7 C 12,7 C 9,7 km/h (2 Bft) 96,15 %
10.04.2016 14:56 12,6 C 58 % 1011,3 hPa 0,0 l/m 6,5 km/h (2 Bft) W 281 0 min 0,000 mm 2,0 UV-I 282 W/m 4,6 C 12,6 C 9,7 km/h (2 Bft) 100,00 %
10.04.2016 14:57 12,6 C 59 % 1011,3 hPa 0,0 l/m 5,6 km/h (1 Bft) W-NW 289 0 min 0,000 mm 1,9 UV-I 268 W/m 4,8 C 12,6 C 11,3 km/h (2 Bft) 100,00 %
10.04.2016 14:58 12,6 C 60 % 1011,3 hPa 0,0 l/m 6,3 km/h (2 Bft) W-SW 241 0 min 0,000 mm 1,9 UV-I 261 W/m 5,0 C 12,6 C 9,7 km/h (2 Bft) 100,00 %
10.04.2016 14:59 12,5 C 59 % 1011,3 hPa 0,0 l/m 7,1 km/h (2 Bft) S-SW 192 0 min 0,000 mm 1,9 UV-I 252 W/m 4,7 C 12,0 C 11,3 km/h (2 Bft) 100,00 %
10.04.2016 15:00 12,5 C 61 % 1011,3 hPa 0,0 l/m 5,7 km/h (1 Bft) S-SW 194 0 min 0,000 mm 1,9 UV-I 246 W/m 5,2 C 12,5 C 8,0 km/h (2 Bft) 100,00 %
10.04.2016 15:01 12,5 C 61 % 1011,3 hPa 0,0 l/m 5,6 km/h (1 Bft) SW 215 0 min 0,356 mm 1,9 UV-I 245 W/m 5,2 C 12,5 C 11,3 km/h (2 Bft) 95,83 %
10.04.2016 15:02 12,5 C 61 % 1011,3 hPa 0,0 l/m 8,1 km/h (2 Bft) W-SW 240 0 min 0,000 mm 1,9 UV-I 250 W/m 5,2 C 11,4 C 11,3 km/h (2 Bft) 100,00 %
10.04.2016 15:03 12,6 C 60 % 1011,2 hPa 0,0 l/m 12,1 km/h (2 Bft) W-NW 286 0 min 0,000 mm 2,0 UV-I 258 W/m 5,0 C 9,5 C 19,3 km/h (3 Bft) 100,00 %
10.04.2016 15:04 12,6 C 61 % 1011,3 hPa 0,0 l/m 5,9 km/h (2 Bft) W-NW 302 0 min 0,000 mm 2,4 UV-I 260 W/m 5,3 C 12,6 C 8,0 km/h (2 Bft) 95,65 %
10.04.2016 15:05 12,7 C 59 % 1011,3 hPa 0,0 l/m 6,0 km/h (2 Bft) NW 307 1 min 0,000 mm 2,6 UV-I 674 W/m 4,9 C 12,7 C 9,7 km/h (2 Bft) 100,00 %
10.04.2016 15:06 12,7 C 56 % 1011,2 hPa 0,0 l/m 3,8 km/h (1 Bft) W-NW 288 1 min 0,000 mm 2,1 UV-I 639 W/m 4,2 C 12,7 C 8,0 km/h (2 Bft) 100,00 %
10.04.2016 15:07 12,7 C 58 % 1011,3 hPa 0,0 l/m 0,4 km/h (0 Bft) NW 317 0 min 0,000 mm 2,0 UV-I 250 W/m 4,7 C 12,7 C 1,6 km/h (1 Bft) 100,00 %
10.04.2016 15:08 12,8 C 59 % 1011,2 hPa 0,0 l/m 1,8 km/h (1 Bft) W 279 0 min 0,000 mm 2,0 UV-I 255 W/m 5,0 C 12,8 C 3,2 km/h (1 Bft) 100,00 %
10.04.2016 15:09 12,8 C 57 % 1011,2 hPa 0,0 l/m 4,4 km/h (1 Bft) NW 309 0 min 0,000 mm 2,0 UV-I 265 W/m 4,5 C 12,8 C 6,4 km/h (2 Bft) 100,00 %
10.04.2016 15:10 12,8 C 55 % 1011,2 hPa 0,0 l/m 2,7 km/h (1 Bft) NW 306 0 min 0,000 mm 2,4 UV-I 293 W/m 4,0 C 12,8 C 4,8 km/h (1 Bft) 100,00 %
10.04.2016 15:11 12,8 C 58 % 1011,2 hPa 0,0 l/m 2,8 km/h (1 Bft) W-SW 254 0 min 0,000 mm 2,5 UV-I 353 W/m 4,7 C 12,8 C 4,8 km/h (1 Bft) 100,00 %
10.04.2016 15:12 12,8 C 55 % 1011,2 hPa 0,0 l/m 2,6 km/h (1 Bft) W-SW 254 1 min 0,000 mm 2,4 UV-I 667 W/m 4,0 C 12,8 C 4,8 km/h (1 Bft) 100,00 %
10.04.2016 15:13 12,9 C 59 % 1011,2 hPa 0,0 l/m 2,9 km/h (1 Bft) S-SW 210 1 min 0,000 mm 2,6 UV-I 712 W/m 5,1 C 12,9 C 4,8 km/h (1 Bft) 100,00 %
10.04.2016 15:14 12,9 C 57 % 1011,2 hPa 0,0 l/m 1,5 km/h (1 Bft) S-SW 210 1 min 0,000 mm 2,3 UV-I 705 W/m 4,6 C 12,9 C 4,8 km/h (1 Bft) 100,00 %
10.04.2016 15:15 12,8 C 56 % 1011,2 hPa 0,0 l/m 0,6 km/h (0 Bft) S-SW 210 1 min 0,000 mm 1,9 UV-I 395 W/m 4,2 C 12,8 C 1,6 km/h (1 Bft) 100,00 %
10.04.2016 15:16 12,8 C 58 % 1011,2 hPa 0,0 l/m 1,0 km/h (0 Bft) S-SW 209 0 min 0,000 mm 1,8 UV-I 248 W/m 4,7 C 12,8 C 6,4 km/h (2 Bft) 100,00 %
10.04.2016 15:17 12,8 C 55 % 1011,2 hPa 0,0 l/m 5,4 km/h (1 Bft) W-SW 253 0 min 0,000 mm 1,7 UV-I 237 W/m 4,0 C 12,8 C 8,0 km/h (2 Bft) 100,00 %
10.04.2016 15:18 12,8 C 56 % 1011,1 hPa 0,0 l/m 4,1 km/h (1 Bft) W-SW 253 0 min 0,000 mm 1,6 UV-I 231 W/m 4,2 C 12,8 C 6,4 km/h (2 Bft) 100,00 %
10.04.2016 15:19 12,8 C 58 % 1011,2 hPa 0,0 l/m 4,8 km/h (1 Bft) W-SW 256 0 min 0,000 mm 1,6 UV-I 230 W/m 4,7 C 12,8 C 6,4 km/h (2 Bft) 100,00 %
10.04.2016 15:20 12,8 C 57 % 1011,2 hPa 0,0 l/m 7,2 km/h (2 Bft) W-NW 282 0 min 0,000 mm 1,5 UV-I 230 W/m 4,5 C 12,3 C 12,9 km/h (3 Bft) 100,00 %
10.04.2016 15:21 12,8 C 58 % 1011,2 hPa 0,0 l/m 3,7 km/h (1 Bft) NW 309 0 min 0,000 mm 1,4 UV-I 231 W/m 4,7 C 12,8 C 6,4 km/h (2 Bft) 96,55 %
10.04.2016 15:22 12,8 C 59 % 1011,2 hPa 0,0 l/m 4,3 km/h (1 Bft) W 259 0 min 0,000 mm 1,4 UV-I 234 W/m 5,0 C 12,8 C 6,4 km/h (2 Bft) 100,00 %
10.04.2016 15:23 12,7 C 57 % 1011,2 hPa 0,0 l/m 2,5 km/h (1 Bft) W 261 0 min 0,000 mm 1,3 UV-I 236 W/m 4,4 C 12,7 C 4,8 km/h (1 Bft) 100,00 %
10.04.2016 15:24 12,7 C 57 % 1011,2 hPa 0,0 l/m 2,8 km/h (1 Bft) W 261 0 min 0,000 mm 1,3 UV-I 236 W/m 4,4 C 12,7 C 4,8 km/h (1 Bft) 92,59 %
10.04.2016 15:25 12,7 C 57 % 1011,2 hPa 0,0 l/m 3,4 km/h (1 Bft) W 261 0 min 0,000 mm 1,3 UV-I 239 W/m 4,4 C 12,7 C 4,8 km/h (1 Bft) 100,00 %
10.04.2016 15:26 12,7 C 58 % 1011,2 hPa 0,0 l/m 2,9 km/h (1 Bft) W 268 0 min 0,000 mm 1,3 UV-I 244 W/m 4,7 C 12,7 C 4,8 km/h (1 Bft) 100,00 %
10.04.2016 15:27 12,7 C 57 % 1011,2 hPa 0,0 l/m 5,0 km/h (1 Bft) W 260 0 min 0,000 mm 1,3 UV-I 249 W/m 4,4 C 12,7 C 6,4 km/h (2 Bft) 100,00 %
10.04.2016 15:28 12,7 C 58 % 1011,2 hPa 0,0 l/m 6,9 km/h (2 Bft) W-SW 247 0 min 0,000 mm 1,2 UV-I 254 W/m 4,7 C 12,4 C 9,7 km/h (2 Bft) 100,00 %
10.04.2016 15:29 12,7 C 58 % 1011,2 hPa 0,0 l/m 5,9 km/h (2 Bft) W-NW 302 0 min 0,000 mm 1,3 UV-I 259 W/m 4,7 C 12,7 C 9,7 km/h (2 Bft) 100,00 %
10.04.2016 15:30 12,7 C 57 % 1011,2 hPa 0,0 l/m 4,6 km/h (1 Bft) W-NW 299 0 min 0,000 mm 1,3 UV-I 265 W/m 4,4 C 12,7 C 6,4 km/h (2 Bft) 95,83 %
10.04.2016 15:31 12,7 C 58 % 1011,2 hPa 0,0 l/m 2,4 km/h (1 Bft) SW 236 0 min 0,000 mm 1,2 UV-I 263 W/m 4,7 C 12,7 C 8,0 km/h (2 Bft) 100,00 %
10.04.2016 15:32 12,8 C 59 % 1011,2 hPa 0,0 l/m 6,9 km/h (2 Bft) W-SW 250 0 min 0,000 mm 1,2 UV-I 255 W/m 5,0 C 12,5 C 9,7 km/h (2 Bft) 96,30 %
10.04.2016 15:33 12,8 C 56 % 1011,2 hPa 0,0 l/m 6,4 km/h (2 Bft) SW 231 0 min 0,000 mm 1,2 UV-I 248 W/m 4,2 C 12,8 C 8,0 km/h (2 Bft) 100,00 %
10.04.2016 15:34 12,8 C 56 % 1011,1 hPa 0,0 l/m 6,0 km/h (2 Bft) W 262 0 min 0,000 mm 1,2 UV-I 241 W/m 4,2 C 12,8 C 8,0 km/h (2 Bft) 100,00 %
10.04.2016 15:35 12,8 C 55 % 1011,2 hPa 0,0 l/m 4,9 km/h (1 Bft) W 274 0 min 0,000 mm 1,1 UV-I 233 W/m 4,0 C 12,8 C 6,4 km/h (2 Bft) 100,00 %
10.04.2016 15:36 12,8 C 56 % 1011,1 hPa 0,0 l/m 3,7 km/h (1 Bft) W 274 0 min 0,000 mm 1,1 UV-I 227 W/m 4,2 C 12,8 C 6,4 km/h (2 Bft) 100,00 %
10.04.2016 15:37 12,9 C 54 % 1011,1 hPa 0,0 l/m 3,8 km/h (1 Bft) W 269 0 min 0,000 mm 1,1 UV-I 222 W/m 3,8 C 12,9 C 4,8 km/h (1 Bft) 100,00 %
10.04.2016 15:38 12,8 C 57 % 1011,2 hPa 0,0 l/m 1,7 km/h (1 Bft) W 269 0 min 0,000 mm 1,0 UV-I 220 W/m 4,5 C 12,8 C 3,2 km/h (1 Bft) 100,00 %
10.04.2016 15:39 12,8 C 55 % 1011,1 hPa 0,0 l/m 2,2 km/h (1 Bft) W 271 0 min 0,000 mm 1,0 UV-I 220 W/m 4,0 C 12,8 C 4,8 km/h (1 Bft) 100,00 %
10.04.2016 15:40 12,8 C 57 % 1011,1 hPa 0,0 l/m 0,6 km/h (0 Bft) W 271 0 min 0,000 mm 1,0 UV-I 221 W/m 4,5 C 12,8 C 1,6 km/h (1 Bft) 100,00 %
10.04.2016 15:41 12,8 C 58 % 1011,1 hPa 0,0 l/m 3,4 km/h (1 Bft) NW 323 0 min 0,000 mm 1,0 UV-I 223 W/m 4,7 C 12,8 C 4,8 km/h (1 Bft) 100,00 %
10.04.2016 15:42 12,9 C 58 % 1011,1 hPa 0,0 l/m 1,2 km/h (1 Bft) W 273 0 min 0,000 mm 1,0 UV-I 222 W/m 4,8 C 12,9 C 4,8 km/h (1 Bft) 100,00 %
10.04.2016 15:43 12,9 C 59 % 1011,1 hPa 0,0 l/m 3,0 km/h (1 Bft) W-NW 286 0 min 0,000 mm 1,0 UV-I 219 W/m 5,1 C 12,9 C 4,8 km/h (1 Bft) 100,00 %
10.04.2016 15:44 12,8 C 59 % 1011,1 hPa 0,0 l/m 2,4 km/h (1 Bft) N-NW 336 0 min 0,000 mm 1,0 UV-I 215 W/m 5,0 C 12,8 C 4,8 km/h (1 Bft) 100,00 %
10.04.2016 15:45 12,8 C 59 % 1011,1 hPa 0,0 l/m 0,9 km/h (0 Bft) N-NW 335 0 min 0,000 mm 1,0 UV-I 210 W/m 5,0 C 12,8 C 3,2 km/h (1 Bft) 100,00 %
10.04.2016 15:46 12,8 C 60 % 1011,1 hPa 0,0 l/m 1,4 km/h (1 Bft) NW 311 0 min 0,000 mm 1,0 UV-I 206 W/m 5,2 C 12,8 C 3,2 km/h (1 Bft) 100,00 %
10.04.2016 15:47 12,8 C 59 % 1011,1 hPa 0,0 l/m 3,9 km/h (1 Bft) W-NW 298 0 min 0,000 mm 1,0 UV-I 203 W/m 5,0 C 12,8 C 4,8 km/h (1 Bft) 96,30 %
10.04.2016 15:48 12,7 C 59 % 1011,1 hPa 0,0 l/m 1,3 km/h (1 Bft) NW 306 0 min 0,000 mm 0,9 UV-I 202 W/m 4,9 C 12,7 C 3,2 km/h (1 Bft) 100,00 %
10.04.2016 15:49 12,7 C 59 % 1011,1 hPa 0,0 l/m 1,8 km/h (1 Bft) NW 313 0 min 0,000 mm 0,9 UV-I 205 W/m 4,9 C 12,7 C 4,8 km/h (1 Bft) 100,00 %
10.04.2016 15:50 12,7 C 59 % 1011,1 hPa 0,0 l/m 2,1 km/h (1 Bft) NW 316 0 min 0,000 mm 0,9 UV-I 209 W/m 4,9 C 12,7 C 3,2 km/h (1 Bft) 100,00 %
10.04.2016 15:51 12,7 C 61 % 1011,1 hPa 0,0 l/m 0,4 km/h (0 Bft) NW 316 0 min 0,000 mm 1,0 UV-I 213 W/m 5,4 C 12,7 C 1,6 km/h (1 Bft) 100,00 %
10.04.2016 15:52 12,7 C 61 % 1011,1 hPa 0,0 l/m 0,8 km/h (0 Bft) NW 316 0 min 0,000 mm 1,0 UV-I 218 W/m 5,4 C 12,7 C 3,2 km/h (1 Bft) 100,00 %
10.04.2016 15:53 12,7 C 64 % 1011,1 hPa 0,0 l/m 1,0 km/h (0 Bft) NW 317 0 min 0,000 mm 1,0 UV-I 220 W/m 6,1 C 12,7 C 1,6 km/h (1 Bft) 100,00 %
10.04.2016 15:54 12,7 C 61 % 1011,1 hPa 0,0 l/m 2,8 km/h (1 Bft) NW 304 0 min 0,000 mm 1,0 UV-I 221 W/m 5,4 C 12,7 C 6,4 km/h (2 Bft) 100,00 %
10.04.2016 15:55 12,7 C 59 % 1011,1 hPa 0,0 l/m 4,4 km/h (1 Bft) W-NW 286 0 min 0,000 mm 1,0 UV-I 220 W/m 4,9 C 12,7 C 6,4 km/h (2 Bft) 100,00 %
10.04.2016 15:56 12,7 C 58 % 1011,1 hPa 0,0 l/m 3,1 km/h (1 Bft) W-NW 294 0 min 0,000 mm 1,0 UV-I 217 W/m 4,7 C 12,7 C 4,8 km/h (1 Bft) 100,00 %
10.04.2016 15:57 12,7 C 59 % 1011,1 hPa 0,0 l/m 1,3 km/h (1 Bft) NW 325 0 min 0,000 mm 0,9 UV-I 214 W/m 4,9 C 12,7 C 3,2 km/h (1 Bft) 100,00 %
10.04.2016 15:58 12,8 C 61 % 1011,1 hPa 0,0 l/m 2,7 km/h (1 Bft) N-NO 28 0 min 0,000 mm 0,9 UV-I 214 W/m 5,5 C 12,8 C 4,8 km/h (1 Bft) 100,00 %
10.04.2016 15:59 12,8 C 58 % 1011,2 hPa 0,0 l/m 3,4 km/h (1 Bft) W-NW 297 0 min 0,000 mm 0,9 UV-I 214 W/m 4,7 C 12,8 C 8,0 km/h (2 Bft) 100,00 %
10.04.2016 16:00 12,7 C 58 % 1011,2 hPa 0,0 l/m 4,8 km/h (1 Bft) NW 306 0 min 0,152 mm 0,9 UV-I 218 W/m 4,7 C 12,7 C 6,4 km/h (2 Bft) 96,88 %
10.04.2016 16:01 12,8 C 59 % 1011,1 hPa 0,0 l/m 3,1 km/h (1 Bft) NW 321 0 min 0,000 mm 1,0 UV-I 229 W/m 5,0 C 12,8 C 6,4 km/h (2 Bft) 100,00 %
10.04.2016 16:02 12,7 C 57 % 1011,2 hPa 0,0 l/m 4,4 km/h (1 Bft) W-NW 298 0 min 0,000 mm 1,0 UV-I 242 W/m 4,4 C 12,7 C 9,7 km/h (2 Bft) 100,00 %
10.04.2016 16:03 12,7 C 58 % 1011,2 hPa 0,0 l/m 1,5 km/h (1 Bft) N 355 0 min 0,000 mm 1,1 UV-I 267 W/m 4,7 C 12,7 C 3,2 km/h (1 Bft) 95,65 %
10.04.2016 16:04 12,8 C 59 % 1011,2 hPa 0,0 l/m 1,7 km/h (1 Bft) N-NW 343 0 min 0,000 mm 1,1 UV-I 268 W/m 5,0 C 12,8 C 3,2 km/h (1 Bft) 95,83 %
10.04.2016 16:05 12,8 C 60 % 1011,2 hPa 0,0 l/m 1,9 km/h (1 Bft) NW 307 0 min 0,000 mm 1,1 UV-I 252 W/m 5,2 C 12,8 C 4,8 km/h (1 Bft) 100,00 %
10.04.2016 16:06 12,8 C 60 % 1011,2 hPa 0,0 l/m 3,9 km/h (1 Bft) N-NW 343 0 min 0,000 mm 1,1 UV-I 250 W/m 5,2 C 12,8 C 4,8 km/h (1 Bft) 100,00 %
10.04.2016 16:07 12,8 C 58 % 1011,1 hPa 0,0 l/m 2,0 km/h (1 Bft) NW 324 0 min 0,000 mm 1,1 UV-I 246 W/m 4,7 C 12,8 C 6,4 km/h (2 Bft) 100,00 %
10.04.2016 16:08 12,8 C 59 % 1011,1 hPa 0,0 l/m 0,7 km/h (0 Bft) NW 318 0 min 0,000 mm 1,1 UV-I 233 W/m 5,0 C 12,8 C 4,8 km/h (1 Bft) 100,00 %
10.04.2016 16:09 12,8 C 59 % 1011,1 hPa 0,0 l/m 1,9 km/h (1 Bft) NW 317 0 min 0,000 mm 1,1 UV-I 213 W/m 5,0 C 12,8 C 4,8 km/h (1 Bft) 100,00 %
10.04.2016 16:10 12,8 C 59 % 1011,1 hPa 0,0 l/m 3,5 km/h (1 Bft) W-NW 294 0 min 0,000 mm 1,0 UV-I 202 W/m 5,0 C 12,8 C 6,4 km/h (2 Bft) 96,30 %
10.04.2016 16:11 12,8 C 58 % 1011,1 hPa 0,0 l/m 3,6 km/h (1 Bft) W-NW 286 0 min 0,000 mm 1,0 UV-I 195 W/m 4,7 C 12,8 C 9,7 km/h (2 Bft) 100,00 %
10.04.2016 16:12 12,8 C 58 % 1011,1 hPa 0,0 l/m 2,6 km/h (1 Bft) NW 313 0 min 0,000 mm 1,0 UV-I 197 W/m 4,7 C 12,8 C 8,0 km/h (2 Bft) 96,30 %
10.04.2016 16:13 12,8 C 59 % 1011,1 hPa 0,0 l/m 2,4 km/h (1 Bft) NW 304 0 min 0,000 mm 1,0 UV-I 203 W/m 5,0 C 12,8 C 4,8 km/h (1 Bft) 100,00 %
10.04.2016 16:14 12,8 C 57 % 1011,1 hPa 0,0 l/m 3,0 km/h (1 Bft) N-NW 330 0 min 0,000 mm 1,0 UV-I 212 W/m 4,5 C 12,8 C 4,8 km/h (1 Bft) 91,67 %
10.04.2016 16:15 12,8 C 59 % 1011,1 hPa 0,0 l/m 3,4 km/h (1 Bft) NW 322 0 min 0,000 mm 1,0 UV-I 220 W/m 5,0 C 12,8 C 4,8 km/h (1 Bft) 100,00 %
10.04.2016 16:16 12,8 C 57 % 1011,1 hPa 0,0 l/m 3,3 km/h (1 Bft) NW 314 0 min 0,000 mm 1,0 UV-I 227 W/m 4,5 C 12,8 C 4,8 km/h (1 Bft) 95,83 %
10.04.2016 16:17 12,7 C 56 % 1011,1 hPa 0,0 l/m 4,2 km/h (1 Bft) NW 311 0 min 0,000 mm 1,0 UV-I 236 W/m 4,2 C 12,7 C 6,4 km/h (2 Bft) 95,65 %
10.04.2016 16:18 12,7 C 57 % 1011,2 hPa 0,0 l/m 4,0 km/h (1 Bft) W-NW 294 0 min 0,000 mm 1,1 UV-I 247 W/m 4,4 C 12,7 C 4,8 km/h (1 Bft) 100,00 %
10.04.2016 16:19 12,7 C 56 % 1011,1 hPa 0,0 l/m 2,3 km/h (1 Bft) W 272 0 min 0,000 mm 1,1 UV-I 253 W/m 4,2 C 12,7 C 4,8 km/h (1 Bft) 96,15 %
10.04.2016 16:20 12,8 C 59 % 1011,1 hPa 0,0 l/m 3,6 km/h (1 Bft) W-NW 283 0 min 0,000 mm 1,1 UV-I 252 W/m 5,0 C 12,8 C 4,8 km/h (1 Bft) 100,00 %
10.04.2016 16:21 12,8 C 62 % 1011,1 hPa 0,0 l/m 2,8 km/h (1 Bft) N-NW 333 0 min 0,000 mm 1,1 UV-I 253 W/m 5,7 C 12,8 C 4,8 km/h (1 Bft) 96,15 %
10.04.2016 16:22 12,9 C 59 % 1011,1 hPa 0,0 l/m 3,2 km/h (1 Bft) W-NW 302 1 min 0,000 mm 1,3 UV-I 323 W/m 5,1 C 12,9 C 4,8 km/h (1 Bft) 95,83 %
10.04.2016 16:23 13,1 C 57 % 1011,1 hPa 0,0 l/m 2,5 km/h (1 Bft) N-NW 338 1 min 0,000 mm 1,3 UV-I 592 W/m 4,8 C 13,1 C 4,8 km/h (1 Bft) 93,33 %
10.04.2016 16:24 13,2 C 59 % 1011,2 hPa 0,0 l/m 2,8 km/h (1 Bft) NW 321 1 min 0,000 mm 1,3 UV-I 597 W/m 5,4 C 13,2 C 4,8 km/h (1 Bft) 100,00 %
10.04.2016 16:25 13,3 C 58 % 1011,2 hPa 0,0 l/m 5,7 km/h (1 Bft) W-NW 293 1 min 0,000 mm 1,3 UV-I 601 W/m 5,2 C 13,3 C 8,0 km/h (2 Bft) 96,30 %
10.04.2016 16:26 13,4 C 54 % 1011,2 hPa 0,0 l/m 3,1 km/h (1 Bft) NW 309 1 min 0,000 mm 1,3 UV-I 605 W/m 4,3 C 13,4 C 4,8 km/h (1 Bft) 98,59 %
10.04.2016 16:27 13,5 C 55 % 1011,2 hPa 0,0 l/m 4,8 km/h (1 Bft) W 273 1 min 0,000 mm 1,2 UV-I 595 W/m 4,6 C 13,5 C 6,4 km/h (2 Bft) 97,56 %
10.04.2016 16:28 13,5 C 54 % 1011,2 hPa 0,0 l/m 7,2 km/h (2 Bft) W 267 1 min 0,000 mm 1,2 UV-I 547 W/m 4,4 C 13,0 C 11,3 km/h (2 Bft) 95,65 %
10.04.2016 16:29 13,4 C 52 % 1011,1 hPa 0,0 l/m 2,7 km/h (1 Bft) W 273 1 min 0,000 mm 1,0 UV-I 434 W/m 3,7 C 13,4 C 4,8 km/h (1 Bft) 100,00 %
10.04.2016 16:30 13,3 C 52 % 1011,2 hPa 0,0 l/m 3,6 km/h (1 Bft) N-NW 340 0 min 0,000 mm 0,9 UV-I 262 W/m 3,7 C 13,3 C 8,0 km/h (2 Bft) 95,65 %
10.04.2016 16:31 13,2 C 56 % 1011,2 hPa 0,0 l/m 3,8 km/h (1 Bft) N-NW 332 0 min 0,000 mm 0,9 UV-I 262 W/m 4,6 C 13,2 C 6,4 km/h (2 Bft) 100,00 %
10.04.2016 16:32 13,2 C 55 % 1011,2 hPa 0,0 l/m 5,4 km/h (1 Bft) NW 304 1 min 0,000 mm 0,9 UV-I 296 W/m 4,4 C 13,2 C 8,0 km/h (2 Bft) 96,15 %
10.04.2016 16:33 13,2 C 58 % 1011,2 hPa 0,0 l/m 3,6 km/h (1 Bft) NW 326 1 min 0,000 mm 1,0 UV-I 306 W/m 5,1 C 13,2 C 6,4 km/h (2 Bft) 95,83 %
10.04.2016 16:34 13,2 C 58 % 1011,2 hPa 0,0 l/m 4,0 km/h (1 Bft) N-NW 341 1 min 0,000 mm 0,9 UV-I 306 W/m 5,1 C 13,2 C 4,8 km/h (1 Bft) 98,58 %
10.04.2016 16:36 13,2 C 57 % 1011,2 hPa 0,0 l/m 2,2 km/h (1 Bft) N 349 0 min 0,000 mm 0,9 UV-I 274 W/m 4,9 C 13,2 C 3,2 km/h (1 Bft) 98,51 %
10.04.2016 16:37 13,3 C 59 % 1011,2 hPa 0,0 l/m 2,6 km/h (1 Bft) NW 306 1 min 0,000 mm 0,9 UV-I 383 W/m 5,5 C 13,3 C 4,8 km/h (1 Bft) 95,83 %
10.04.2016 16:38 13,3 C 59 % 1011,2 hPa 0,0 l/m 0,5 km/h (0 Bft) NW 306 1 min 0,000 mm 0,9 UV-I 481 W/m 5,5 C 13,3 C 1,6 km/h (1 Bft) 96,15 %
10.04.2016 16:39 13,4 C 60 % 1011,2 hPa 0,0 l/m 5,5 km/h (1 Bft) NW 311 1 min 0,000 mm 0,9 UV-I 490 W/m 5,8 C 13,4 C 9,7 km/h (2 Bft) 91,67 %
10.04.2016 16:40 13,5 C 57 % 1011,2 hPa 0,0 l/m 4,9 km/h (1 Bft) W-NW 301 1 min 0,000 mm 0,9 UV-I 481 W/m 5,2 C 13,5 C 11,3 km/h (2 Bft) 100,00 %
10.04.2016 16:41 13,6 C 60 % 1011,2 hPa 0,0 l/m 5,0 km/h (1 Bft) N-NW 336 1 min 0,000 mm 0,9 UV-I 494 W/m 6,0 C 13,6 C 9,7 km/h (2 Bft) 96,15 %
10.04.2016 16:42 13,7 C 59 % 1011,2 hPa 0,0 l/m 3,8 km/h (1 Bft) NW 315 1 min 0,000 mm 0,9 UV-I 436 W/m 5,8 C 13,7 C 4,8 km/h (1 Bft) 96,30 %
10.04.2016 16:43 13,6 C 57 % 1011,2 hPa 0,0 l/m 1,7 km/h (1 Bft) N-NW 342 1 min 0,000 mm 0,8 UV-I 443 W/m 5,2 C 13,6 C 4,8 km/h (1 Bft) 100,00 %
10.04.2016 16:44 13,5 C 56 % 1011,1 hPa 0,0 l/m 3,6 km/h (1 Bft) W-NW 302 1 min 0,000 mm 0,8 UV-I 281 W/m 4,9 C 13,5 C 6,4 km/h (2 Bft) 91,67 %
10.04.2016 16:45 13,4 C 58 % 1011,1 hPa 0,0 l/m 3,5 km/h (1 Bft) N-NW 331 1 min 0,000 mm 0,8 UV-I 269 W/m 5,3 C 13,4 C 8,0 km/h (2 Bft) 100,00 %
10.04.2016 16:46 13,3 C 56 % 1011,2 hPa 0,0 l/m 2,5 km/h (1 Bft) N 355 1 min 0,000 mm 0,9 UV-I 303 W/m 4,7 C 13,3 C 3,2 km/h (1 Bft) 100,00 %
10.04.2016 16:47 13,3 C 55 % 1011,1 hPa 0,0 l/m 1,7 km/h (1 Bft) N-NW 333 1 min 0,000 mm 0,9 UV-I 376 W/m 4,5 C 13,3 C 4,8 km/h (1 Bft) 100,00 %
10.04.2016 16:48 13,3 C 58 % 1011,1 hPa 0,0 l/m 1,4 km/h (1 Bft) NW 314 1 min 0,000 mm 1,0 UV-I 455 W/m 5,2 C 13,3 C 4,8 km/h (1 Bft) 100,00 %
10.04.2016 16:49 13,3 C 60 % 1011,1 hPa 0,0 l/m 3,8 km/h (1 Bft) N-NW 327 1 min 0,000 mm 0,9 UV-I 504 W/m 5,7 C 13,3 C 6,4 km/h (2 Bft) 100,00 %
10.04.2016 16:50 13,4 C 55 % 1011,1 hPa 0,0 l/m 4,6 km/h (1 Bft) N-NW 335 1 min 0,000 mm 1,0 UV-I 504 W/m 4,5 C 13,4 C 8,0 km/h (2 Bft) 100,00 %
10.04.2016 16:51 13,4 C 57 % 1011,1 hPa 0,0 l/m 2,2 km/h (1 Bft) N-NW 340 1 min 0,000 mm 1,0 UV-I 504 W/m 5,1 C 13,4 C 6,4 km/h (2 Bft) 91,30 %
10.04.2016 16:52 13,4 C 55 % 1011,1 hPa 0,0 l/m 0,6 km/h (0 Bft) NW 305 1 min 0,000 mm 1,1 UV-I 504 W/m 4,5 C 13,4 C 1,6 km/h (1 Bft) 100,00 %
10.04.2016 16:53 13,6 C 56 % 1011,1 hPa 0,0 l/m 2,5 km/h (1 Bft) N-NW 340 1 min 0,000 mm 1,1 UV-I 533 W/m 5,0 C 13,6 C 3,2 km/h (1 Bft) 100,00 %
10.04.2016 16:54 13,6 C 55 % 1011,1 hPa 0,0 l/m 1,1 km/h (1 Bft) N 355 1 min 0,000 mm 1,1 UV-I 545 W/m 4,7 C 13,6 C 3,2 km/h (1 Bft) 100,00 %
10.04.2016 16:55 13,6 C 60 % 1011,1 hPa 0,0 l/m 2,7 km/h (1 Bft) N 355 1 min 0,000 mm 1,1 UV-I 541 W/m 6,0 C 13,6 C 3,2 km/h (1 Bft) 100,00 %
10.04.2016 16:56 13,7 C 58 % 1011,1 hPa 0,0 l/m 1,0 km/h (0 Bft) N 355 1 min 0,000 mm 1,0 UV-I 545 W/m 5,6 C 13,7 C 3,2 km/h (1 Bft) 100,00 %
10.04.2016 16:57 13,7 C 58 % 1011,0 hPa 0,0 l/m 1,8 km/h (1 Bft) N 355 1 min 0,000 mm 1,1 UV-I 397 W/m 5,6 C 13,7 C 3,2 km/h (1 Bft) 100,00 %
10.04.2016 16:58 13,8 C 57 % 1011,1 hPa 0,0 l/m 1,5 km/h (1 Bft) N 355 1 min 0,000 mm 1,0 UV-I 445 W/m 5,4 C 13,8 C 3,2 km/h (1 Bft) 95,83 %
10.04.2016 16:59 13,8 C 54 % 1011,1 hPa 0,0 l/m 1,9 km/h (1 Bft) N 355 1 min 0,000 mm 1,1 UV-I 538 W/m 4,7 C 13,8 C 3,2 km/h (1 Bft) 100,00 %
10.04.2016 17:00 13,9 C 56 % 1011,0 hPa 0,0 l/m 1,3 km/h (1 Bft) N 355 1 min 0,000 mm 1,0 UV-I 530 W/m 5,3 C 13,9 C 3,2 km/h (1 Bft) 100,00 %
10.04.2016 17:02 14,0 C 55 % 1011,1 hPa 0,0 l/m 4,0 km/h (1 Bft) N-NO 12 2 min 0,203 mm 1,0 UV-I 511 W/m 5,1 C 14,0 C 8,0 km/h (2 Bft) 100,00 %
10.04.2016 17:03 14,1 C 58 % 1011,0 hPa 0,0 l/m 2,4 km/h (1 Bft) W-NW 300 1 min 0,000 mm 1,0 UV-I 491 W/m 6,0 C 14,1 C 8,0 km/h (2 Bft) 100,00 %
10.04.2016 17:04 14,2 C 58 % 1011,0 hPa 0,0 l/m 11,4 km/h (2 Bft) SW 229 1 min 0,000 mm 1,0 UV-I 482 W/m 6,1 C 11,6 C 14,5 km/h (3 Bft) 100,00 %
10.04.2016 17:05 14,2 C 52 % 1011,0 hPa 0,0 l/m 7,9 km/h (2 Bft) S-SW 201 1 min 0,000 mm 1,0 UV-I 477 W/m 4,5 C 13,3 C 11,3 km/h (2 Bft) 100,00 %
10.04.2016 17:06 14,0 C 53 % 1011,0 hPa 0,0 l/m 7,0 km/h (2 Bft) SW 231 1 min 0,000 mm 0,9 UV-I 462 W/m 4,6 C 13,6 C 9,7 km/h (2 Bft) 100,00 %
10.04.2016 17:07 13,9 C 54 % 1011,0 hPa 0,0 l/m 3,1 km/h (1 Bft) W-SW 244 1 min 0,000 mm 0,9 UV-I 455 W/m 4,7 C 13,9 C 6,4 km/h (2 Bft) 100,00 %
10.04.2016 17:08 13,8 C 56 % 1011,0 hPa 0,0 l/m 6,3 km/h (2 Bft) SW 223 1 min 0,000 mm 0,9 UV-I 455 W/m 5,2 C 13,8 C 8,0 km/h (2 Bft) 100,00 %
10.04.2016 17:09 13,8 C 54 % 1011,0 hPa 0,0 l/m 5,4 km/h (1 Bft) W-SW 242 1 min 0,000 mm 0,8 UV-I 380 W/m 4,7 C 13,8 C 8,0 km/h (2 Bft) 100,00 %
10.04.2016 17:10 13,7 C 52 % 1011,0 hPa 0,0 l/m 5,1 km/h (1 Bft) W 264 0 min 0,000 mm 0,8 UV-I 186 W/m 4,0 C 13,7 C 6,4 km/h (2 Bft) 100,00 %
10.04.2016 17:11 13,6 C 54 % 1011,0 hPa 0,0 l/m 9,1 km/h (2 Bft) W 259 0 min 0,000 mm 0,8 UV-I 182 W/m 4,5 C 12,0 C 11,3 km/h (2 Bft) 96,30 %
10.04.2016 17:12 13,6 C 55 % 1011,0 hPa 0,0 l/m 4,7 km/h (1 Bft) W-NW 295 0 min 0,000 mm 0,8 UV-I 200 W/m 4,7 C 13,6 C 6,4 km/h (2 Bft) 100,00 %
10.04.2016 17:13 13,5 C 53 % 1011,0 hPa 0,0 l/m 3,0 km/h (1 Bft) NW 310 0 min 0,000 mm 0,7 UV-I 166 W/m 4,1 C 13,5 C 4,8 km/h (1 Bft) 100,00 %
10.04.2016 17:14 13,4 C 54 % 1011,0 hPa 0,0 l/m 2,9 km/h (1 Bft) W-SW 250 0 min 0,000 mm 0,7 UV-I 138 W/m 4,3 C 13,4 C 4,8 km/h (1 Bft) 95,65 %
10.04.2016 17:15 13,3 C 52 % 1011,0 hPa 0,0 l/m 4,0 km/h (1 Bft) W-SW 246 0 min 0,000 mm 0,7 UV-I 126 W/m 3,7 C 13,3 C 6,4 km/h (2 Bft) 100,00 %
10.04.2016 17:16 13,2 C 57 % 1011,0 hPa 0,0 l/m 3,0 km/h (1 Bft) S-SW 203 0 min 0,000 mm 0,7 UV-I 117 W/m 4,9 C 13,2 C 6,4 km/h (2 Bft) 100,00 %
10.04.2016 17:17 13,1 C 55 % 1011,0 hPa 0,0 l/m 5,7 km/h (1 Bft) SW 234 0 min 0,000 mm 0,7 UV-I 111 W/m 4,3 C 13,1 C 8,0 km/h (2 Bft) 100,00 %
10.04.2016 17:18 13,1 C 55 % 1011,0 hPa 0,0 l/m 3,2 km/h (1 Bft) W-SW 239 0 min 0,000 mm 0,7 UV-I 108 W/m 4,3 C 13,1 C 4,8 km/h (1 Bft) 100,00 %
10.04.2016 17:19 13,0 C 55 % 1011,0 hPa 0,0 l/m 4,5 km/h (1 Bft) W-SW 251 0 min 0,000 mm 0,6 UV-I 107 W/m 4,2 C 13,0 C 4,8 km/h (1 Bft) 100,00 %
10.04.2016 17:20 12,9 C 56 % 1011,0 hPa 0,0 l/m 3,1 km/h (1 Bft) W-SW 251 0 min 0,000 mm 0,6 UV-I 105 W/m 4,3 C 12,9 C 4,8 km/h (1 Bft) 100,00 %
10.04.2016 17:21 12,9 C 56 % 1011,0 hPa 0,0 l/m 2,2 km/h (1 Bft) W-SW 251 0 min 0,000 mm 0,6 UV-I 105 W/m 4,3 C 12,9 C 3,2 km/h (1 Bft) 100,00 %
10.04.2016 17:22 12,9 C 57 % 1011,0 hPa 0,0 l/m 3,4 km/h (1 Bft) SW 227 0 min 0,000 mm 0,6 UV-I 104 W/m 4,6 C 12,9 C 6,4 km/h (2 Bft) 100,00 %
10.04.2016 17:23 12,8 C 56 % 1011,0 hPa 0,0 l/m 4,5 km/h (1 Bft) SW 219 0 min 0,000 mm 0,6 UV-I 105 W/m 4,2 C 12,8 C 6,4 km/h (2 Bft) 100,00 %
10.04.2016 17:24 12,8 C 55 % 1011,0 hPa 0,0 l/m 4,0 km/h (1 Bft) W-SW 254 0 min 0,000 mm 0,6 UV-I 108 W/m 4,0 C 12,8 C 6,4 km/h (2 Bft) 95,83 %
10.04.2016 17:25 12,8 C 57 % 1011,0 hPa 0,0 l/m 5,4 km/h (1 Bft) W-SW 248 0 min 0,000 mm 0,6 UV-I 113 W/m 4,5 C 12,8 C 6,4 km/h (2 Bft) 100,00 %
10.04.2016 17:26 12,8 C 57 % 1011,0 hPa 0,0 l/m 4,7 km/h (1 Bft) W-SW 258 0 min 0,000 mm 0,5 UV-I 119 W/m 4,5 C 12,8 C 6,4 km/h (2 Bft) 100,00 %
10.04.2016 17:27 12,8 C 58 % 1011,0 hPa 0,0 l/m 5,1 km/h (1 Bft) W-SW 251 0 min 0,000 mm 0,5 UV-I 126 W/m 4,7 C 12,8 C 6,4 km/h (2 Bft) 100,00 %
10.04.2016 17:28 12,8 C 56 % 1011,0 hPa 0,0 l/m 5,3 km/h (1 Bft) W 265 0 min 0,000 mm 0,5 UV-I 132 W/m 4,2 C 12,8 C 6,4 km/h (2 Bft) 100,00 %
10.04.2016 17:29 12,8 C 58 % 1011,0 hPa 0,0 l/m 5,6 km/h (1 Bft) W-SW 255 0 min 0,000 mm 0,5 UV-I 138 W/m 4,7 C 12,8 C 6,4 km/h (2 Bft) 100,00 %
10.04.2016 17:30 12,8 C 58 % 1011,0 hPa 0,0 l/m 5,4 km/h (1 Bft) W 265 0 min 0,000 mm 0,5 UV-I 164 W/m 4,7 C 12,8 C 6,4 km/h (2 Bft) 100,00 %
10.04.2016 17:31 12,8 C 59 % 1011,0 hPa 0,0 l/m 4,6 km/h (1 Bft) W-SW 257 0 min 0,000 mm 0,5 UV-I 161 W/m 5,0 C 12,8 C 6,4 km/h (2 Bft) 100,00 %
10.04.2016 17:32 12,8 C 58 % 1011,0 hPa 0,0 l/m 4,7 km/h (1 Bft) W-SW 245 1 min 0,000 mm 0,6 UV-I 206 W/m 4,7 C 12,8 C 6,4 km/h (2 Bft) 100,00 %
10.04.2016 17:33 12,8 C 56 % 1011,0 hPa 0,0 l/m 4,6 km/h (1 Bft) W-SW 244 1 min 0,000 mm 0,6 UV-I 206 W/m 4,2 C 12,8 C 6,4 km/h (2 Bft) 100,00 %
10.04.2016 17:34 12,9 C 57 % 1011,1 hPa 0,0 l/m 2,5 km/h (1 Bft) W-SW 244 1 min 0,000 mm 0,5 UV-I 206 W/m 4,6 C 12,9 C 3,2 km/h (1 Bft) 100,00 %
10.04.2016 17:35 12,9 C 54 % 1011,0 hPa 0,0 l/m 1,1 km/h (1 Bft) W-SW 244 1 min 0,000 mm 0,6 UV-I 217 W/m 3,8 C 12,9 C 1,6 km/h (1 Bft) 100,00 %
10.04.2016 17:36 12,9 C 56 % 1011,0 hPa 0,0 l/m 2,7 km/h (1 Bft) W-SW 244 1 min 0,000 mm 0,6 UV-I 226 W/m 4,3 C 12,9 C 4,8 km/h (1 Bft) 100,00 %
10.04.2016 17:37 13,0 C 57 % 1011,0 hPa 0,0 l/m 1,7 km/h (1 Bft) W-SW 244 1 min 0,000 mm 0,6 UV-I 304 W/m 4,7 C 13,0 C 3,2 km/h (1 Bft) 100,00 %
10.04.2016 17:38 13,0 C 56 % 1011,0 hPa 0,0 l/m 2,7 km/h (1 Bft) W-SW 258 1 min 0,000 mm 0,6 UV-I 313 W/m 4,4 C 13,0 C 4,8 km/h (1 Bft) 100,00 %
10.04.2016 17:39 13,1 C 57 % 1011,0 hPa 0,0 l/m 3,5 km/h (1 Bft) W 261 1 min 0,000 mm 0,5 UV-I 314 W/m 4,8 C 13,1 C 4,8 km/h (1 Bft) 100,00 %
10.04.2016 17:40 13,2 C 55 % 1011,0 hPa 0,0 l/m 1,9 km/h (1 Bft) W 261 1 min 0,000 mm 0,5 UV-I 307 W/m 4,4 C 13,2 C 3,2 km/h (1 Bft) 100,00 %
10.04.2016 17:41 13,2 C 55 % 1011,0 hPa 0,0 l/m 4,6 km/h (1 Bft) W-SW 251 1 min 0,000 mm 0,5 UV-I 298 W/m 4,4 C 13,2 C 6,4 km/h (2 Bft) 100,00 %
10.04.2016 17:42 13,3 C 54 % 1011,0 hPa 0,0 l/m 4,1 km/h (1 Bft) W-SW 251 1 min 0,000 mm 0,5 UV-I 289 W/m 4,2 C 13,3 C 6,4 km/h (2 Bft) 100,00 %
10.04.2016 17:43 13,3 C 55 % 1011,0 hPa 0,0 l/m 2,6 km/h (1 Bft) W-SW 251 1 min 0,000 mm 0,5 UV-I 273 W/m 4,5 C 13,3 C 4,8 km/h (1 Bft) 100,00 %
10.04.2016 17:44 13,3 C 54 % 1011,0 hPa 0,0 l/m 0,5 km/h (0 Bft) W-SW 251 1 min 0,000 mm 0,5 UV-I 271 W/m 4,2 C 13,3 C 1,6 km/h (1 Bft) 100,00 %
10.04.2016 17:45 13,3 C 56 % 1011,0 hPa 0,0 l/m 1,9 km/h (1 Bft) W-NW 302 1 min 0,000 mm 0,5 UV-I 266 W/m 4,7 C 13,3 C 3,2 km/h (1 Bft) 100,00 %
10.04.2016 17:46 13,3 C 55 % 1011,0 hPa 0,0 l/m 1,5 km/h (1 Bft) W-NW 302 1 min 0,000 mm 0,5 UV-I 265 W/m 4,5 C 13,3 C 3,2 km/h (1 Bft) 100,00 %
10.04.2016 17:47 13,3 C 56 % 1011,0 hPa 0,0 l/m 1,4 km/h (1 Bft) W-NW 302 0 min 0,000 mm 0,5 UV-I 160 W/m 4,7 C 13,3 C 3,2 km/h (1 Bft) 100,00 %
10.04.2016 17:48 13,2 C 58 % 1011,0 hPa 0,0 l/m 1,3 km/h (1 Bft) W-NW 302 0 min 0,000 mm 0,5 UV-I 115 W/m 5,1 C 13,2 C 1,6 km/h (1 Bft) 96,55 %
10.04.2016 17:49 13,1 C 57 % 1011,0 hPa 0,0 l/m 0,5 km/h (0 Bft) W-NW 302 0 min 0,000 mm 0,1 UV-I 106 W/m 4,8 C 13,1 C 1,6 km/h (1 Bft) 100,00 %
10.04.2016 17:50 13,1 C 57 % 1011,0 hPa 0,0 l/m 0,4 km/h (0 Bft) W-NW 302 0 min 0,000 mm 0,0 UV-I 127 W/m 4,8 C 13,1 C 1,6 km/h (1 Bft) 100,00 %
10.04.2016 17:51 13,0 C 58 % 1011,0 hPa 0,0 l/m 1,0 km/h (0 Bft) W-NW 302 1 min 0,000 mm 0,0 UV-I 206 W/m 4,9 C 13,0 C 1,6 km/h (1 Bft) 100,00 %
10.04.2016 17:52 12,9 C 56 % 1011,0 hPa 0,0 l/m 0,7 km/h (0 Bft) W-NW 302 1 min 0,000 mm 0,0 UV-I 217 W/m 4,3 C 12,9 C 1,6 km/h (1 Bft) 100,00 %
10.04.2016 17:53 12,9 C 56 % 1010,9 hPa 0,0 l/m 2,1 km/h (1 Bft) W-NW 298 1 min 0,000 mm 0,0 UV-I 209 W/m 4,3 C 12,9 C 3,2 km/h (1 Bft) 100,00 %
10.04.2016 17:54 13,0 C 56 % 1010,9 hPa 0,0 l/m 0,1 km/h (0 Bft) W-NW 298 1 min 0,000 mm 0,0 UV-I 225 W/m 4,4 C 13,0 C 1,6 km/h (1 Bft) 100,00 %
10.04.2016 17:55 13,1 C 57 % 1010,9 hPa 0,0 l/m 0,3 km/h (0 Bft) W-NW 298 1 min 0,000 mm 0,0 UV-I 229 W/m 4,8 C 13,1 C 1,6 km/h (1 Bft) 100,00 %
10.04.2016 17:56 13,1 C 56 % 1011,0 hPa 0,0 l/m 1,8 km/h (1 Bft) W-NW 298 1 min 0,000 mm 0,0 UV-I 220 W/m 4,5 C 13,1 C 3,2 km/h (1 Bft) 100,00 %
10.04.2016 17:57 13,1 C 54 % 1010,9 hPa 0,0 l/m 3,0 km/h (1 Bft) W 278 1 min 0,000 mm 0,0 UV-I 215 W/m 4,0 C 13,1 C 4,8 km/h (1 Bft) 100,00 %
10.04.2016 17:58 13,1 C 58 % 1010,9 hPa 0,0 l/m 1,6 km/h (1 Bft) W 278 1 min 0,000 mm 0,0 UV-I 211 W/m 5,0 C 13,1 C 3,2 km/h (1 Bft) 100,00 %
10.04.2016 17:59 13,1 C 58 % 1010,9 hPa 0,0 l/m 1,3 km/h (1 Bft) SW 234 1 min 0,000 mm 0,0 UV-I 210 W/m 5,0 C 13,1 C 3,2 km/h (1 Bft) 100,00 %
10.04.2016 18:00 13,2 C 56 % 1010,9 hPa 0,0 l/m 3,0 km/h (1 Bft) S-SW 198 1 min 0,000 mm 0,0 UV-I 205 W/m 4,6 C 13,2 C 4,8 km/h (1 Bft) 100,00 %
10.04.2016 18:01 13,2 C 56 % 1010,9 hPa 0,0 l/m 5,0 km/h (1 Bft) S-SO 161 1 min 0,127 mm 0,0 UV-I 202 W/m 4,6 C 13,2 C 11,3 km/h (2 Bft) 100,00 %
10.04.2016 18:02 13,2 C 56 % 1010,9 hPa 0,0 l/m 7,2 km/h (2 Bft) S-SW 208 1 min 0,000 mm 0,0 UV-I 198 W/m 4,6 C 12,7 C 9,7 km/h (2 Bft) 100,00 %
10.04.2016 18:03 13,2 C 56 % 1010,9 hPa 0,0 l/m 6,1 km/h (2 Bft) S 191 1 min 0,000 mm 0,0 UV-I 198 W/m 4,6 C 13,2 C 8,0 km/h (2 Bft) 100,00 %
10.04.2016 18:04 13,2 C 57 % 1011,0 hPa 0,0 l/m 5,4 km/h (1 Bft) S-SW 192 1 min 0,000 mm 0,0 UV-I 200 W/m 4,9 C 13,2 C 8,0 km/h (2 Bft) 100,00 %
10.04.2016 18:05 13,2 C 58 % 1010,9 hPa 0,0 l/m 4,3 km/h (1 Bft) SW 225 1 min 0,000 mm 0,0 UV-I 199 W/m 5,1 C 13,2 C 6,4 km/h (2 Bft) 100,00 %
10.04.2016 18:06 13,2 C 58 % 1010,9 hPa 0,0 l/m 3,9 km/h (1 Bft) SW 230 1 min 0,000 mm 0,0 UV-I 197 W/m 5,1 C 13,2 C 6,4 km/h (2 Bft) 96,30 %
10.04.2016 18:07 13,2 C 57 % 1010,9 hPa 0,0 l/m 4,6 km/h (1 Bft) SW 216 1 min 0,000 mm 0,0 UV-I 195 W/m 4,9 C 13,2 C 6,4 km/h (2 Bft) 100,00 %
10.04.2016 18:08 13,2 C 58 % 1010,9 hPa 0,0 l/m 4,1 km/h (1 Bft) SW 234 1 min 0,000 mm 0,0 UV-I 194 W/m 5,1 C 13,2 C 4,8 km/h (1 Bft) 100,00 %
10.04.2016 18:09 13,2 C 57 % 1011,0 hPa 0,0 l/m 3,8 km/h (1 Bft) W-SW 253 1 min 0,000 mm 0,0 UV-I 192 W/m 4,9 C 13,2 C 4,8 km/h (1 Bft) 100,00 %
10.04.2016 18:10 13,2 C 57 % 1010,9 hPa 0,0 l/m 2,8 km/h (1 Bft) W-SW 253 1 min 0,000 mm 0,0 UV-I 192 W/m 4,9 C 13,2 C 4,8 km/h (1 Bft) 95,83 %
10.04.2016 18:11 13,2 C 57 % 1011,0 hPa 0,0 l/m 4,8 km/h (1 Bft) SW 225 1 min 0,000 mm 0,0 UV-I 189 W/m 4,9 C 13,2 C 6,4 km/h (2 Bft) 100,00 %
10.04.2016 18:12 13,2 C 57 % 1011,0 hPa 0,0 l/m 5,0 km/h (1 Bft) W-SW 252 1 min 0,000 mm 0,0 UV-I 186 W/m 4,9 C 13,2 C 6,4 km/h (2 Bft) 91,67 %
10.04.2016 18:13 13,2 C 56 % 1010,9 hPa 0,0 l/m 5,8 km/h (2 Bft) SW 236 1 min 0,000 mm 0,0 UV-I 183 W/m 4,6 C 13,2 C 9,7 km/h (2 Bft) 100,00 %
10.04.2016 18:14 13,2 C 56 % 1011,0 hPa 0,0 l/m 6,2 km/h (2 Bft) SW 220 1 min 0,000 mm 0,0 UV-I 180 W/m 4,6 C 13,2 C 8,0 km/h (2 Bft) 93,33 %
10.04.2016 18:15 13,2 C 56 % 1011,0 hPa 0,0 l/m 5,1 km/h (1 Bft) SW 227 1 min 0,000 mm 0,0 UV-I 177 W/m 4,6 C 13,2 C 6,4 km/h (2 Bft) 100,00 %
10.04.2016 18:16 13,2 C 57 % 1011,0 hPa 0,0 l/m 4,4 km/h (1 Bft) SW 221 1 min 0,000 mm 0,0 UV-I 174 W/m 4,9 C 13,2 C 6,4 km/h (2 Bft) 95,65 %
10.04.2016 18:17 13,2 C 56 % 1011,0 hPa 0,0 l/m 4,1 km/h (1 Bft) SW 216 1 min 0,000 mm 0,0 UV-I 170 W/m 4,6 C 13,2 C 6,4 km/h (2 Bft) 100,00 %
10.04.2016 18:18 13,2 C 58 % 1011,0 hPa 0,0 l/m 5,9 km/h (2 Bft) S 182 1 min 0,000 mm 0,0 UV-I 166 W/m 5,1 C 13,2 C 8,0 km/h (2 Bft) 96,15 %
10.04.2016 18:19 13,1 C 56 % 1011,0 hPa 0,0 l/m 4,8 km/h (1 Bft) S 185 1 min 0,000 mm 0,0 UV-I 163 W/m 4,5 C 13,1 C 6,4 km/h (2 Bft) 98,64 %
10.04.2016 18:20 13,1 C 55 % 1011,0 hPa 0,0 l/m 6,0 km/h (2 Bft) S-SW 195 1 min 0,000 mm 0,0 UV-I 161 W/m 4,3 C 13,1 C 8,0 km/h (2 Bft) 97,87 %
10.04.2016 18:21 13,1 C 57 % 1011,0 hPa 0,0 l/m 3,9 km/h (1 Bft) S-SW 195 1 min 0,000 mm 0,0 UV-I 156 W/m 4,8 C 13,1 C 4,8 km/h (1 Bft) 96,30 %
10.04.2016 18:22 13,1 C 59 % 1011,0 hPa 0,0 l/m 3,4 km/h (1 Bft) S 177 1 min 0,000 mm 0,0 UV-I 154 W/m 5,3 C 13,1 C 6,4 km/h (2 Bft) 100,00 %
10.04.2016 18:23 13,1 C 57 % 1011,0 hPa 0,0 l/m 4,2 km/h (1 Bft) S 178 1 min 0,000 mm 0,0 UV-I 150 W/m 4,8 C 13,1 C 6,4 km/h (2 Bft) 95,83 %
10.04.2016 18:24 13,1 C 56 % 1011,0 hPa 0,0 l/m 3,4 km/h (1 Bft) SW 218 1 min 0,000 mm 0,0 UV-I 146 W/m 4,5 C 13,1 C 4,8 km/h (1 Bft) 100,00 %
10.04.2016 18:25 13,1 C 58 % 1011,0 hPa 0,0 l/m 4,3 km/h (1 Bft) SW 234 1 min 0,000 mm 0,0 UV-I 141 W/m 5,0 C 13,1 C 4,8 km/h (1 Bft) 95,83 %
10.04.2016 18:26 13,1 C 58 % 1011,0 hPa 0,0 l/m 2,3 km/h (1 Bft) SW 234 1 min 0,000 mm 0,0 UV-I 136 W/m 5,0 C 13,1 C 3,2 km/h (1 Bft) 96,15 %
10.04.2016 18:27 13,1 C 58 % 1011,0 hPa 0,0 l/m 3,5 km/h (1 Bft) SW 224 1 min 0,000 mm 0,0 UV-I 133 W/m 5,0 C 13,1 C 4,8 km/h (1 Bft) 95,83 %
10.04.2016 18:28 13,1 C 58 % 1011,0 hPa 0,0 l/m 3,4 km/h (1 Bft) SW 224 1 min 0,000 mm 0,0 UV-I 130 W/m 5,0 C 13,1 C 4,8 km/h (1 Bft) 95,65 %
10.04.2016 18:29 13,1 C 58 % 1011,0 hPa 0,0 l/m 3,5 km/h (1 Bft) SW 224 1 min 0,000 mm 0,0 UV-I 127 W/m 5,0 C 13,1 C 6,4 km/h (2 Bft) 100,00 %
10.04.2016 18:30 13,1 C 56 % 1011,0 hPa 0,0 l/m 4,6 km/h (1 Bft) SW 229 1 min 0,000 mm 0,0 UV-I 125 W/m 4,5 C 13,1 C 6,4 km/h (2 Bft) 95,65 %
10.04.2016 18:31 13,0 C 56 % 1011,0 hPa 0,0 l/m 3,4 km/h (1 Bft) SW 231 1 min 0,000 mm 0,0 UV-I 122 W/m 4,4 C 13,0 C 6,4 km/h (2 Bft) 100,00 %
10.04.2016 18:32 13,0 C 57 % 1011,0 hPa 0,0 l/m 4,7 km/h (1 Bft) SW 231 1 min 0,000 mm 0,0 UV-I 121 W/m 4,7 C 13,0 C 6,4 km/h (2 Bft) 96,15 %
10.04.2016 18:33 13,0 C 56 % 1011,0 hPa 0,0 l/m 4,3 km/h (1 Bft) SW 234 1 min 0,000 mm 0,0 UV-I 120 W/m 4,4 C 13,0 C 6,4 km/h (2 Bft) 100,00 %
10.04.2016 18:34 12,9 C 56 % 1011,0 hPa 0,0 l/m 4,9 km/h (1 Bft) SW 227 1 min 0,000 mm 0,0 UV-I 118 W/m 4,3 C 12,9 C 8,0 km/h (2 Bft) 96,15 %
10.04.2016 18:35 12,9 C 55 % 1011,0 hPa 0,0 l/m 4,6 km/h (1 Bft) SW 227 1 min 0,000 mm 0,0 UV-I 116 W/m 4,1 C 12,9 C 6,4 km/h (2 Bft) 100,00 %
10.04.2016 18:36 12,9 C 56 % 1011,1 hPa 0,0 l/m 5,2 km/h (1 Bft) SW 227 1 min 0,000 mm 0,0 UV-I 113 W/m 4,3 C 12,9 C 6,4 km/h (2 Bft) 95,83 %
10.04.2016 18:37 12,9 C 56 % 1011,0 hPa 0,0 l/m 5,3 km/h (1 Bft) SW 227 1 min 0,000 mm 0,0 UV-I 110 W/m 4,3 C 12,9 C 6,4 km/h (2 Bft) 95,65 %
10.04.2016 18:38 12,9 C 55 % 1011,1 hPa 0,0 l/m 4,6 km/h (1 Bft) SW 227 1 min 0,000 mm 0,0 UV-I 108 W/m 4,1 C 12,9 C 4,8 km/h (1 Bft) 100,00 %
10.04.2016 18:39 12,9 C 56 % 1011,1 hPa 0,0 l/m 4,2 km/h (1 Bft) SW 227 1 min 0,000 mm 0,0 UV-I 104 W/m 4,3 C 12,9 C 4,8 km/h (1 Bft) 93,33 %
10.04.2016 18:40 12,8 C 56 % 1011,0 hPa 0,0 l/m 4,4 km/h (1 Bft) SW 227 1 min 0,000 mm 0,0 UV-I 103 W/m 4,2 C 12,8 C 4,8 km/h (1 Bft) 100,00 %
10.04.2016 18:41 12,8 C 55 % 1011,1 hPa 0,0 l/m 4,8 km/h (1 Bft) SW 228 1 min 0,000 mm 0,0 UV-I 99 W/m 4,0 C 12,8 C 6,4 km/h (2 Bft) 95,65 %
10.04.2016 18:42 12,8 C 55 % 1011,1 hPa 0,0 l/m 3,7 km/h (1 Bft) SW 225 1 min 0,000 mm 0,0 UV-I 95 W/m 4,0 C 12,8 C 6,4 km/h (2 Bft) 100,00 %
10.04.2016 18:43 12,8 C 55 % 1011,1 hPa 0,0 l/m 3,0 km/h (1 Bft) SW 228 0 min 0,000 mm 0,0 UV-I 92 W/m 4,0 C 12,8 C 4,8 km/h (1 Bft) 96,15 %
10.04.2016 18:44 12,8 C 55 % 1011,1 hPa 0,0 l/m 2,9 km/h (1 Bft) SW 228 0 min 0,000 mm 0,0 UV-I 90 W/m 4,0 C 12,8 C 3,2 km/h (1 Bft) 91,67 %
10.04.2016 18:45 12,8 C 56 % 1011,1 hPa 0,0 l/m 3,1 km/h (1 Bft) SW 228 0 min 0,000 mm 0,0 UV-I 87 W/m 4,2 C 12,8 C 4,8 km/h (1 Bft) 100,00 %
10.04.2016 18:46 12,8 C 56 % 1011,1 hPa 0,0 l/m 3,8 km/h (1 Bft) SW 228 0 min 0,000 mm 0,0 UV-I 78 W/m 4,2 C 12,8 C 4,8 km/h (1 Bft) 100,00 %
10.04.2016 18:47 12,7 C 55 % 1011,1 hPa 0,0 l/m 2,7 km/h (1 Bft) SW 228 0 min 0,000 mm 0,0 UV-I 59 W/m 3,9 C 12,7 C 3,2 km/h (1 Bft) 100,00 %
10.04.2016 18:48 12,7 C 55 % 1011,1 hPa 0,0 l/m 2,7 km/h (1 Bft) SW 228 0 min 0,000 mm 0,0 UV-I 60 W/m 3,9 C 12,7 C 4,8 km/h (1 Bft) 91,67 %
10.04.2016 18:49 12,7 C 57 % 1011,1 hPa 0,0 l/m 4,7 km/h (1 Bft) SW 228 0 min 0,000 mm 0,0 UV-I 67 W/m 4,4 C 12,7 C 6,4 km/h (2 Bft) 100,00 %
10.04.2016 18:50 12,7 C 57 % 1011,1 hPa 0,0 l/m 4,4 km/h (1 Bft) SW 228 0 min 0,000 mm 0,0 UV-I 72 W/m 4,4 C 12,7 C 6,4 km/h (2 Bft) 100,00 %
10.04.2016 18:51 12,7 C 57 % 1011,1 hPa 0,0 l/m 3,8 km/h (1 Bft) SW 228 0 min 0,000 mm 0,0 UV-I 73 W/m 4,4 C 12,7 C 6,4 km/h (2 Bft) 98,60 %
10.04.2016 18:52 12,6 C 57 % 1011,1 hPa 0,0 l/m 2,5 km/h (1 Bft) SW 228 0 min 0,000 mm 0,0 UV-I 73 W/m 4,3 C 12,6 C 4,8 km/h (1 Bft) 97,37 %
10.04.2016 18:53 12,6 C 57 % 1011,1 hPa 0,0 l/m 3,0 km/h (1 Bft) SW 228 0 min 0,000 mm 0,0 UV-I 70 W/m 4,3 C 12,6 C 3,2 km/h (1 Bft) 100,00 %
10.04.2016 18:54 12,6 C 57 % 1011,1 hPa 0,0 l/m 3,2 km/h (1 Bft) SW 228 0 min 0,000 mm 0,0 UV-I 69 W/m 4,3 C 12,6 C 4,8 km/h (1 Bft) 100,00 %
10.04.2016 18:55 12,5 C 58 % 1011,1 hPa 0,0 l/m 1,8 km/h (1 Bft) SW 228 0 min 0,000 mm 0,0 UV-I 69 W/m 4,5 C 12,5 C 3,2 km/h (1 Bft) 100,00 %
10.04.2016 18:56 12,5 C 58 % 1011,1 hPa 0,0 l/m 2,1 km/h (1 Bft) SW 228 0 min 0,000 mm 0,0 UV-I 66 W/m 4,5 C 12,5 C 3,2 km/h (1 Bft) 97,56 %
10.04.2016 18:57 12,5 C 57 % 1011,1 hPa 0,0 l/m 3,3 km/h (1 Bft) SW 228 0 min 0,000 mm 0,0 UV-I 64 W/m 4,2 C 12,5 C 4,8 km/h (1 Bft) 91,67 %
10.04.2016 18:58 12,5 C 58 % 1011,1 hPa 0,0 l/m 2,4 km/h (1 Bft) SW 228 0 min 0,000 mm 0,0 UV-I 62 W/m 4,5 C 12,5 C 3,2 km/h (1 Bft) 100,00 %
10.04.2016 18:59 12,5 C 58 % 1011,1 hPa 0,0 l/m 2,9 km/h (1 Bft) SW 228 0 min 0,000 mm 0,0 UV-I 60 W/m 4,5 C 12,5 C 3,2 km/h (1 Bft) 100,00 %
10.04.2016 19:00 12,4 C 58 % 1011,0 hPa 0,0 l/m 1,7 km/h (1 Bft) SW 228 0 min 0,102 mm 0,0 UV-I 58 W/m 4,4 C 12,4 C 3,2 km/h (1 Bft) 100,00 %
10.04.2016 19:01 12,4 C 58 % 1011,1 hPa 0,0 l/m 2,6 km/h (1 Bft) SW 228 0 min 0,000 mm 0,0 UV-I 55 W/m 4,4 C 12,4 C 3,2 km/h (1 Bft) 100,00 %
10.04.2016 19:02 12,4 C 57 % 1011,1 hPa 0,0 l/m 2,1 km/h (1 Bft) SW 228 0 min 0,000 mm 0,0 UV-I 53 W/m 4,1 C 12,4 C 3,2 km/h (1 Bft) 100,00 %
10.04.2016 19:03 12,5 C 58 % 1011,0 hPa 0,0 l/m 1,5 km/h (1 Bft) SW 228 0 min 0,000 mm 0,0 UV-I 52 W/m 4,5 C 12,5 C 3,2 km/h (1 Bft) 100,00 %
10.04.2016 19:04 12,4 C 61 % 1011,1 hPa 0,0 l/m 1,1 km/h (1 Bft) SW 228 0 min 0,000 mm 0,0 UV-I 49 W/m 5,1 C 12,4 C 3,2 km/h (1 Bft) 100,00 %
10.04.2016 19:05 12,4 C 64 % 1011,0 hPa 0,0 l/m 0,2 km/h (0 Bft) SW 228 0 min 0,000 mm 0,0 UV-I 47 W/m 5,8 C 12,4 C 1,6 km/h (1 Bft) 100,00 %
10.04.2016 19:06 12,3 C 64 % 1011,0 hPa 0,0 l/m 1,1 km/h (1 Bft) SW 228 0 min 0,000 mm 0,0 UV-I 47 W/m 5,7 C 12,3 C 3,2 km/h (1 Bft) 100,00 %
10.04.2016 19:09 11,7 C 69 % 1011,1 hPa 0,0 l/m 1,5 km/h (1 Bft) SW 228 0 min 0,000 mm 0,0 UV-I 42 W/m 6,2 C 11,7 C 3,2 km/h (1 Bft) 100,00 %
10.04.2016 19:10 11,6 C 68 % 1011,1 hPa 0,0 l/m 1,8 km/h (1 Bft) SW 228 0 min 0,000 mm 0,0 UV-I 42 W/m 5,9 C 11,6 C 3,2 km/h (1 Bft) 100,00 %
10.04.2016 19:11 11,5 C 69 % 1011,1 hPa 0,0 l/m 1,8 km/h (1 Bft) SW 227 0 min 0,000 mm 0,0 UV-I 40 W/m 6,0 C 11,5 C 3,2 km/h (1 Bft) 100,00 %
10.04.2016 19:12 11,4 C 69 % 1011,1 hPa 0,0 l/m 1,2 km/h (1 Bft) SW 227 0 min 0,000 mm 0,0 UV-I 39 W/m 5,9 C 11,4 C 1,6 km/h (1 Bft) 95,65 %
10.04.2016 19:13 11,5 C 66 % 1011,1 hPa 0,0 l/m 0,6 km/h (0 Bft) SW 227 0 min 0,000 mm 0,0 UV-I 39 W/m 5,4 C 11,5 C 1,6 km/h (1 Bft) 100,00 %
10.04.2016 19:14 11,6 C 66 % 1011,1 hPa 0,0 l/m 0,1 km/h (0 Bft) SW 227 0 min 0,000 mm 0,0 UV-I 39 W/m 5,5 C 11,6 C 1,6 km/h (1 Bft) 100,00 %
10.04.2016 19:15 11,6 C 64 % 1011,1 hPa 0,0 l/m 0,1 km/h (0 Bft) SW 227 0 min 0,000 mm 0,0 UV-I 39 W/m 5,0 C 11,6 C 1,6 km/h (1 Bft) 100,00 %
10.04.2016 19:16 11,7 C 66 % 1011,2 hPa 0,0 l/m 0,0 km/h (0 Bft) SW 227 0 min 0,000 mm 0,0 UV-I 39 W/m 5,6 C 11,7 C 0,0 km/h (0 Bft) 100,00 %
10.04.2016 19:17 11,7 C 67 % 1011,2 hPa 0,0 l/m 0,0 km/h (0 Bft) SW 227 0 min 0,000 mm 0,0 UV-I 37 W/m 5,8 C 11,7 C 0,0 km/h (0 Bft) 100,00 %
10.04.2016 19:18 11,6 C 67 % 1011,2 hPa 0,0 l/m 0,0 km/h (0 Bft) SW 227 0 min 0,000 mm 0,0 UV-I 35 W/m 5,7 C 11,6 C 0,0 km/h (0 Bft) 100,00 %
10.04.2016 19:19 11,6 C 68 % 1011,2 hPa 0,0 l/m 0,0 km/h (0 Bft) SW 227 0 min 0,000 mm 0,0 UV-I 34 W/m 5,9 C 11,6 C 0,0 km/h (0 Bft) 100,00 %
10.04.2016 19:20 11,4 C 68 % 1011,2 hPa 0,0 l/m 0,0 km/h (0 Bft) SW 227 0 min 0,000 mm 0,0 UV-I 32 W/m 5,7 C 11,4 C 0,0 km/h (0 Bft) 100,00 %
10.04.2016 19:21 11,4 C 69 % 1011,1 hPa 0,0 l/m 0,0 km/h (0 Bft) SW 227 0 min 0,000 mm 0,0 UV-I 31 W/m 5,9 C 11,4 C 0,0 km/h (0 Bft) 100,00 %
10.04.2016 19:22 11,3 C 70 % 1011,2 hPa 0,0 l/m 0,0 km/h (0 Bft) SW 227 0 min 0,000 mm 0,0 UV-I 28 W/m 6,0 C 11,3 C 0,0 km/h (0 Bft) 100,00 %
10.04.2016 19:23 11,2 C 70 % 1011,2 hPa 0,0 l/m 0,6 km/h (0 Bft) SW 227 0 min 0,000 mm 0,0 UV-I 26 W/m 5,9 C 11,2 C 1,6 km/h (1 Bft) 100,00 %
10.04.2016 19:24 11,1 C 71 % 1011,1 hPa 0,0 l/m 0,8 km/h (0 Bft) SW 227 0 min 0,000 mm 0,0 UV-I 26 W/m 6,0 C 11,1 C 1,6 km/h (1 Bft) 100,00 %
10.04.2016 19:25 10,9 C 72 % 1011,2 hPa 0,0 l/m 0,8 km/h (0 Bft) SW 227 0 min 0,000 mm 0,0 UV-I 24 W/m 6,1 C 10,9 C 1,6 km/h (1 Bft) 100,00 %
10.04.2016 19:26 10,8 C 73 % 1011,2 hPa 0,0 l/m 1,0 km/h (0 Bft) SW 227 0 min 0,000 mm 0,0 UV-I 22 W/m 6,2 C 10,8 C 1,6 km/h (1 Bft) 100,00 %
10.04.2016 19:27 10,7 C 72 % 1011,2 hPa 0,0 l/m 0,9 km/h (0 Bft) SW 227 0 min 0,000 mm 0,0 UV-I 21 W/m 5,9 C 10,7 C 1,6 km/h (1 Bft) 100,00 %
10.04.2016 19:28 10,6 C 73 % 1011,2 hPa 0,0 l/m 0,9 km/h (0 Bft) SW 227 0 min 0,000 mm 0,0 UV-I 19 W/m 6,0 C 10,6 C 1,6 km/h (1 Bft) 100,00 %
10.04.2016 19:29 10,6 C 74 % 1011,2 hPa 0,0 l/m 0,3 km/h (0 Bft) SW 227 0 min 0,000 mm 0,0 UV-I 19 W/m 6,2 C 10,6 C 1,6 km/h (1 Bft) 100,00 %
10.04.2016 19:30 10,5 C 74 % 1011,2 hPa 0,0 l/m 1,1 km/h (1 Bft) SW 227 0 min 0,000 mm 0,0 UV-I 18 W/m 6,1 C 10,5 C 1,6 km/h (1 Bft) 100,00 %
10.04.2016 19:31 10,4 C 74 % 1011,2 hPa 0,0 l/m 1,1 km/h (1 Bft) SW 227 0 min 0,000 mm 0,0 UV-I 17 W/m 6,0 C 10,4 C 1,6 km/h (1 Bft) 100,00 %
10.04.2016 19:32 10,4 C 74 % 1011,2 hPa 0,0 l/m 1,5 km/h (1 Bft) SW 227 0 min 0,000 mm 0,0 UV-I 15 W/m 6,0 C 10,4 C 3,2 km/h (1 Bft) 93,33 %
10.04.2016 19:33 10,3 C 74 % 1011,3 hPa 0,0 l/m 2,3 km/h (1 Bft) SW 227 0 min 0,000 mm 0,0 UV-I 13 W/m 5,9 C 10,3 C 3,2 km/h (1 Bft) 100,00 %
10.04.2016 19:34 10,3 C 74 % 1011,2 hPa 0,0 l/m 3,4 km/h (1 Bft) SW 227 0 min 0,000 mm 0,0 UV-I 11 W/m 5,9 C 10,3 C 4,8 km/h (1 Bft) 95,65 %
10.04.2016 19:35 10,3 C 74 % 1011,2 hPa 0,0 l/m 3,8 km/h (1 Bft) SW 227 0 min 0,000 mm 0,0 UV-I 11 W/m 5,9 C 10,3 C 4,8 km/h (1 Bft) 100,00 %
10.04.2016 19:36 10,4 C 72 % 1011,2 hPa 0,0 l/m 4,3 km/h (1 Bft) SW 230 1 min 0,000 mm 0,0 UV-I 10 W/m 5,6 C 10,4 C 4,8 km/h (1 Bft) 100,00 %
10.04.2016 19:37 10,5 C 70 % 1011,3 hPa 0,0 l/m 6,1 km/h (2 Bft) N-NO 22 1 min 0,000 mm 0,0 UV-I 9 W/m 5,3 C 10,5 C 8,0 km/h (2 Bft) 100,00 %
10.04.2016 19:38 10,6 C 71 % 1011,3 hPa 0,0 l/m 7,0 km/h (2 Bft) N-NO 16 0 min 0,000 mm 0,0 UV-I 9 W/m 5,6 C 10,2 C 11,3 km/h (2 Bft) 100,00 %
10.04.2016 19:39 10,6 C 72 % 1011,3 hPa 0,0 l/m 9,0 km/h (2 Bft) O-NO 63 0 min 0,000 mm 0,0 UV-I 9 W/m 5,8 C 8,8 C 12,9 km/h (3 Bft) 93,33 %
10.04.2016 19:40 10,6 C 72 % 1011,3 hPa 0,0 l/m 7,1 km/h (2 Bft) O-NO 58 0 min 0,000 mm 0,0 UV-I 7 W/m 5,8 C 10,1 C 9,7 km/h (2 Bft) 100,00 %
10.04.2016 19:41 10,6 C 74 % 1011,3 hPa 0,0 l/m 6,2 km/h (2 Bft) O-NO 61 0 min 0,000 mm 0,0 UV-I 7 W/m 6,2 C 10,6 C 8,0 km/h (2 Bft) 100,00 %
10.04.2016 19:42 10,7 C 75 % 1011,3 hPa 0,0 l/m 8,5 km/h (2 Bft) NO 51 0 min 0,000 mm 0,0 UV-I 7 W/m 6,5 C 9,3 C 12,9 km/h (3 Bft) 100,00 %
10.04.2016 19:43 10,7 C 75 % 1011,3 hPa 0,0 l/m 5,5 km/h (1 Bft) NO 53 0 min 0,000 mm 0,0 UV-I 6 W/m 6,5 C 10,7 C 8,0 km/h (2 Bft) 100,00 %
10.04.2016 19:44 10,7 C 76 % 1011,3 hPa 0,0 l/m 5,3 km/h (1 Bft) NO 49 0 min 0,000 mm 0,0 UV-I 5 W/m 6,6 C 10,7 C 8,0 km/h (2 Bft) 100,00 %
10.04.2016 19:45 10,7 C 77 % 1011,3 hPa 0,0 l/m 5,8 km/h (2 Bft) NO 40 0 min 0,000 mm 0,0 UV-I 5 W/m 6,8 C 10,7 C 9,7 km/h (2 Bft) 100,00 %
10.04.2016 19:46 10,7 C 76 % 1011,3 hPa 0,0 l/m 6,3 km/h (2 Bft) O-NO 63 0 min 0,000 mm 0,0 UV-I 5 W/m 6,6 C 10,7 C 12,9 km/h (3 Bft) 96,15 %
10.04.2016 19:47 10,7 C 77 % 1011,3 hPa 0,0 l/m 7,5 km/h (2 Bft) NO 34 0 min 0,000 mm 0,0 UV-I 5 W/m 6,8 C 9,9 C 12,9 km/h (3 Bft) 100,00 %
10.04.2016 19:48 10,7 C 77 % 1011,3 hPa 0,0 l/m 10,6 km/h (2 Bft) NO 54 0 min 0,000 mm 0,0 UV-I 5 W/m 6,8 C 8,0 C 12,9 km/h (3 Bft) 100,00 %
10.04.2016 19:49 10,7 C 77 % 1011,3 hPa 0,0 l/m 6,7 km/h (2 Bft) N-NO 30 0 min 0,000 mm 0,0 UV-I 3 W/m 6,8 C 10,5 C 9,7 km/h (2 Bft) 100,00 %
10.04.2016 19:50 10,7 C 77 % 1011,4 hPa 0,0 l/m 8,0 km/h (2 Bft) N-NO 27 0 min 0,000 mm 0,0 UV-I 0 W/m 6,8 C 9,6 C 11,3 km/h (2 Bft) 100,00 %
10.04.2016 19:51 10,6 C 78 % 1011,3 hPa 0,0 l/m 10,9 km/h (2 Bft) NO 40 0 min 0,000 mm 0,0 UV-I 0 W/m 6,9 C 7,8 C 16,1 km/h (3 Bft) 100,00 %
10.04.2016 19:52 10,6 C 78 % 1011,4 hPa 0,0 l/m 10,5 km/h (2 Bft) NO 40 0 min 0,000 mm 0,0 UV-I 0 W/m 6,9 C 8,0 C 16,1 km/h (3 Bft) 96,55 %
10.04.2016 19:53 10,6 C 78 % 1011,4 hPa 0,0 l/m 6,8 km/h (2 Bft) O-NO 60 0 min 0,000 mm 0,0 UV-I 0 W/m 6,9 C 10,3 C 8,0 km/h (2 Bft) 100,00 %
10.04.2016 19:54 10,6 C 78 % 1011,4 hPa 0,0 l/m 6,0 km/h (2 Bft) N-NO 29 0 min 0,000 mm 0,0 UV-I 0 W/m 6,9 C 10,6 C 8,0 km/h (2 Bft) 100,00 %
10.04.2016 19:55 10,5 C 78 % 1011,4 hPa 0,0 l/m 6,9 km/h (2 Bft) NO 36 0 min 0,000 mm 0,0 UV-I 0 W/m 6,8 C 10,2 C 12,9 km/h (3 Bft) 100,00 %
10.04.2016 19:56 10,5 C 78 % 1011,5 hPa 0,0 l/m 9,1 km/h (2 Bft) NO 54 0 min 0,000 mm 0,0 UV-I 0 W/m 6,8 C 8,7 C 11,3 km/h (2 Bft) 95,83 %
10.04.2016 19:57 10,5 C 78 % 1011,5 hPa 0,0 l/m 7,1 km/h (2 Bft) O-NO 71 0 min 0,000 mm 0,0 UV-I 0 W/m 6,8 C 10,0 C 9,7 km/h (2 Bft) 95,65 %
10.04.2016 19:58 10,4 C 78 % 1011,5 hPa 0,0 l/m 6,5 km/h (2 Bft) O-NO 59 0 min 0,000 mm 0,0 UV-I 0 W/m 6,7 C 10,4 C 8,0 km/h (2 Bft) 100,00 %
10.04.2016 19:59 10,4 C 78 % 1011,5 hPa 0,0 l/m 5,7 km/h (1 Bft) NO 50 0 min 0,000 mm 0,0 UV-I 0 W/m 6,7 C 10,4 C 8,0 km/h (2 Bft) 100,00 %
10.04.2016 20:00 10,4 C 78 % 1011,5 hPa 0,0 l/m 7,2 km/h (2 Bft) NO 49 0 min 0,000 mm 0,0 UV-I 0 W/m 6,7 C 9,8 C 9,7 km/h (2 Bft) 100,00 %
10.04.2016 20:01 10,4 C 79 % 1011,5 hPa 0,0 l/m 5,1 km/h (1 Bft) NO 53 0 min 0,025 mm 0,0 UV-I 0 W/m 6,9 C 10,4 C 8,0 km/h (2 Bft) 100,00 %
10.04.2016 20:02 10,4 C 79 % 1011,5 hPa 0,0 l/m 3,6 km/h (1 Bft) NO 55 0 min 0,000 mm 0,0 UV-I 0 W/m 6,9 C 10,4 C 4,8 km/h (1 Bft) 100,00 %
10.04.2016 20:03 10,3 C 79 % 1011,5 hPa 0,0 l/m 3,3 km/h (1 Bft) O-NO 62 0 min 0,000 mm 0,0 UV-I 0 W/m 6,8 C 10,3 C 4,8 km/h (1 Bft) 100,00 %
10.04.2016 20:04 10,3 C 79 % 1011,6 hPa 0,0 l/m 4,9 km/h (1 Bft) N-NO 32 0 min 0,000 mm 0,0 UV-I 0 W/m 6,8 C 10,3 C 8,0 km/h (2 Bft) 95,83 %
10.04.2016 20:05 10,3 C 79 % 1011,6 hPa 0,0 l/m 6,0 km/h (2 Bft) O-NO 61 0 min 0,000 mm 0,0 UV-I 0 W/m 6,8 C 10,3 C 8,0 km/h (2 Bft) 100,00 %
10.04.2016 20:06 10,3 C 79 % 1011,6 hPa 0,0 l/m 5,8 km/h (2 Bft) NO 41 0 min 0,000 mm 0,0 UV-I 0 W/m 6,8 C 10,3 C 8,0 km/h (2 Bft) 100,00 %
10.04.2016 20:07 10,3 C 79 % 1011,6 hPa 0,0 l/m 4,8 km/h (1 Bft) NO 44 0 min 0,000 mm 0,0 UV-I 0 W/m 6,8 C 10,3 C 8,0 km/h (2 Bft) 100,00 %
10.04.2016 20:08 10,3 C 79 % 1011,6 hPa 0,0 l/m 4,2 km/h (1 Bft) O-NO 71 0 min 0,000 mm 0,0 UV-I 0 W/m 6,8 C 10,3 C 6,4 km/h (2 Bft) 100,00 %
10.04.2016 20:09 10,2 C 80 % 1011,6 hPa 0,0 l/m 6,5 km/h (2 Bft) O-NO 77 0 min 0,000 mm 0,0 UV-I 0 W/m 6,9 C 10,2 C 11,3 km/h (2 Bft) 100,00 %
10.04.2016 20:10 10,2 C 80 % 1011,6 hPa 0,0 l/m 8,9 km/h (2 Bft) NO 50 0 min 0,000 mm 0,0 UV-I 0 W/m 6,9 C 8,5 C 12,9 km/h (3 Bft) 100,00 %
10.04.2016 20:11 10,2 C 80 % 1011,6 hPa 0,0 l/m 7,9 km/h (2 Bft) O-NO 71 0 min 0,000 mm 0,0 UV-I 0 W/m 6,9 C 9,1 C 12,9 km/h (3 Bft) 100,00 %
10.04.2016 20:12 10,2 C 80 % 1011,6 hPa 0,0 l/m 7,2 km/h (2 Bft) O 80 0 min 0,000 mm 0,0 UV-I 0 W/m 6,9 C 9,6 C 9,7 km/h (2 Bft) 100,00 %
10.04.2016 20:13 10,1 C 80 % 1011,6 hPa 0,0 l/m 6,6 km/h (2 Bft) O-NO 74 0 min 0,000 mm 0,0 UV-I 0 W/m 6,8 C 10,0 C 8,0 km/h (2 Bft) 100,00 %
10.04.2016 20:14 10,1 C 80 % 1011,6 hPa 0,0 l/m 5,8 km/h (2 Bft) O-NO 63 0 min 0,000 mm 0,0 UV-I 0 W/m 6,8 C 10,1 C 9,7 km/h (2 Bft) 100,00 %
10.04.2016 20:15 10,1 C 80 % 1011,6 hPa 0,0 l/m 6,0 km/h (2 Bft) NO 56 0 min 0,000 mm 0,0 UV-I 0 W/m 6,8 C 10,1 C 8,0 km/h (2 Bft) 100,00 %
10.04.2016 20:16 10,1 C 80 % 1011,6 hPa 0,0 l/m 8,0 km/h (2 Bft) O 98 0 min 0,000 mm 0,0 UV-I 0 W/m 6,8 C 9,0 C 11,3 km/h (2 Bft) 100,00 %
10.04.2016 20:17 10,1 C 80 % 1011,6 hPa 0,0 l/m 8,1 km/h (2 Bft) O-NO 63 0 min 0,000 mm 0,0 UV-I 0 W/m 6,8 C 8,9 C 12,9 km/h (3 Bft) 96,15 %
10.04.2016 20:18 10,1 C 80 % 1011,6 hPa 0,0 l/m 7,0 km/h (2 Bft) O-NO 61 0 min 0,000 mm 0,0 UV-I 0 W/m 6,8 C 9,7 C 8,0 km/h (2 Bft) 91,67 %
10.04.2016 20:19 10,0 C 80 % 1011,6 hPa 0,0 l/m 7,4 km/h (2 Bft) O-NO 63 0 min 0,000 mm 0,0 UV-I 0 W/m 6,7 C 9,3 C 11,3 km/h (2 Bft) 96,30 %
10.04.2016 20:20 10,0 C 80 % 1011,6 hPa 0,0 l/m 6,9 km/h (2 Bft) O-NO 58 0 min 0,000 mm 0,0 UV-I 0 W/m 6,7 C 9,6 C 9,7 km/h (2 Bft) 96,15 %
10.04.2016 20:21 10,0 C 80 % 1011,6 hPa 0,0 l/m 8,9 km/h (2 Bft) O-NO 65 0 min 0,000 mm 0,0 UV-I 0 W/m 6,7 C 8,3 C 14,5 km/h (3 Bft) 96,30 %
10.04.2016 20:22 10,0 C 79 % 1011,6 hPa 0,0 l/m 7,5 km/h (2 Bft) NO 54 0 min 0,000 mm 0,0 UV-I 0 W/m 6,5 C 9,2 C 9,7 km/h (2 Bft) 100,00 %
10.04.2016 20:23 10,0 C 79 % 1011,6 hPa 0,0 l/m 8,3 km/h (2 Bft) O-NO 64 0 min 0,000 mm 0,0 UV-I 0 W/m 6,5 C 8,7 C 11,3 km/h (2 Bft) 95,83 %
10.04.2016 20:24 9,9 C 79 % 1011,7 hPa 0,0 l/m 7,8 km/h (2 Bft) NO 43 0 min 0,000 mm 0,0 UV-I 0 W/m 6,4 C 8,9 C 9,7 km/h (2 Bft) 100,00 %
10.04.2016 20:25 9,9 C 79 % 1011,7 hPa 0,0 l/m 7,1 km/h (2 Bft) O-NO 61 0 min 0,000 mm 0,0 UV-I 0 W/m 6,4 C 9,4 C 9,7 km/h (2 Bft) 95,83 %
10.04.2016 20:26 9,9 C 79 % 1011,7 hPa 0,0 l/m 7,0 km/h (2 Bft) O-NO 62 0 min 0,000 mm 0,0 UV-I 0 W/m 6,4 C 9,5 C 11,3 km/h (2 Bft) 100,00 %
10.04.2016 20:27 9,9 C 79 % 1011,7 hPa 0,0 l/m 6,0 km/h (2 Bft) O-NO 67 0 min 0,000 mm 0,0 UV-I 0 W/m 6,4 C 9,9 C 8,0 km/h (2 Bft) 97,73 %
10.04.2016 20:28 9,9 C 79 % 1011,8 hPa 0,0 l/m 6,5 km/h (2 Bft) NO 48 0 min 0,000 mm 0,0 UV-I 0 W/m 6,4 C 9,9 C 9,7 km/h (2 Bft) 95,65 %
10.04.2016 20:29 9,9 C 79 % 1011,7 hPa 0,0 l/m 6,7 km/h (2 Bft) O-NO 71 0 min 0,000 mm 0,0 UV-I 0 W/m 6,4 C 9,7 C 12,9 km/h (3 Bft) 100,00 %
10.04.2016 20:30 9,9 C 79 % 1011,7 hPa 0,0 l/m 6,0 km/h (2 Bft) NO 52 0 min 0,000 mm 0,0 UV-I 0 W/m 6,4 C 9,9 C 8,0 km/h (2 Bft) 96,30 %
10.04.2016 20:31 9,9 C 79 % 1011,7 hPa 0,0 l/m 5,8 km/h (2 Bft) O-NO 67 0 min 0,000 mm 0,0 UV-I 0 W/m 6,4 C 9,9 C 8,0 km/h (2 Bft) 100,00 %
10.04.2016 20:32 9,8 C 79 % 1011,7 hPa 0,0 l/m 7,0 km/h (2 Bft) NO 55 0 min 0,000 mm 0,0 UV-I 0 W/m 6,3 C 9,4 C 9,7 km/h (2 Bft) 96,55 %
10.04.2016 20:33 9,8 C 79 % 1011,7 hPa 0,0 l/m 7,3 km/h (2 Bft) NO 55 0 min 0,000 mm 0,0 UV-I 0 W/m 6,3 C 9,1 C 11,3 km/h (2 Bft) 100,00 %
10.04.2016 20:34 9,8 C 79 % 1011,7 hPa 0,0 l/m 7,5 km/h (2 Bft) O-NO 59 0 min 0,000 mm 0,0 UV-I 0 W/m 6,3 C 9,0 C 9,7 km/h (2 Bft) 96,30 %
10.04.2016 20:35 9,8 C 79 % 1011,8 hPa 0,0 l/m 7,6 km/h (2 Bft) O 84 0 min 0,000 mm 0,0 UV-I 0 W/m 6,3 C 8,9 C 11,3 km/h (2 Bft) 100,00 %
10.04.2016 20:36 9,8 C 79 % 1011,7 hPa 0,0 l/m 8,6 km/h (2 Bft) O 86 0 min 0,000 mm 0,0 UV-I 0 W/m 6,3 C 8,2 C 11,3 km/h (2 Bft) 98,64 %
10.04.2016 20:37 9,7 C 80 % 1011,8 hPa 0,0 l/m 7,0 km/h (2 Bft) O-NO 67 0 min 0,000 mm 0,0 UV-I 0 W/m 6,4 C 9,3 C 8,0 km/h (2 Bft) 95,12 %
10.04.2016 20:38 9,7 C 80 % 1011,8 hPa 0,0 l/m 6,3 km/h (2 Bft) O-NO 76 0 min 0,000 mm 0,0 UV-I 0 W/m 6,4 C 9,7 C 8,0 km/h (2 Bft) 95,83 %
10.04.2016 20:39 9,6 C 80 % 1011,8 hPa 0,0 l/m 5,6 km/h (1 Bft) O-NO 77 0 min 0,000 mm 0,0 UV-I 0 W/m 6,3 C 9,6 C 8,0 km/h (2 Bft) 96,15 %
10.04.2016 20:40 9,6 C 80 % 1011,8 hPa 0,0 l/m 5,2 km/h (1 Bft) O-NO 63 0 min 0,000 mm 0,0 UV-I 0 W/m 6,3 C 9,6 C 8,0 km/h (2 Bft) 100,00 %
10.04.2016 20:41 9,6 C 80 % 1011,8 hPa 0,0 l/m 7,1 km/h (2 Bft) NO 55 0 min 0,000 mm 0,0 UV-I 0 W/m 6,3 C 9,1 C 9,7 km/h (2 Bft) 95,65 %
10.04.2016 20:42 9,6 C 80 % 1011,8 hPa 0,0 l/m 5,6 km/h (1 Bft) NO 44 0 min 0,000 mm 0,0 UV-I 0 W/m 6,3 C 9,6 C 8,0 km/h (2 Bft) 100,00 %
10.04.2016 20:43 9,6 C 80 % 1011,8 hPa 0,0 l/m 6,9 km/h (2 Bft) O-NO 76 0 min 0,000 mm 0,0 UV-I 0 W/m 6,3 C 9,2 C 9,7 km/h (2 Bft) 88,24 %
10.04.2016 20:44 9,6 C 79 % 1011,8 hPa 0,0 l/m 5,5 km/h (1 Bft) NO 45 0 min 0,000 mm 0,0 UV-I 0 W/m 6,1 C 9,6 C 6,4 km/h (2 Bft) 100,00 %
10.04.2016 20:45 9,5 C 80 % 1011,8 hPa 0,0 l/m 5,7 km/h (1 Bft) O-NO 63 0 min 0,000 mm 0,0 UV-I 0 W/m 6,2 C 9,5 C 6,4 km/h (2 Bft) 94,12 %
10.04.2016 20:46 9,5 C 80 % 1011,8 hPa 0,0 l/m 5,8 km/h (2 Bft) O-NO 59 0 min 0,000 mm 0,0 UV-I 0 W/m 6,2 C 9,5 C 11,3 km/h (2 Bft) 96,43 %
10.04.2016 20:47 9,5 C 80 % 1011,8 hPa 0,0 l/m 5,8 km/h (2 Bft) NO 53 0 min 0,000 mm 0,0 UV-I 0 W/m 6,2 C 9,5 C 12,9 km/h (3 Bft) 100,00 %
10.04.2016 20:48 9,4 C 80 % 1011,8 hPa 0,0 l/m 5,3 km/h (1 Bft) NO 41 0 min 0,000 mm 0,0 UV-I 0 W/m 6,1 C 9,4 C 6,4 km/h (2 Bft) 96,30 %
10.04.2016 20:49 9,4 C 80 % 1011,8 hPa 0,0 l/m 6,4 km/h (2 Bft) N-NO 15 0 min 0,000 mm 0,0 UV-I 0 W/m 6,1 C 9,4 C 6,4 km/h (2 Bft) 98,62 %
10.04.2016 20:52 9,1 C 81 % 1011,8 hPa 0,0 l/m 7,6 km/h (2 Bft) N-NO 30 0 min 0,000 mm 0,0 UV-I 0 W/m 6,0 C 8,2 C 12,9 km/h (3 Bft) 96,63 %
10.04.2016 20:53 9,1 C 81 % 1011,8 hPa 0,0 l/m 9,0 km/h (2 Bft) NO 35 0 min 0,000 mm 0,0 UV-I 0 W/m 6,0 C 7,2 C 12,9 km/h (3 Bft) 100,00 %
10.04.2016 20:54 9,0 C 81 % 1011,8 hPa 0,0 l/m 7,9 km/h (2 Bft) NO 43 0 min 0,000 mm 0,0 UV-I 0 W/m 5,9 C 7,9 C 9,7 km/h (2 Bft) 95,65 %
10.04.2016 20:55 8,9 C 82 % 1011,8 hPa 0,0 l/m 8,2 km/h (2 Bft) NO 40 0 min 0,000 mm 0,0 UV-I 0 W/m 6,0 C 7,6 C 11,3 km/h (2 Bft) 100,00 %
10.04.2016 20:56 8,9 C 82 % 1011,9 hPa 0,0 l/m 6,1 km/h (2 Bft) NO 36 0 min 0,000 mm 0,0 UV-I 0 W/m 6,0 C 8,9 C 9,7 km/h (2 Bft) 83,33 %
10.04.2016 20:57 8,8 C 82 % 1011,9 hPa 0,0 l/m 6,2 km/h (2 Bft) N-NO 25 0 min 0,000 mm 0,0 UV-I 0 W/m 5,9 C 8,8 C 9,7 km/h (2 Bft) 100,00 %
10.04.2016 20:58 8,8 C 82 % 1011,9 hPa 0,0 l/m 4,2 km/h (1 Bft) NO 37 0 min 0,000 mm 0,0 UV-I 0 W/m 5,9 C 8,8 C 4,8 km/h (1 Bft) 96,55 %
10.04.2016 20:59 8,8 C 82 % 1011,9 hPa 0,0 l/m 4,7 km/h (1 Bft) NO 37 0 min 0,000 mm 0,0 UV-I 0 W/m 5,9 C 8,8 C 6,4 km/h (2 Bft) 100,00 %
10.04.2016 21:00 8,8 C 82 % 1011,9 hPa 0,0 l/m 4,9 km/h (1 Bft) O-NO 62 0 min 0,000 mm 0,0 UV-I 0 W/m 5,9 C 8,8 C 6,4 km/h (2 Bft) 100,00 %
10.04.2016 21:01 8,7 C 82 % 1011,9 hPa 0,0 l/m 4,6 km/h (1 Bft) O-NO 59 0 min 0,026 mm 0,0 UV-I 0 W/m 5,8 C 8,7 C 6,4 km/h (2 Bft) 100,00 %
10.04.2016 21:02 8,7 C 82 % 1011,9 hPa 0,0 l/m 4,1 km/h (1 Bft) O-NO 57 0 min 0,000 mm 0,0 UV-I 0 W/m 5,8 C 8,7 C 8,0 km/h (2 Bft) 100,00 %
10.04.2016 21:03 8,7 C 82 % 1011,9 hPa 0,0 l/m 4,2 km/h (1 Bft) O-NO 57 0 min 0,000 mm 0,0 UV-I 0 W/m 5,8 C 8,7 C 4,8 km/h (1 Bft) 96,30 %
10.04.2016 21:04 8,7 C 82 % 1011,8 hPa 0,0 l/m 5,8 km/h (2 Bft) O-NO 61 0 min 0,000 mm 0,0 UV-I 0 W/m 5,8 C 8,7 C 8,0 km/h (2 Bft) 92,31 %
10.04.2016 21:05 8,7 C 82 % 1011,9 hPa 0,0 l/m 6,0 km/h (2 Bft) O 86 0 min 0,000 mm 0,0 UV-I 0 W/m 5,8 C 8,7 C 8,0 km/h (2 Bft) 100,00 %
10.04.2016 21:06 8,7 C 82 % 1011,9 hPa 0,0 l/m 6,4 km/h (2 Bft) O-NO 67 0 min 0,000 mm 0,0 UV-I 0 W/m 5,8 C 8,7 C 11,3 km/h (2 Bft) 100,00 %
10.04.2016 21:07 8,8 C 82 % 1011,9 hPa 0,0 l/m 6,4 km/h (2 Bft) O-NO 67 0 min 0,000 mm 0,0 UV-I 0 W/m 5,9 C 8,8 C 8,0 km/h (2 Bft) 100,00 %
10.04.2016 21:08 8,8 C 82 % 1011,9 hPa 0,0 l/m 6,1 km/h (2 Bft) O-NO 61 0 min 0,000 mm 0,0 UV-I 0 W/m 5,9 C 8,8 C 8,0 km/h (2 Bft) 100,00 %
10.04.2016 21:09 8,7 C 82 % 1011,9 hPa 0,0 l/m 6,1 km/h (2 Bft) O-NO 58 0 min 0,000 mm 0,0 UV-I 0 W/m 5,8 C 8,7 C 8,0 km/h (2 Bft) 100,00 %
10.04.2016 21:10 8,7 C 83 % 1011,9 hPa 0,0 l/m 7,1 km/h (2 Bft) NO 51 0 min 0,000 mm 0,0 UV-I 0 W/m 6,0 C 8,2 C 9,7 km/h (2 Bft) 100,00 %
10.04.2016 21:11 8,7 C 82 % 1011,9 hPa 0,0 l/m 7,4 km/h (2 Bft) NO 40 0 min 0,000 mm 0,0 UV-I 0 W/m 5,8 C 7,9 C 9,7 km/h (2 Bft) 95,83 %
10.04.2016 21:12 8,7 C 83 % 1011,9 hPa 0,0 l/m 5,1 km/h (1 Bft) O-NO 58 0 min 0,000 mm 0,0 UV-I 0 W/m 6,0 C 8,7 C 6,4 km/h (2 Bft) 100,00 %
10.04.2016 21:13 8,7 C 83 % 1011,9 hPa 0,0 l/m 4,7 km/h (1 Bft) NO 52 0 min 0,000 mm 0,0 UV-I 0 W/m 6,0 C 8,7 C 6,4 km/h (2 Bft) 100,00 %
10.04.2016 21:14 8,6 C 83 % 1011,9 hPa 0,0 l/m 4,4 km/h (1 Bft) NO 37 0 min 0,000 mm 0,0 UV-I 0 W/m 5,9 C 8,6 C 6,4 km/h (2 Bft) 100,00 %
10.04.2016 21:15 8,6 C 83 % 1011,9 hPa 0,0 l/m 5,6 km/h (1 Bft) N-NO 31 0 min 0,000 mm 0,0 UV-I 0 W/m 5,9 C 8,6 C 8,0 km/h (2 Bft) 100,00 %
10.04.2016 21:16 8,5 C 83 % 1011,9 hPa 0,0 l/m 8,4 km/h (2 Bft) N-NO 28 0 min 0,000 mm 0,0 UV-I 0 W/m 5,8 C 7,0 C 12,9 km/h (3 Bft) 100,00 %
10.04.2016 21:17 8,4 C 83 % 1011,9 hPa 0,0 l/m 7,1 km/h (2 Bft) NO 36 0 min 0,000 mm 0,0 UV-I 0 W/m 5,7 C 7,9 C 8,0 km/h (2 Bft) 100,00 %
10.04.2016 21:18 8,3 C 84 % 1011,9 hPa 0,0 l/m 5,7 km/h (1 Bft) N-NO 24 0 min 0,000 mm 0,0 UV-I 0 W/m 5,8 C 8,3 C 8,0 km/h (2 Bft) 100,00 %
10.04.2016 21:19 8,3 C 84 % 1012,0 hPa 0,0 l/m 5,1 km/h (1 Bft) NO 50 0 min 0,000 mm 0,0 UV-I 0 W/m 5,8 C 8,3 C 9,7 km/h (2 Bft) 95,65 %
10.04.2016 21:20 8,2 C 83 % 1011,9 hPa 0,0 l/m 7,0 km/h (2 Bft) NO 43 0 min 0,000 mm 0,0 UV-I 0 W/m 5,5 C 7,7 C 8,0 km/h (2 Bft) 100,00 %
10.04.2016 21:21 8,2 C 84 % 1011,9 hPa 0,0 l/m 4,6 km/h (1 Bft) NO 49 0 min 0,000 mm 0,0 UV-I 0 W/m 5,7 C 8,2 C 6,4 km/h (2 Bft) 95,65 %
10.04.2016 21:22 8,2 C 83 % 1011,9 hPa 0,0 l/m 4,2 km/h (1 Bft) NO 44 0 min 0,000 mm 0,0 UV-I 0 W/m 5,5 C 8,2 C 4,8 km/h (1 Bft) 100,00 %
10.04.2016 21:23 8,2 C 83 % 1011,9 hPa 0,0 l/m 4,1 km/h (1 Bft) O-NO 59 0 min 0,000 mm 0,0 UV-I 0 W/m 5,5 C 8,2 C 6,4 km/h (2 Bft) 100,00 %
10.04.2016 21:24 8,2 C 83 % 1012,0 hPa 0,0 l/m 5,5 km/h (1 Bft) O-NO 65 0 min 0,000 mm 0,0 UV-I 0 W/m 5,5 C 8,2 C 6,4 km/h (2 Bft) 100,00 %
10.04.2016 21:25 8,3 C 82 % 1012,0 hPa 0,0 l/m 5,4 km/h (1 Bft) O-NO 71 0 min 0,000 mm 0,0 UV-I 0 W/m 5,4 C 8,3 C 8,0 km/h (2 Bft) 95,65 %
10.04.2016 21:26 8,3 C 82 % 1011,9 hPa 0,0 l/m 6,2 km/h (2 Bft) O-NO 65 0 min 0,000 mm 0,0 UV-I 0 W/m 5,4 C 8,3 C 8,0 km/h (2 Bft) 100,00 %
10.04.2016 21:27 8,3 C 82 % 1011,9 hPa 0,0 l/m 5,2 km/h (1 Bft) O-NO 73 0 min 0,000 mm 0,0 UV-I 0 W/m 5,4 C 8,3 C 8,0 km/h (2 Bft) 100,00 %
10.04.2016 21:28 8,3 C 82 % 1012,0 hPa 0,0 l/m 6,4 km/h (2 Bft) NO 46 0 min 0,000 mm 0,0 UV-I 0 W/m 5,4 C 8,3 C 8,0 km/h (2 Bft) 100,00 %
10.04.2016 21:29 8,4 C 82 % 1011,9 hPa 0,0 l/m 5,8 km/h (2 Bft) O-NO 61 0 min 0,000 mm 0,0 UV-I 0 W/m 5,5 C 8,4 C 6,4 km/h (2 Bft) 100,00 %
10.04.2016 21:30 8,3 C 82 % 1011,9 hPa 0,0 l/m 6,4 km/h (2 Bft) NO 51 0 min 0,000 mm 0,0 UV-I 0 W/m 5,4 C 8,3 C 8,0 km/h (2 Bft) 100,00 %
10.04.2016 21:31 8,3 C 82 % 1012,0 hPa 0,0 l/m 5,8 km/h (2 Bft) O-NO 57 0 min 0,000 mm 0,0 UV-I 0 W/m 5,4 C 8,3 C 8,0 km/h (2 Bft) 100,00 %
10.04.2016 21:32 8,3 C 82 % 1012,0 hPa 0,0 l/m 5,1 km/h (1 Bft) NO 53 0 min 0,000 mm 0,0 UV-I 0 W/m 5,4 C 8,3 C 6,4 km/h (2 Bft) 100,00 %
10.04.2016 21:33 8,3 C 82 % 1011,9 hPa 0,0 l/m 4,9 km/h (1 Bft) O-NO 60 0 min 0,000 mm 0,0 UV-I 0 W/m 5,4 C 8,3 C 6,4 km/h (2 Bft) 100,00 %
10.04.2016 21:34 8,3 C 82 % 1012,0 hPa 0,0 l/m 5,9 km/h (2 Bft) NO 51 0 min 0,000 mm 0,0 UV-I 0 W/m 5,4 C 8,3 C 8,0 km/h (2 Bft) 100,00 %
10.04.2016 21:35 8,3 C 82 % 1012,0 hPa 0,0 l/m 4,7 km/h (1 Bft) O-NO 60 0 min 0,000 mm 0,0 UV-I 0 W/m 5,4 C 8,3 C 4,8 km/h (1 Bft) 100,00 %
10.04.2016 21:36 8,3 C 82 % 1011,9 hPa 0,0 l/m 5,6 km/h (1 Bft) O-NO 61 0 min 0,000 mm 0,0 UV-I 0 W/m 5,4 C 8,3 C 9,7 km/h (2 Bft) 100,00 %
10.04.2016 21:37 8,3 C 82 % 1012,0 hPa 0,0 l/m 4,3 km/h (1 Bft) O-NO 59 0 min 0,000 mm 0,0 UV-I 0 W/m 5,4 C 8,3 C 6,4 km/h (2 Bft) 100,00 %
10.04.2016 21:38 8,3 C 82 % 1012,0 hPa 0,0 l/m 4,4 km/h (1 Bft) O-NO 74 0 min 0,000 mm 0,0 UV-I 0 W/m 5,4 C 8,3 C 6,4 km/h (2 Bft) 100,00 %
10.04.2016 21:39 8,2 C 81 % 1012,0 hPa 0,0 l/m 7,2 km/h (2 Bft) NO 55 0 min 0,000 mm 0,0 UV-I 0 W/m 5,1 C 7,6 C 9,7 km/h (2 Bft) 100,00 %
10.04.2016 21:40 8,2 C 81 % 1012,0 hPa 0,0 l/m 7,5 km/h (2 Bft) NO 35 0 min 0,000 mm 0,0 UV-I 0 W/m 5,1 C 7,3 C 12,9 km/h (3 Bft) 95,65 %
10.04.2016 21:41 8,3 C 81 % 1012,0 hPa 0,0 l/m 8,0 km/h (2 Bft) NO 36 0 min 0,000 mm 0,0 UV-I 0 W/m 5,2 C 7,1 C 11,3 km/h (2 Bft) 100,00 %
10.04.2016 21:42 8,3 C 81 % 1012,1 hPa 0,0 l/m 6,7 km/h (2 Bft) NO 56 0 min 0,000 mm 0,0 UV-I 0 W/m 5,2 C 8,1 C 9,7 km/h (2 Bft) 100,00 %
10.04.2016 21:43 8,3 C 81 % 1012,1 hPa 0,0 l/m 9,3 km/h (2 Bft) NO 53 0 min 0,000 mm 0,0 UV-I 0 W/m 5,2 C 6,2 C 14,5 km/h (3 Bft) 100,00 %
10.04.2016 21:44 8,3 C 81 % 1012,0 hPa 0,0 l/m 5,5 km/h (1 Bft) NO 48 0 min 0,000 mm 0,0 UV-I 0 W/m 5,2 C 8,3 C 8,0 km/h (2 Bft) 100,00 %
10.04.2016 21:45 8,3 C 81 % 1012,1 hPa 0,0 l/m 6,5 km/h (2 Bft) N-NO 23 0 min 0,000 mm 0,0 UV-I 0 W/m 5,2 C 8,2 C 9,7 km/h (2 Bft) 100,00 %
10.04.2016 21:46 8,3 C 81 % 1012,1 hPa 0,0 l/m 9,7 km/h (2 Bft) NO 38 0 min 0,000 mm 0,0 UV-I 0 W/m 5,2 C 5,9 C 12,9 km/h (3 Bft) 100,00 %
10.04.2016 21:47 8,1 C 81 % 1012,1 hPa 0,0 l/m 7,4 km/h (2 Bft) NO 45 0 min 0,000 mm 0,0 UV-I 0 W/m 5,0 C 7,3 C 11,3 km/h (2 Bft) 100,00 %
10.04.2016 21:48 8,1 C 81 % 1012,1 hPa 0,0 l/m 6,5 km/h (2 Bft) NO 41 0 min 0,000 mm 0,0 UV-I 0 W/m 5,0 C 8,0 C 8,0 km/h (2 Bft) 100,00 %
10.04.2016 21:49 8,1 C 81 % 1012,1 hPa 0,0 l/m 6,1 km/h (2 Bft) N-NO 30 0 min 0,000 mm 0,0 UV-I 0 W/m 5,0 C 8,1 C 8,0 km/h (2 Bft) 100,00 %
10.04.2016 21:50 8,0 C 81 % 1012,1 hPa 0,0 l/m 6,8 km/h (2 Bft) N-NO 28 0 min 0,000 mm 0,0 UV-I 0 W/m 4,9 C 7,7 C 9,7 km/h (2 Bft) 100,00 %
10.04.2016 21:51 7,9 C 81 % 1012,1 hPa 0,0 l/m 5,6 km/h (1 Bft) NO 34 0 min 0,000 mm 0,0 UV-I 0 W/m 4,8 C 7,9 C 8,0 km/h (2 Bft) 100,00 %
10.04.2016 21:52 7,9 C 81 % 1012,1 hPa 0,0 l/m 5,5 km/h (1 Bft) NO 41 0 min 0,000 mm 0,0 UV-I 0 W/m 4,8 C 7,9 C 8,0 km/h (2 Bft) 100,00 %
10.04.2016 21:53 7,9 C 82 % 1012,1 hPa 0,0 l/m 7,4 km/h (2 Bft) NO 38 0 min 0,000 mm 0,0 UV-I 0 W/m 5,0 C 7,1 C 11,3 km/h (2 Bft) 100,00 %
10.04.2016 21:54 7,8 C 82 % 1012,1 hPa 0,0 l/m 6,4 km/h (2 Bft) NO 34 0 min 0,000 mm 0,0 UV-I 0 W/m 4,9 C 7,8 C 9,7 km/h (2 Bft) 100,00 %
10.04.2016 21:55 7,8 C 82 % 1012,1 hPa 0,0 l/m 6,3 km/h (2 Bft) N-NO 33 0 min 0,000 mm 0,0 UV-I 0 W/m 4,9 C 7,8 C 8,0 km/h (2 Bft) 100,00 %
10.04.2016 21:56 7,7 C 82 % 1012,1 hPa 0,0 l/m 6,1 km/h (2 Bft) NO 40 0 min 0,000 mm 0,0 UV-I 0 W/m 4,8 C 7,7 C 8,0 km/h (2 Bft) 100,00 %
10.04.2016 21:57 7,7 C 82 % 1012,1 hPa 0,0 l/m 6,7 km/h (2 Bft) NO 36 0 min 0,000 mm 0,0 UV-I 0 W/m 4,8 C 7,5 C 8,0 km/h (2 Bft) 100,00 %
10.04.2016 21:58 7,7 C 82 % 1012,1 hPa 0,0 l/m 7,1 km/h (2 Bft) NO 34 0 min 0,000 mm 0,0 UV-I 0 W/m 4,8 C 7,1 C 9,7 km/h (2 Bft) 100,00 %
10.04.2016 21:59 7,6 C 82 % 1012,1 hPa 0,0 l/m 7,0 km/h (2 Bft) NO 37 0 min 0,000 mm 0,0 UV-I 0 W/m 4,7 C 7,1 C 9,7 km/h (2 Bft) 100,00 %
10.04.2016 22:00 7,6 C 82 % 1012,1 hPa 0,0 l/m 8,3 km/h (2 Bft) NO 42 0 min 0,000 mm 0,0 UV-I 0 W/m 4,7 C 6,1 C 11,3 km/h (2 Bft) 100,00 %
10.04.2016 22:01 7,6 C 82 % 1012,1 hPa 0,0 l/m 8,6 km/h (2 Bft) N-NO 26 0 min 0,025 mm 0,0 UV-I 0 W/m 4,7 C 5,9 C 14,5 km/h (3 Bft) 100,00 %
10.04.2016 22:02 7,6 C 82 % 1012,1 hPa 0,0 l/m 9,3 km/h (2 Bft) NO 44 0 min 0,000 mm 0,0 UV-I 0 W/m 4,7 C 5,4 C 14,5 km/h (3 Bft) 100,00 %
10.04.2016 22:03 7,6 C 82 % 1012,0 hPa 0,0 l/m 9,7 km/h (2 Bft) NO 40 0 min 0,000 mm 0,0 UV-I 0 W/m 4,7 C 5,1 C 16,1 km/h (3 Bft) 100,00 %
10.04.2016 22:04 7,7 C 82 % 1012,0 hPa 0,0 l/m 12,6 km/h (3 Bft) N-NO 31 0 min 0,000 mm 0,0 UV-I 0 W/m 4,8 C 3,5 C 16,1 km/h (3 Bft) 100,00 %
10.04.2016 22:05 7,7 C 82 % 1012,0 hPa 0,0 l/m 10,5 km/h (2 Bft) NO 34 0 min 0,000 mm 0,0 UV-I 0 W/m 4,8 C 4,7 C 14,5 km/h (3 Bft) 100,00 %
10.04.2016 22:06 7,7 C 82 % 1012,1 hPa 0,0 l/m 7,6 km/h (2 Bft) N-NO 33 0 min 0,000 mm 0,0 UV-I 0 W/m 4,8 C 6,7 C 11,3 km/h (2 Bft) 100,00 %
10.04.2016 22:07 7,7 C 82 % 1012,1 hPa 0,0 l/m 9,9 km/h (2 Bft) NO 49 0 min 0,000 mm 0,0 UV-I 0 W/m 4,8 C 5,1 C 14,5 km/h (3 Bft) 100,00 %
10.04.2016 22:08 7,7 C 82 % 1012,0 hPa 0,0 l/m 8,5 km/h (2 Bft) N-NO 26 0 min 0,000 mm 0,0 UV-I 0 W/m 4,8 C 6,1 C 11,3 km/h (2 Bft) 100,00 %
10.04.2016 22:09 7,7 C 82 % 1012,1 hPa 0,0 l/m 8,9 km/h (2 Bft) N-NO 31 0 min 0,000 mm 0,0 UV-I 0 W/m 4,8 C 5,8 C 14,5 km/h (3 Bft) 96,15 %
10.04.2016 22:10 7,7 C 82 % 1012,1 hPa 0,0 l/m 8,5 km/h (2 Bft) NO 44 0 min 0,000 mm 0,0 UV-I 0 W/m 4,8 C 6,1 C 11,3 km/h (2 Bft) 100,00 %
10.04.2016 22:11 7,7 C 82 % 1012,0 hPa 0,0 l/m 9,1 km/h (2 Bft) N-NO 32 0 min 0,000 mm 0,0 UV-I 0 W/m 4,8 C 5,6 C 12,9 km/h (3 Bft) 100,00 %
10.04.2016 22:12 7,7 C 82 % 1012,0 hPa 0,0 l/m 9,7 km/h (2 Bft) NO 54 0 min 0,000 mm 0,0 UV-I 0 W/m 4,8 C 5,2 C 14,5 km/h (3 Bft) 100,00 %
10.04.2016 22:13 7,7 C 82 % 1012,0 hPa 0,0 l/m 8,3 km/h (2 Bft) NO 56 0 min 0,000 mm 0,0 UV-I 0 W/m 4,8 C 6,2 C 12,9 km/h (3 Bft) 100,00 %
10.04.2016 22:14 7,7 C 82 % 1012,0 hPa 0,0 l/m 9,4 km/h (2 Bft) NO 45 0 min 0,000 mm 0,0 UV-I 0 W/m 4,8 C 5,4 C 14,5 km/h (3 Bft) 100,00 %
10.04.2016 22:15 7,7 C 82 % 1012,0 hPa 0,0 l/m 8,9 km/h (2 Bft) NO 42 0 min 0,000 mm 0,0 UV-I 0 W/m 4,8 C 5,8 C 11,3 km/h (2 Bft) 100,00 %
10.04.2016 22:16 7,7 C 82 % 1012,1 hPa 0,0 l/m 9,4 km/h (2 Bft) NO 34 0 min 0,000 mm 0,0 UV-I 0 W/m 4,8 C 5,4 C 12,9 km/h (3 Bft) 85,71 %
10.04.2016 22:17 7,6 C 82 % 1012,1 hPa 0,0 l/m 7,7 km/h (2 Bft) N-NO 28 0 min 0,000 mm 0,0 UV-I 0 W/m 4,7 C 6,6 C 12,9 km/h (3 Bft) 100,00 %
10.04.2016 22:18 7,6 C 82 % 1012,1 hPa 0,0 l/m 7,6 km/h (2 Bft) NO 40 0 min 0,000 mm 0,0 UV-I 0 W/m 4,7 C 6,6 C 16,1 km/h (3 Bft) 100,00 %
10.04.2016 22:19 7,6 C 82 % 1012,0 hPa 0,0 l/m 10,6 km/h (2 Bft) NO 42 0 min 0,000 mm 0,0 UV-I 0 W/m 4,7 C 4,6 C 16,1 km/h (3 Bft) 100,00 %
10.04.2016 22:20 7,6 C 82 % 1012,0 hPa 0,0 l/m 11,3 km/h (2 Bft) NO 44 0 min 0,000 mm 0,0 UV-I 0 W/m 4,7 C 4,1 C 14,5 km/h (3 Bft) 100,00 %
10.04.2016 22:21 7,6 C 82 % 1012,0 hPa 0,0 l/m 8,4 km/h (2 Bft) NO 36 0 min 0,000 mm 0,0 UV-I 0 W/m 4,7 C 6,0 C 11,3 km/h (2 Bft) 95,83 %
10.04.2016 22:22 7,6 C 82 % 1012,1 hPa 0,0 l/m 10,4 km/h (2 Bft) NO 38 0 min 0,000 mm 0,0 UV-I 0 W/m 4,7 C 4,7 C 14,5 km/h (3 Bft) 100,00 %
10.04.2016 22:23 7,6 C 82 % 1012,1 hPa 0,0 l/m 9,7 km/h (2 Bft) NO 36 0 min 0,000 mm 0,0 UV-I 0 W/m 4,7 C 5,1 C 14,5 km/h (3 Bft) 96,67 %
10.04.2016 22:24 7,6 C 82 % 1012,1 hPa 0,0 l/m 7,4 km/h (2 Bft) NO 46 0 min 0,000 mm 0,0 UV-I 0 W/m 4,7 C 6,8 C 12,9 km/h (3 Bft) 98,66 %
10.04.2016 22:25 7,6 C 82 % 1012,1 hPa 0,0 l/m 8,7 km/h (2 Bft) NO 45 0 min 0,000 mm 0,0 UV-I 0 W/m 4,7 C 5,8 C 11,3 km/h (2 Bft) 97,73 %
10.04.2016 22:26 7,6 C 82 % 1012,1 hPa 0,0 l/m 9,4 km/h (2 Bft) N-NO 29 0 min 0,000 mm 0,0 UV-I 0 W/m 4,7 C 5,3 C 12,9 km/h (3 Bft) 100,00 %
10.04.2016 22:27 7,6 C 82 % 1012,1 hPa 0,0 l/m 9,0 km/h (2 Bft) NO 36 0 min 0,000 mm 0,0 UV-I 0 W/m 4,7 C 5,6 C 14,5 km/h (3 Bft) 94,44 %
10.04.2016 22:28 7,6 C 82 % 1012,1 hPa 0,0 l/m 8,7 km/h (2 Bft) O-NO 67 0 min 0,000 mm 0,0 UV-I 0 W/m 4,7 C 5,8 C 14,5 km/h (3 Bft) 100,00 %
10.04.2016 22:29 7,6 C 82 % 1012,1 hPa 0,0 l/m 6,3 km/h (2 Bft) NO 44 0 min 0,000 mm 0,0 UV-I 0 W/m 4,7 C 7,6 C 8,0 km/h (2 Bft) 94,74 %
10.04.2016 22:30 7,6 C 82 % 1012,1 hPa 0,0 l/m 5,2 km/h (1 Bft) NO 55 0 min 0,000 mm 0,0 UV-I 0 W/m 4,7 C 7,6 C 8,0 km/h (2 Bft) 100,00 %
10.04.2016 22:31 7,6 C 82 % 1012,2 hPa 0,0 l/m 4,3 km/h (1 Bft) NO 56 0 min 0,000 mm 0,0 UV-I 0 W/m 4,7 C 7,6 C 6,4 km/h (2 Bft) 95,65 %
10.04.2016 22:32 7,6 C 82 % 1012,2 hPa 0,0 l/m 5,7 km/h (1 Bft) NO 55 0 min 0,000 mm 0,0 UV-I 0 W/m 4,7 C 7,6 C 6,4 km/h (2 Bft) 95,83 %
10.04.2016 22:33 7,6 C 82 % 1012,2 hPa 0,0 l/m 5,9 km/h (2 Bft) NO 54 0 min 0,000 mm 0,0 UV-I 0 W/m 4,7 C 7,6 C 8,0 km/h (2 Bft) 100,00 %
10.04.2016 22:34 7,5 C 82 % 1012,2 hPa 0,0 l/m 6,2 km/h (2 Bft) O-NO 62 0 min 0,000 mm 0,0 UV-I 0 W/m 4,6 C 7,5 C 8,0 km/h (2 Bft) 95,65 %
10.04.2016 22:35 7,5 C 82 % 1012,2 hPa 0,0 l/m 5,9 km/h (2 Bft) NO 51 0 min 0,000 mm 0,0 UV-I 0 W/m 4,6 C 7,5 C 8,0 km/h (2 Bft) 100,00 %
10.04.2016 22:36 7,5 C 82 % 1012,2 hPa 0,0 l/m 6,5 km/h (2 Bft) O-NO 76 0 min 0,000 mm 0,0 UV-I 0 W/m 4,6 C 7,4 C 8,0 km/h (2 Bft) 91,67 %
10.04.2016 22:37 7,5 C 82 % 1012,2 hPa 0,0 l/m 8,4 km/h (2 Bft) O-NO 64 0 min 0,000 mm 0,0 UV-I 0 W/m 4,6 C 5,9 C 11,3 km/h (2 Bft) 100,00 %
10.04.2016 22:38 7,5 C 83 % 1012,2 hPa 0,0 l/m 7,4 km/h (2 Bft) O-NO 65 0 min 0,000 mm 0,0 UV-I 0 W/m 4,8 C 6,7 C 11,3 km/h (2 Bft) 96,30 %
10.04.2016 22:39 7,5 C 83 % 1012,2 hPa 0,0 l/m 8,1 km/h (2 Bft) NO 49 0 min 0,000 mm 0,0 UV-I 0 W/m 4,8 C 6,2 C 9,7 km/h (2 Bft) 100,00 %
10.04.2016 22:40 7,5 C 83 % 1012,3 hPa 0,0 l/m 6,1 km/h (2 Bft) NO 44 0 min 0,000 mm 0,0 UV-I 0 W/m 4,8 C 7,5 C 11,3 km/h (2 Bft) 96,67 %
10.04.2016 22:41 7,5 C 83 % 1012,3 hPa 0,0 l/m 5,8 km/h (2 Bft) O-NO 59 0 min 0,000 mm 0,0 UV-I 0 W/m 4,8 C 7,5 C 8,0 km/h (2 Bft) 91,30 %
10.04.2016 22:42 7,4 C 83 % 1012,3 hPa 0,0 l/m 7,1 km/h (2 Bft) NO 38 0 min 0,000 mm 0,0 UV-I 0 W/m 4,7 C 6,8 C 9,7 km/h (2 Bft) 100,00 %
10.04.2016 22:43 7,4 C 83 % 1012,3 hPa 0,0 l/m 6,7 km/h (2 Bft) NO 44 0 min 0,000 mm 0,0 UV-I 0 W/m 4,7 C 7,2 C 9,7 km/h (2 Bft) 94,12 %
10.04.2016 22:44 7,4 C 83 % 1012,3 hPa 0,0 l/m 5,9 km/h (2 Bft) NO 53 0 min 0,000 mm 0,0 UV-I 0 W/m 4,7 C 7,4 C 8,0 km/h (2 Bft) 100,00 %
10.04.2016 22:45 7,3 C 83 % 1012,3 hPa 0,0 l/m 4,7 km/h (1 Bft) NO 38 0 min 0,000 mm 0,0 UV-I 0 W/m 4,6 C 7,3 C 6,4 km/h (2 Bft) 96,15 %
10.04.2016 22:46 7,3 C 83 % 1012,4 hPa 0,0 l/m 5,6 km/h (1 Bft) NO 38 0 min 0,000 mm 0,0 UV-I 0 W/m 4,6 C 7,3 C 8,0 km/h (2 Bft) 93,33 %
10.04.2016 22:47 7,3 C 83 % 1012,4 hPa 0,0 l/m 4,5 km/h (1 Bft) O-NO 59 0 min 0,000 mm 0,0 UV-I 0 W/m 4,6 C 7,3 C 6,4 km/h (2 Bft) 96,55 %
10.04.2016 22:48 7,3 C 83 % 1012,4 hPa 0,0 l/m 5,2 km/h (1 Bft) NO 42 0 min 0,000 mm 0,0 UV-I 0 W/m 4,6 C 7,3 C 6,4 km/h (2 Bft) 95,83 %
10.04.2016 22:49 7,3 C 83 % 1012,4 hPa 0,0 l/m 5,4 km/h (1 Bft) NO 40 0 min 0,000 mm 0,0 UV-I 0 W/m 4,6 C 7,3 C 8,0 km/h (2 Bft) 100,00 %
10.04.2016 22:50 7,3 C 83 % 1012,4 hPa 0,0 l/m 5,7 km/h (1 Bft) N-NO 32 0 min 0,000 mm 0,0 UV-I 0 W/m 4,6 C 7,3 C 8,0 km/h (2 Bft) 91,67 %
10.04.2016 22:51 7,3 C 83 % 1012,4 hPa 0,0 l/m 8,2 km/h (2 Bft) N-NO 26 0 min 0,000 mm 0,0 UV-I 0 W/m 4,6 C 5,9 C 11,3 km/h (2 Bft) 100,00 %
10.04.2016 22:52 7,2 C 84 % 1012,4 hPa 0,0 l/m 7,7 km/h (2 Bft) NO 48 0 min 0,000 mm 0,0 UV-I 0 W/m 4,7 C 6,1 C 12,9 km/h (3 Bft) 92,31 %
10.04.2016 22:53 7,1 C 84 % 1012,4 hPa 0,0 l/m 8,4 km/h (2 Bft) N-NO 32 0 min 0,000 mm 0,0 UV-I 0 W/m 4,6 C 5,5 C 9,7 km/h (2 Bft) 96,15 %
10.04.2016 22:54 7,1 C 84 % 1012,5 hPa 0,0 l/m 9,1 km/h (2 Bft) O-NO 59 0 min 0,000 mm 0,0 UV-I 0 W/m 4,6 C 5,0 C 12,9 km/h (3 Bft) 93,33 %
10.04.2016 22:55 7,1 C 84 % 1012,4 hPa 0,0 l/m 6,6 km/h (2 Bft) NO 44 0 min 0,000 mm 0,0 UV-I 0 W/m 4,6 C 7,0 C 8,0 km/h (2 Bft) 100,00 %
10.04.2016 22:56 7,0 C 84 % 1012,5 hPa 0,0 l/m 9,0 km/h (2 Bft) NO 34 0 min 0,000 mm 0,0 UV-I 0 W/m 4,5 C 5,0 C 12,9 km/h (3 Bft) 96,55 %
10.04.2016 22:57 7,1 C 85 % 1012,5 hPa 0,0 l/m 8,0 km/h (2 Bft) NO 42 0 min 0,000 mm 0,0 UV-I 0 W/m 4,8 C 5,8 C 9,7 km/h (2 Bft) 91,67 %
10.04.2016 22:58 7,1 C 84 % 1012,5 hPa 0,0 l/m 6,6 km/h (2 Bft) NO 49 0 min 0,000 mm 0,0 UV-I 0 W/m 4,6 C 7,0 C 12,9 km/h (3 Bft) 96,15 %
10.04.2016 22:59 7,1 C 84 % 1012,5 hPa 0,0 l/m 8,6 km/h (2 Bft) N-NO 30 0 min 0,000 mm 0,0 UV-I 0 W/m 4,6 C 5,4 C 14,5 km/h (3 Bft) 93,33 %
10.04.2016 23:00 7,1 C 84 % 1012,5 hPa 0,0 l/m 7,7 km/h (2 Bft) O-NO 59 0 min 0,000 mm 0,0 UV-I 0 W/m 4,6 C 6,0 C 9,7 km/h (2 Bft) 96,15 %
10.04.2016 23:01 7,1 C 84 % 1012,5 hPa 0,0 l/m 8,4 km/h (2 Bft) N-NO 33 0 min 0,026 mm 0,0 UV-I 0 W/m 4,6 C 5,5 C 14,5 km/h (3 Bft) 100,00 %
10.04.2016 23:02 7,1 C 84 % 1012,5 hPa 0,0 l/m 8,9 km/h (2 Bft) NO 39 0 min 0,000 mm 0,0 UV-I 0 W/m 4,6 C 5,1 C 12,9 km/h (3 Bft) 100,00 %
10.04.2016 23:03 7,1 C 84 % 1012,5 hPa 0,0 l/m 8,3 km/h (2 Bft) NO 42 0 min 0,000 mm 0,0 UV-I 0 W/m 4,6 C 5,6 C 12,9 km/h (3 Bft) 97,73 %
10.04.2016 23:04 7,1 C 84 % 1012,5 hPa 0,0 l/m 5,6 km/h (1 Bft) NO 41 0 min 0,000 mm 0,0 UV-I 0 W/m 4,6 C 7,1 C 6,4 km/h (2 Bft) 100,00 %
10.04.2016 23:05 7,1 C 84 % 1012,5 hPa 0,0 l/m 7,3 km/h (2 Bft) NO 48 0 min 0,000 mm 0,0 UV-I 0 W/m 4,6 C 6,4 C 9,7 km/h (2 Bft) 100,00 %
10.04.2016 23:06 7,1 C 84 % 1012,5 hPa 0,0 l/m 5,0 km/h (1 Bft) O-NO 60 0 min 0,000 mm 0,0 UV-I 0 W/m 4,6 C 7,1 C 8,0 km/h (2 Bft) 95,65 %
10.04.2016 23:07 7,1 C 84 % 1012,5 hPa 0,0 l/m 6,9 km/h (2 Bft) NO 55 0 min 0,000 mm 0,0 UV-I 0 W/m 4,6 C 6,7 C 9,7 km/h (2 Bft) 100,00 %
10.04.2016 23:08 7,1 C 84 % 1012,5 hPa 0,0 l/m 7,8 km/h (2 Bft) O-NO 62 0 min 0,000 mm 0,0 UV-I 0 W/m 4,6 C 6,0 C 12,9 km/h (3 Bft) 96,15 %
10.04.2016 23:09 7,1 C 84 % 1012,5 hPa 0,0 l/m 7,4 km/h (2 Bft) NO 55 0 min 0,000 mm 0,0 UV-I 0 W/m 4,6 C 6,3 C 9,7 km/h (2 Bft) 100,00 %
10.04.2016 23:10 7,1 C 84 % 1012,5 hPa 0,0 l/m 5,3 km/h (1 Bft) NO 42 0 min 0,000 mm 0,0 UV-I 0 W/m 4,6 C 7,1 C 8,0 km/h (2 Bft) 100,00 %
10.04.2016 23:11 7,1 C 84 % 1012,5 hPa 0,0 l/m 5,1 km/h (1 Bft) O-NO 58 0 min 0,000 mm 0,0 UV-I 0 W/m 4,6 C 7,1 C 6,4 km/h (2 Bft) 100,00 %
10.04.2016 23:12 7,1 C 84 % 1012,5 hPa 0,0 l/m 7,4 km/h (2 Bft) NO 41 0 min 0,000 mm 0,0 UV-I 0 W/m 4,6 C 6,3 C 9,7 km/h (2 Bft) 93,33 %
10.04.2016 23:13 7,1 C 84 % 1012,5 hPa 0,0 l/m 7,4 km/h (2 Bft) NO 44 0 min 0,000 mm 0,0 UV-I 0 W/m 4,6 C 6,3 C 9,7 km/h (2 Bft) 100,00 %
10.04.2016 23:14 7,1 C 84 % 1012,5 hPa 0,0 l/m 7,4 km/h (2 Bft) NO 55 0 min 0,000 mm 0,0 UV-I 0 W/m 4,6 C 6,3 C 9,7 km/h (2 Bft) 100,00 %
10.04.2016 23:15 7,1 C 84 % 1012,6 hPa 0,0 l/m 6,4 km/h (2 Bft) NO 44 0 min 0,000 mm 0,0 UV-I 0 W/m 4,6 C 7,1 C 8,0 km/h (2 Bft) 100,00 %
10.04.2016 23:16 7,1 C 84 % 1012,5 hPa 0,0 l/m 7,7 km/h (2 Bft) O-NO 71 0 min 0,000 mm 0,0 UV-I 0 W/m 4,6 C 6,0 C 12,9 km/h (3 Bft) 100,00 %
10.04.2016 23:17 7,1 C 84 % 1012,5 hPa 0,0 l/m 7,0 km/h (2 Bft) NO 41 0 min 0,000 mm 0,0 UV-I 0 W/m 4,6 C 6,6 C 8,0 km/h (2 Bft) 100,00 %
10.04.2016 23:18 7,1 C 84 % 1012,5 hPa 0,0 l/m 6,5 km/h (2 Bft) O-NO 57 0 min 0,000 mm 0,0 UV-I 0 W/m 4,6 C 7,0 C 8,0 km/h (2 Bft) 100,00 %
10.04.2016 23:19 7,1 C 84 % 1012,5 hPa 0,0 l/m 9,9 km/h (2 Bft) O-NO 70 0 min 0,000 mm 0,0 UV-I 0 W/m 4,6 C 4,5 C 14,5 km/h (3 Bft) 100,00 %
10.04.2016 23:20 7,1 C 84 % 1012,5 hPa 0,0 l/m 7,3 km/h (2 Bft) NO 53 0 min 0,000 mm 0,0 UV-I 0 W/m 4,6 C 6,4 C 9,7 km/h (2 Bft) 100,00 %
10.04.2016 23:21 7,1 C 84 % 1012,5 hPa 0,0 l/m 8,3 km/h (2 Bft) NO 53 0 min 0,000 mm 0,0 UV-I 0 W/m 4,6 C 5,6 C 9,7 km/h (2 Bft) 100,00 %
10.04.2016 23:22 7,1 C 84 % 1012,6 hPa 0,0 l/m 8,1 km/h (2 Bft) NO 51 0 min 0,000 mm 0,0 UV-I 0 W/m 4,6 C 5,7 C 12,9 km/h (3 Bft) 100,00 %
10.04.2016 23:23 7,1 C 84 % 1012,6 hPa 0,0 l/m 8,8 km/h (2 Bft) NO 50 0 min 0,000 mm 0,0 UV-I 0 W/m 4,6 C 5,2 C 14,5 km/h (3 Bft) 100,00 %
10.04.2016 23:24 7,1 C 84 % 1012,6 hPa 0,0 l/m 8,0 km/h (2 Bft) O-NO 69 0 min 0,000 mm 0,0 UV-I 0 W/m 4,6 C 5,8 C 12,9 km/h (3 Bft) 100,00 %
10.04.2016 23:25 7,1 C 84 % 1012,6 hPa 0,0 l/m 9,2 km/h (2 Bft) N-NO 33 0 min 0,000 mm 0,0 UV-I 0 W/m 4,6 C 4,9 C 14,5 km/h (3 Bft) 96,15 %
10.04.2016 23:26 7,1 C 84 % 1012,6 hPa 0,0 l/m 9,7 km/h (2 Bft) NO 46 0 min 0,000 mm 0,0 UV-I 0 W/m 4,6 C 4,6 C 14,5 km/h (3 Bft) 100,00 %
10.04.2016 23:27 7,1 C 84 % 1012,5 hPa 0,0 l/m 7,1 km/h (2 Bft) O-NO 63 0 min 0,000 mm 0,0 UV-I 0 W/m 4,6 C 6,5 C 11,3 km/h (2 Bft) 100,00 %
10.04.2016 23:28 7,1 C 83 % 1012,6 hPa 0,0 l/m 9,8 km/h (2 Bft) NO 36 0 min 0,000 mm 0,0 UV-I 0 W/m 4,4 C 4,5 C 14,5 km/h (3 Bft) 100,00 %
10.04.2016 23:29 7,1 C 83 % 1012,6 hPa 0,0 l/m 7,7 km/h (2 Bft) O-NO 63 0 min 0,000 mm 0,0 UV-I 0 W/m 4,4 C 6,0 C 11,3 km/h (2 Bft) 100,00 %
10.04.2016 23:30 7,1 C 84 % 1012,6 hPa 0,0 l/m 6,4 km/h (2 Bft) NO 45 0 min 0,000 mm 0,0 UV-I 0 W/m 4,6 C 7,1 C 8,0 km/h (2 Bft) 100,00 %
10.04.2016 23:31 7,1 C 84 % 1012,6 hPa 0,0 l/m 9,3 km/h (2 Bft) NO 54 0 min 0,000 mm 0,0 UV-I 0 W/m 4,6 C 4,9 C 12,9 km/h (3 Bft) 100,00 %
10.04.2016 23:32 7,1 C 83 % 1012,6 hPa 0,0 l/m 8,6 km/h (2 Bft) O-NO 62 0 min 0,000 mm 0,0 UV-I 0 W/m 4,4 C 5,4 C 11,3 km/h (2 Bft) 100,00 %
10.04.2016 23:33 7,1 C 83 % 1012,6 hPa 0,0 l/m 9,9 km/h (2 Bft) NO 53 0 min 0,000 mm 0,0 UV-I 0 W/m 4,4 C 4,5 C 14,5 km/h (3 Bft) 100,00 %
10.04.2016 23:34 7,1 C 83 % 1012,6 hPa 0,0 l/m 9,2 km/h (2 Bft) NO 51 0 min 0,000 mm 0,0 UV-I 0 W/m 4,4 C 4,9 C 14,5 km/h (3 Bft) 100,00 %
10.04.2016 23:35 7,1 C 83 % 1012,6 hPa 0,0 l/m 13,1 km/h (3 Bft) NO 43 0 min 0,000 mm 0,0 UV-I 0 W/m 4,4 C 2,6 C 16,1 km/h (3 Bft) 95,83 %
10.04.2016 23:36 7,1 C 83 % 1012,6 hPa 0,0 l/m 8,9 km/h (2 Bft) NO 49 0 min 0,000 mm 0,0 UV-I 0 W/m 4,4 C 5,1 C 14,5 km/h (3 Bft) 100,00 %
10.04.2016 23:37 7,1 C 84 % 1012,6 hPa 0,0 l/m 9,5 km/h (2 Bft) NO 44 0 min 0,000 mm 0,0 UV-I 0 W/m 4,6 C 4,7 C 11,3 km/h (2 Bft) 100,00 %
10.04.2016 23:38 7,1 C 84 % 1012,6 hPa 0,0 l/m 8,0 km/h (2 Bft) NO 56 0 min 0,000 mm 0,0 UV-I 0 W/m 4,6 C 5,8 C 9,7 km/h (2 Bft) 100,00 %
10.04.2016 23:39 7,1 C 84 % 1012,6 hPa 0,0 l/m 8,0 km/h (2 Bft) NO 55 0 min 0,000 mm 0,0 UV-I 0 W/m 4,6 C 5,8 C 14,5 km/h (3 Bft) 100,00 %
10.04.2016 23:40 7,0 C 84 % 1012,6 hPa 0,0 l/m 10,8 km/h (2 Bft) NO 44 0 min 0,000 mm 0,0 UV-I 0 W/m 4,5 C 3,8 C 14,5 km/h (3 Bft) 100,00 %
10.04.2016 23:41 7,0 C 84 % 1012,6 hPa 0,0 l/m 7,8 km/h (2 Bft) O-NO 68 0 min 0,000 mm 0,0 UV-I 0 W/m 4,5 C 5,9 C 11,3 km/h (2 Bft) 100,00 %
10.04.2016 23:42 6,9 C 84 % 1012,6 hPa 0,0 l/m 7,5 km/h (2 Bft) O-NO 67 0 min 0,000 mm 0,0 UV-I 0 W/m 4,4 C 6,0 C 9,7 km/h (2 Bft) 92,86 %
10.04.2016 23:43 6,9 C 84 % 1012,6 hPa 0,0 l/m 8,9 km/h (2 Bft) NO 55 0 min 0,000 mm 0,0 UV-I 0 W/m 4,4 C 4,9 C 12,9 km/h (3 Bft) 100,00 %
10.04.2016 23:44 6,9 C 84 % 1012,5 hPa 0,0 l/m 9,0 km/h (2 Bft) O-NO 63 0 min 0,000 mm 0,0 UV-I 0 W/m 4,4 C 4,9 C 14,5 km/h (3 Bft) 100,00 %
10.04.2016 23:45 6,8 C 84 % 1012,6 hPa 0,0 l/m 8,8 km/h (2 Bft) NO 47 0 min 0,000 mm 0,0 UV-I 0 W/m 4,3 C 4,9 C 11,3 km/h (2 Bft) 100,00 %
10.04.2016 23:46 6,8 C 84 % 1012,5 hPa 0,0 l/m 8,5 km/h (2 Bft) NO 50 0 min 0,000 mm 0,0 UV-I 0 W/m 4,3 C 5,1 C 11,3 km/h (2 Bft) 92,86 %
10.04.2016 23:47 6,8 C 84 % 1012,6 hPa 0,0 l/m 7,7 km/h (2 Bft) NO 42 0 min 0,000 mm 0,0 UV-I 0 W/m 4,3 C 5,7 C 9,7 km/h (2 Bft) 100,00 %
10.04.2016 23:48 6,8 C 85 % 1012,6 hPa 0,0 l/m 8,1 km/h (2 Bft) NO 40 0 min 0,000 mm 0,0 UV-I 0 W/m 4,5 C 5,4 C 9,7 km/h (2 Bft) 100,00 %
10.04.2016 23:49 6,7 C 85 % 1012,6 hPa 0,0 l/m 10,9 km/h (2 Bft) O-NO 64 0 min 0,000 mm 0,0 UV-I 0 W/m 4,4 C 3,4 C 14,5 km/h (3 Bft) 100,00 %
10.04.2016 23:50 6,7 C 85 % 1012,6 hPa 0,0 l/m 9,5 km/h (2 Bft) NO 55 0 min 0,000 mm 0,0 UV-I 0 W/m 4,4 C 4,3 C 12,9 km/h (3 Bft) 100,00 %
10.04.2016 23:51 6,7 C 85 % 1012,6 hPa 0,0 l/m 10,9 km/h (2 Bft) O-NO 60 0 min 0,000 mm 0,0 UV-I 0 W/m 4,4 C 3,4 C 14,5 km/h (3 Bft) 100,00 %
10.04.2016 23:52 6,7 C 85 % 1012,6 hPa 0,0 l/m 11,0 km/h (2 Bft) O-NO 61 0 min 0,000 mm 0,0 UV-I 0 W/m 4,4 C 3,3 C 14,5 km/h (3 Bft) 100,00 %
10.04.2016 23:53 6,6 C 85 % 1012,6 hPa 0,0 l/m 10,7 km/h (2 Bft) NO 50 0 min 0,000 mm 0,0 UV-I 0 W/m 4,3 C 3,4 C 14,5 km/h (3 Bft) 100,00 %
10.04.2016 23:54 6,6 C 85 % 1012,6 hPa 0,0 l/m 9,4 km/h (2 Bft) O-NO 63 0 min 0,000 mm 0,0 UV-I 0 W/m 4,3 C 4,2 C 14,5 km/h (3 Bft) 100,00 %
10.04.2016 23:55 6,6 C 85 % 1012,6 hPa 0,0 l/m 9,2 km/h (2 Bft) O-NO 63 0 min 0,000 mm 0,0 UV-I 0 W/m 4,3 C 4,4 C 12,9 km/h (3 Bft) 100,00 %
10.04.2016 23:56 6,6 C 85 % 1012,6 hPa 0,0 l/m 7,6 km/h (2 Bft) O-NO 73 0 min 0,000 mm 0,0 UV-I 0 W/m 4,3 C 5,6 C 11,3 km/h (2 Bft) 100,00 %
10.04.2016 23:57 6,6 C 85 % 1012,6 hPa 0,0 l/m 8,6 km/h (2 Bft) NO 49 0 min 0,000 mm 0,0 UV-I 0 W/m 4,3 C 4,8 C 9,7 km/h (2 Bft) 100,00 %
10.04.2016 23:58 6,5 C 85 % 1012,6 hPa 0,0 l/m 6,9 km/h (2 Bft) O-NO 57 0 min 0,000 mm 0,0 UV-I 0 W/m 4,2 C 6,1 C 9,7 km/h (2 Bft) 100,00 %
10.04.2016 23:59 6,5 C 85 % 1012,6 hPa 0,0 l/m 6,9 km/h (2 Bft) O-NO 65 0 min 0,000 mm 0,0 UV-I 0 W/m 4,2 C 6,1 C 9,7 km/h (2 Bft) 100,00 %
_ Min-Zeit 02:36 16:29 00:00 - 19:16 - - - - - - 16:30 08:20 19:16 02:31
Minimum _ 6,0 C 52 % 1009,1 hPa - 0,0 km/h (0 Bft) - - - - - - 3,7 C 2,2 C 0,0 km/h (0 Bft) 83,33 %
_ Max-Zeit 17:04 02:32 23:15 02:13 14:12 - - 17:02 15:01 13:00 12:46 12:45 17:03 14:24 00:02
Maximum _ 14,2 C 97 % 1012,6 hPa 0,2 l/m 15,6 km/h
W-SW (3 Bft)
- - 2 min 0,356 mm 3,9 UV-I 881 W/m 8,2 C 14,1 C 27,4 km/h
S (4 Bft)
100,00 %
Durchschnitt _ 8,8 C 82 % 1011,1 hPa #0,8 l/m 6,1 km/h (2 Bft) SW - #4:35 h #2,007 mm 1,8 UV-I 274 W/m 5,6 C 8,2 C 9,1 km/h (2 Bft) 98,59 %